     2.11           OBSERVATION DATA    G (GPS)             RINEX VERSION / TYPE
teqc 2010Oct21 OPUS Account 20111026 21:07:35UTC            PGM / RUN BY / DATE
T 1523                                                      MARKER NAME
1198                                                        MARKER NUMBER
CSMIDDLETON NGS                                             OBSERVER / AGENCY
0440103897 TRIMBLE 5700 1.04                                REC # / TYPE / VERS
12299603 TRM41249.00 NONE                                   ANT # / TYPE
  -752265.7964 -5517553.3637  3099636.5235                  APPROX POSITION XYZ
        1.9990        0.0000        0.0000                  ANTENNA: DELTA H/E/N
     1     1                                                WAVELENGTH FACT L1/2
     5    L1    L2    C1    P1    P2                        # / TYPES OF OBSERV
    15                                                      LEAP SECONDS
  2011     8    11     0     0   30.0000000     GPS         TIME OF FIRST OBS
                                                            END OF HEADER
 11  8 11  0  0 30.0000000  0  8G09G12G02G04G28G10G17G05
 -30167258.03157 -23485898.93955  22243228.5784                   22243227.4734
 -14596815.73357 -11354398.30555  22996664.7664                   22996663.1804
 -38832008.48258 -30237558.73356  20926296.4064                   20926292.8014
 -55990798.02558 -43611847.18456  20195416.0164                   20195413.9104
 -44963786.94256 -35025101.66953  23193448.2814                   23193447.3914
 -29333524.60357 -22837655.09455  21575202.4064                   21575201.9804
 -59675687.52657 -46485088.30355  22066439.9924                   22066438.6844
  -4198232.72756  -3251191.59654  24138268.0554                   24138271.7934
 11  8 11  0  1  0.0000000  0  8G09G12G02G04G28G10G17G05
 -30199537.06447 -23511051.46245  22237085.9064                   22237085.0634
 -14760924.70547 -11482275.34945  22965436.1484                   22965433.9534
 -38943992.63248 -30324819.09346  20904986.5944                   20904983.1994
 -56017597.81148 -43632730.14346  20190316.1804                   20190314.4454
 -44947510.25746 -35012418.60043  23196545.2664                   23196545.0434
 -29470961.93147 -22944749.07745  21549049.0164                   21549048.2734
 -59708320.08147 -46510516.29145  22060230.7734                   22060228.7584
  -4376117.00346  -3389802.41544  24104418.1644                   24104420.8284
 11  8 11  0  1 30.0000000  0  8G09G12G02G04G28G10G17G05
 -30231282.40847 -23535788.11245  22231044.9694                   22231044.1214
 -14924866.86947 -11610022.47445  22934239.2194                   22934236.5704
 -39055592.94848 -30411780.34746  20883749.6024                   20883746.2034
 -56043979.20348 -43653287.07646  20185295.7584                   20185294.3634
 -44930927.91646 -34999497.44043  23199702.0634                   23199700.8014
 -29607959.55647 -23051500.42545  21522979.3754                   21522978.0744
 -59740842.04947 -46535858.09845  22054041.7194                   22054039.7114
  -4554018.42746  -3528426.63144  24070564.6174                   24070566.4884
 11  8 11  0  2  0.0000000  0  8G09G12G02G04G28G10G17G05
 -30262496.03547 -23560110.46045  22225105.0784                   22225104.5594
 -15088639.70947 -11737637.62745  22903073.5864                   22903071.7584
 -39166808.87348 -30498442.07546  20862586.1254                   20862582.3794
 -56069944.32548 -43673519.65746  20180355.2504                   20180352.8554
 -44914040.99546 -34986338.87144  23202915.1094                   23202913.9694
 -29744513.80047 -23157906.29645  21496993.9454                   21496992.3754
 -59773253.88847 -46561114.10645  22047874.7974                   22047872.3444
  -4731933.44247  -3667061.37844  24036707.8284                   24036710.7934
 11  8 11  0  2 30.0000000  0  8G09G12G02G04G28G10G17G05
 -30293179.44648 -23584019.64245  22219267.0864                   22219264.9964
 -15252239.93347 -11865118.27745  22871941.7424                   22871939.5634
 -39277639.73748 -30584803.75246  20841495.4844                   20841491.9494
 -56095494.19548 -43693428.65346  20175493.0234                   20175491.0594
 -44896850.35446 -34972943.68344  23206186.3284                   23206185.1024
 -29880620.92548 -23263963.75745  21471094.0314                   21471092.0824
 -59805553.71547 -46586282.84245  22041728.0314                   22041726.1214
  -4909858.25847  -3805703.70344  24002850.2584                   24002851.5984
 11  8 11  0  3  0.0000000  0  8G09G12G02G04G28G10G17G05
 -28747913.37547 -22379916.25045  22513321.1954                   22513319.8134
 -13840238.94847 -10764857.74245  23140636.3984                   23140635.1884
 -37812661.27248 -29443262.06446  21120271.6094                   21120267.6684
 -54545209.90648 -42485414.92646  20470502.5554                   20470500.5204
 -43303937.32546 -33731712.84144  23509307.8134                   23509306.8524
 -28440852.68647 -22142066.39045  21745072.6484                   21745071.1884
 -58262318.70747 -45383762.08245  22335395.9924                   22335394.0394
  -3512363.85647  -2716746.74044  24268784.4694                   24268785.8404
 11  8 11  0  3 30.0000000  0  8G09G12G02G04G28G10G17G05
 -28777541.42447 -22403003.10245  22507682.8594                   22507681.9734
 -14003483.91747 -10892061.60445  23109572.1884                   23109569.9884
 -37922719.93748 -29529022.03546  21099328.2344                   21099324.1994
 -54569934.19748 -42504680.60746  20465797.6334                   20465795.5234
 -43286140.98846 -33717845.64444  23512694.3914                   23512693.8714
 -28576054.24047 -22247418.20045  21719344.6094                   21719342.6374
 -58294390.20847 -45408752.88445  22329293.0634                   22329290.9104
  -3690298.44147  -2855396.70844  24234923.9304                   24234926.4264
 11  8 11  0  4  0.0000000  0  8G09G12G02G04G28G10G17G05
 -28806645.04347 -22425681.28045  22502144.6414                   22502144.5124
 -14166547.24347 -11019123.89745  23078542.2424                   23078540.3134
 -38032392.21548 -29614480.91646  21078458.1564                   21078453.6954
 -54594248.35948 -42523626.71046  20461170.7114                   20461168.7234
 -43268044.07146 -33703744.20644  23516138.3674                   23516137.4344
 -28710798.00047 -22352413.29945  21693703.1334                   21693702.0124
 -58326346.55547 -45433653.94745  22323212.0164                   22323210.1804
  -3868233.08946  -2994046.74944  24201063.3594                   24201066.2544
 11  8 11  0  4 30.0000000  0  8G09G12G02G04G28G10G17G05
 -28835229.76547 -22447955.11645  22496705.8364                   22496704.6884
 -14329429.19347 -11146044.89445  23047547.3524                   23047545.4614
 -38141680.83348 -29699640.85846  21057661.6724                   21057657.4924
 -54618157.65048 -42542257.31946  20456620.9224                   20456619.3404
 -43249650.68146 -33689411.82643  23519637.6724                   23519637.6804
 -28845083.91547 -22457051.63245  21668149.4144                   21668148.3524
 -58358190.13447 -45458467.15045  22317152.4614                   22317150.1214
  -4046167.84446  -3132696.89144  24167203.8674                   24167205.6994
 11  8 11  0  5  0.0000000  0  8G09G12G02G04G28G10G17G05
 -28863299.02647 -22469827.32545  22491363.9924                   22491363.3364
 -14492128.21047 -11272823.35145  23016585.7894                   23016584.0594
 -38250586.75548 -29784502.59246  21036937.1724                   21036933.0044
 -54641665.03648 -42560574.77546  20452147.8754                   20452145.6374
 -43230963.40846 -33674850.38343  23523194.0004                   23523194.0164
 -28978910.05147 -22561331.69546  21642683.4614                   21642682.0904
 -58389920.51547 -45483192.13945  22311114.4304                   22311112.1764
  -4224100.70146  -3271345.54744  24133343.3204                   24133345.3554
 11  8 11  0  5 30.0000000  0  8G09G12G02G04G28G10G17G05
 -28890850.02947 -22491295.67245  22486120.7584                   22486120.0744
 -14654636.58047 -11399453.20045  22985661.8594                   22985660.1954
 -38359104.72448 -29869062.02846  21016286.9614                   21016282.6024
 -54664767.61048 -42578576.78546  20447751.4774                   20447749.8634
 -43211977.99246 -33660056.65943  23526807.0864                   23526807.1174
 -29112268.17947 -22665247.07545  21617306.1024                   21617305.0084
 -58421533.03747 -45507825.29445  22305099.1644                   22305096.4454
  -4402023.78746  -3409986.60944  24099485.4844                   24099488.1374
 11  8 11  0  6  0.0000000  0  8G09G12G02G04G28G10G17G05
 -28917884.17047 -22512361.28345  22480976.1644                   22480975.5234
 -14816950.24547 -11525931.35345  22954774.3984                   22954772.4064
 -38467233.70548 -29953318.35146  20995710.7194                   20995706.9184
 -54687466.08048 -42596263.90346  20443431.8674                   20443429.9454
 -43192695.17046 -33645031.15243  23530476.0004                   23530477.2934
 -29245154.07047 -22768794.49645  21592018.8674                   21592017.1024
 -58453025.63947 -45532364.99745  22299105.7034                   22299103.8754
  -4579933.17346  -3548616.96844  24065630.5784                   24065632.6374
 11  8 11  0  6 30.0000000  0  8G09G12G02G04G28G10G17G05
 -28944406.24747 -22533027.86645  22475929.4694                   22475928.8674
 -14979068.98047 -11652257.59845  22923924.4224                   22923922.3484
 -38574976.29048 -30037273.59046  20975208.0704                   20975203.7074
 -54709765.19948 -42613639.84746  20439188.4224                   20439186.5704
 -43173118.59146 -33629776.76643  23534201.8444                   23534201.6174
 -29377567.16247 -22871973.49145  21566821.3524                   21566820.2734
 -58484400.03647 -45556812.59645  22293135.3834                   22293133.5434
  -4757827.85146  -3687235.88344  24031778.1954                   24031780.1604
 11  8 11  0  7  0.0000000  0  8G09G12G02G04G28G10G17G05
 -28970414.39347 -22553294.01145  22470980.4304                   22470978.9844
 -15140985.85847 -11778426.54145  22893111.9924                   22893110.5554
 -38682328.04848 -30120924.28546  20954779.3594                   20954775.3634
 -54731662.70148 -42630702.85146  20435021.6804                   20435019.7664
 -43153245.45846 -33614291.33643  23537983.3594                   23537983.5634
 -29509500.23247 -22974778.43645  21541715.8054                   21541713.7464
 -58515650.57347 -45581163.69145  22287188.4694                   22287186.5664
  -4935700.65746  -3825837.77844  23997929.6174                   23997931.4614
 11  8 11  0  7 30.0000000  0  8G09G12G02G04G28G10G17G05
 -28995918.42547 -22573167.30945  22466127.4774                   22466126.0124
 -15302705.16447 -11904441.52345  22862337.9694                   22862336.8524
 -38789295.80748 -30204275.77446  20934424.4064                   20934420.0274
 -54753167.99248 -42647460.21546  20430929.4534                   20430927.6644
 -43133084.36646 -33598581.42943  23541820.7974                   23541819.6844
 -29640957.32747 -23077212.51145  21516700.0944                   21516698.5354
 -58546784.29547 -45605423.77045  22281263.9534                   22281262.0704
  -5113556.36646  -3964426.35644  23964085.0314                   23964086.1954
 11  8 11  0  8  0.0000000  0  8G09G12G02G04G28G10G17G05
 -29020915.40347 -22592645.52044  22461370.3984                   22461369.0664
 -15464219.13447 -12030296.50345  22831602.7974                   22831600.7504
 -38895874.60648 -30287324.16946  20914143.0084                   20914139.1094
 -54774277.75848 -42663909.38346  20426912.5634                   20426910.4494
 -43112631.48846 -33582644.25443  23545712.7034                   23545711.5274
 -29771930.05347 -23179269.14445  21491776.5944                   21491774.9024
 -58577795.29547 -45629588.20345  22275363.1414                   22275361.0944
  -5291385.97847  -4102994.59844  23930245.5314                   23930245.8754
 11  8 11  0  8 30.0000000  0  8G09G12G02G04G28G10G17G05
 -29045413.18947 -22611734.73344  22456708.5394                   22456707.6484
 -15625530.94947 -12155993.93745  22800905.8284                   22800903.9384
 -39002070.05048 -30370073.83246  20893934.6334                   20893930.0904
 -54794999.58248 -42680056.26046  20422968.8914                   20422966.8094
 -43091893.82346 -33566485.20143  23549658.6024                   23549658.8524
 -29902421.07947 -23280950.42845  21466945.1954                   21466943.1054
 -58608687.93047 -45653660.40445  22269484.3834                   22269482.4184
  -5469192.22447  -4241544.67544  23896408.9924                   23896410.2464
 11  8 11  0  9  0.0000000  0  8G09G12G02G04G28G10G17G05
 -29069404.23547 -22630429.10645  22452143.0394                   22452142.3444
 -15786627.16947 -12281523.38845  22770250.6174                   22770248.2664
 -39107871.51448 -30452516.51446  20873801.5004                   20873797.3754
 -54815325.20448 -42695894.42446  20419101.0004                   20419099.4774
 -43070862.26746 -33550097.03643  23553661.1484                   23553659.9574
 -30032417.23147 -23382246.08546  21442207.3134                   21442205.9454
 -58639451.61147 -45677632.12545  22263630.0554                   22263628.2034
  -5646961.70947  -4380066.06744  23862580.9224                   23862581.6644
 11  8 11  0  9 30.0000000  0  8G09G12G02G04G28G10G17G05
 -29092898.67447 -22648736.48245  22447672.7194                   22447672.1054
 -15947512.92047 -12406888.83145  22739635.0704                   22739633.0514
 -39213286.87448 -30534658.31846  20853741.1334                   20853736.8164
 -54835264.49348 -42711431.53546  20415306.4384                   20415305.2814
 -43049546.42146 -33533487.40443  23557717.5234                   23557717.1684
 -30161923.17947 -23483159.76846  21417563.4694                   21417561.5204
 -58670093.27047 -45701508.75345  22257799.1094                   22257797.2704
  -5824699.08147  -4518562.49944  23828757.8754                   23828759.6174
 11  8 11  0 10  0.0000000  0  8G09G12G02G04G28G10G17G05
 -29115897.37647 -22666657.59745  22443296.0554                   22443295.7424
 -16108183.48347 -12532086.61145  22709060.3524                   22709058.3874
 -39318314.53648 -30616498.04146  20833755.2734                   20833750.8984
 -54854817.65548 -42726667.78746  20411586.0474                   20411584.4064
 -43027945.83846 -33516655.94943  23561828.4224                   23561828.1024
 -30290934.16947 -23583687.77645  21393013.3284                   21393011.2154
 -58700610.35247 -45725288.32945  22251992.0704                   22251990.0594
  -6002399.64247  -4657030.23744  23794942.5394                   23794943.9384
 11  8 11  0 10 30.0000000  0  8G09G12G02G04G28G10G17G05
 -29138401.70647 -22684193.46545  22439013.4144                   22439013.4454
 -16268634.91547 -12657113.63945  22678527.3134                   22678525.5354
 -39422953.32548 -30698034.73146  20813843.2274                   20813838.7154
 -54873985.94848 -42741604.11746  20407938.2424                   20407936.3834
 -43006060.64246 -33499602.57443  23565993.2664                   23565992.7384
 -30419446.00247 -23683826.81246  21368558.0704                   21368556.6564
 -58731000.86947 -45748969.27745  22246209.3594                   22246207.3014
  -6180059.36647  -4795466.17744  23761135.2504                   23761135.5984
 11  8 11  0 11  0.0000000  0  8G09G12G02G04G28G10G17G05
 -29160412.71947 -22701344.95245  22434824.9064                   22434824.4534
 -16428863.40747 -12781966.94545  22648037.1724                   22648035.0824
 -39527201.37248 -30779266.94646  20794005.1724                   20794001.4184
 -54892769.60248 -42756240.74246  20404363.8834                   20404362.4614
 -42983890.75546 -33482327.49443  23570211.4144                   23570211.8404
 -30547454.25147 -23783573.45045  21344199.0084                   21344197.2934
 -58761262.23847 -45772549.58845  22240450.5634                   22240447.8364
  -6357672.93147  -4933866.14244  23727335.9924                   23727336.5704
 11  8 11  0 11 30.0000000  0  8G09G12G02G04G28G10G17G05
 -29181933.84447 -22718114.70145  22430730.2274                   22430728.6684
 -16588866.94647 -12906644.99545  22617589.5004                   22617587.1254
 -39631060.03948 -30860195.75146  20774241.8524                   20774237.5744
 -54911171.74048 -42770580.08346  20400862.2584                   20400860.4654
 -42961438.83546 -33464832.60243  23574484.8204                   23574484.3874
 -30674956.95147 -23882926.17746  21319936.0944                   21319934.6134
 -58791395.08447 -45796029.76745  22234716.4774                   22234714.7464
  -6535239.08047  -5072229.14544  23693546.9144                   23693546.0984
 11  8 11  0 12  0.0000000  0  8G09G12G02G04G28G10G17G05
 -29202970.41247 -22734506.86345  22426726.7344                   22426725.6914
 -16748645.16947 -13031147.44745  22587184.6094                   22587182.4414
 -39734532.08548 -30940823.30146  20754551.6174                   20754547.9414
 -54929197.05848 -42784625.80346  20397431.9924                   20397430.5904
 -42938709.04046 -33447121.18243  23578808.6334                   23578809.3014
 -30801953.84947 -23981884.75845  21295769.3054                   21295767.8554
 -58821401.27047 -45819411.25445  22229006.0164                   22229004.1644
  -6712756.96247  -5210554.51144  23659765.5084                   23659766.5394
 11  8 11  0 12 30.0000000  0  8G09G12G02G04G28G10G17G05
 -29223523.64147 -22750522.39345  22422815.8364                   22422815.3554
 -16908194.13547 -13155471.29245  22556823.3054                   22556821.0004
 -39837616.02648 -31021148.42346  20734935.0864                   20734931.1334
 -54946846.30248 -42798378.47046  20394073.5944                   20394071.4734
 -42915701.31546 -33429193.16543  23583188.3204                   23583186.9844
 -30928440.50648 -24080445.77146  21271699.7194                   21271697.9104
 -58851278.57247 -45842692.29645  22223321.4694                   22223318.8524
  -6890222.11747  -5348838.79844  23625994.2814                   23625996.3674
 11  8 11  0 13  0.0000000  0  8G09G12G02G04G28G10G17G05
 -29243594.55847 -22766162.09745  22418996.2504                   22418995.7034
 -17067509.68347 -13279613.25645  22526506.0394                   22526504.5044
 -39940310.42348 -31101170.01846  20715393.1724                   20715388.8524
 -54964120.28248 -42811838.73646  20390786.8524                   20390784.6764
 -42892415.92446 -33411048.75643  23587618.7344                   23587618.5204
 -31054412.30748 -24178605.59146  21247727.9844                   21247726.7344
 -58881024.87447 -45865871.26045  22217660.5704                   22217658.9144
  -7067630.05447  -5487078.52544  23592235.3284                   23592236.2234
 11  8 11  0 13 30.0000000  0  8G09G12G02G04G28G10G17G05
 -29263188.50647 -22781430.16745  22415267.8134                   22415267.4774
 -17226591.72447 -13403573.25545  22496234.4224                   22496232.7734
 -40042618.17548 -31180890.33346  20695924.7114                   20695920.4614
 -54981023.60248 -42825010.15446  20387569.8914                   20387568.0554
 -42868856.99646 -33392691.28443  23592102.5474                   23592101.6564
 -31179869.48548 -24276364.40446  21223854.0394                   21223852.3634
 -58910641.52447 -45888949.20045  22212024.5164                   22212022.9344
  -7244980.39047  -5625273.37944  23558486.4844                   23558486.7544
 11  8 11  0 14  0.0000000  0  8G09G12G02G04G28G10G17G05
 -27706884.08347 -21568725.45945  22711422.8134                   22711422.8444
 -15810008.64647 -12299742.30045  22765801.1484                   22765799.0354
 -38569112.48048 -30032704.05546  20976323.3524                   20976319.0904
 -53422134.55048 -41610291.43646  20684216.7814                   20684214.8164
 -41269603.34646 -32146519.73243  23896430.4064                   23896429.7344
 -29729381.78648 -23146114.21846  21499873.1804                   21499871.3524
 -57364704.19547 -44684322.73045  22506206.8524                   22506204.7504
  -5846840.28347  -4535813.34544  23824543.5864                   23824544.3054
 11  8 11  0 14 30.0000000  0  8G09G12G02G04G28G10G17G05
 -27725528.54647 -21583253.65745  22707874.6174                   22707874.1954
 -15968611.54647 -12423328.96345  22735620.3594                   22735618.1374
 -38670643.70648 -30111819.28546  20957002.7584                   20956998.4694
 -53438299.53948 -41622887.54346  20681140.7114                   20681138.8954
 -41245497.96146 -32127736.39643  23901016.1484                   23901017.0904
 -29853797.88848 -23243061.80646  21476197.0864                   21476195.8754
 -57394057.21847 -44707195.25145  22500621.1954                   22500618.8404
  -6024062.42547  -4673908.33644  23790818.8204                   23790820.0394
 11  8 11  0 15  0.0000000  0  8G09G12G02G04G28G10G17G05
 -27743702.66947 -21597415.35245  22704416.6024                   22704416.3834
 -16126971.30147 -12546726.16245  22705485.7734                   22705483.0314
 -38771787.32148 -30190632.47446  20937755.9064                   20937751.7424
 -53454098.79148 -41635198.66446  20678134.2664                   20678132.0004
 -41221122.47146 -32108742.59543  23905656.3674                   23905655.4494
 -29977689.61648 -23339600.80546  21452621.5394                   21452619.8014
 -57423277.00847 -44729963.95045  22495060.6334                   22495058.6524
  -6201216.23147  -4811950.04044  23757108.0784                   23757108.2704
 11  8 11  0 15 30.0000000  0  8G09G12G02G04G28G10G17G05
 -27761412.37147 -21611215.15045  22701046.4304                   22701045.6374
 -16285087.78347 -12669933.80945  22675396.8594                   22675394.6414
 -38872546.17548 -30269145.84146  20918581.5004                   20918577.6054
 -53469537.39848 -41647228.75346  20675196.1884                   20675194.6254
 -41196481.30146 -32089541.82442  23910344.8524                   23910345.0474
 -30101056.98948 -23435731.20246  21429145.3284                   21429144.1024
 -57452366.22847 -44752630.90645  22489525.5474                   22489523.4964
  -6378301.61847  -4949938.42244  23723409.4774                   23723409.2624
 11  8 11  0 16  0.0000000  0  8G09G12G02G04G28G10G17G05
 -27778653.91547 -21624650.18345  22697765.6644                   22697765.0784
 -16442951.92747 -12792944.82945  22645356.3984                   22645354.2854
 -38972914.62148 -30347355.00846  20899482.4694                   20899478.5164
 -53484611.41148 -41658974.76346  20672327.8834                   20672326.4844
 -41171569.71046 -32070130.33143  23915085.1024                   23915085.2464
 -30223891.31248 -23531446.24046  21405770.8364                   21405769.0474
 -57481317.97747 -44775190.73645  22484015.6484                   22484013.8524
  -6555309.04847  -5087866.06844  23689725.5234                   23689725.5984
 11  8 11  0 16 30.0000000  0  8G09G12G02G04G28G10G17G05
 -27795431.12547 -21637723.37845  22694572.8054                   22694572.4654
 -16600562.48547 -12915758.21845  22615364.1254                   22615362.2344
 -39072893.85848 -30425260.88546  20880457.0634                   20880452.6954
 -53499324.05548 -41670439.17046  20669528.1484                   20669526.3634
 -41146390.28745 -32050510.16442  23919876.0234                   23919876.8714
 -30346190.88348 -23626744.58046  21382497.8754                   21382496.2424
 -57510132.28947 -44797643.47645  22478533.0084                   22478531.3714
  -6732236.95347  -5225731.77044  23656057.3364                   23656057.0394
 11  8 11  0 17  0.0000000  0  8G09G12G02G04G28G10G17G05
 -27811747.78747 -21650437.68645  22691468.1954                   22691467.6644
 -16757917.17947 -13038372.24145  22585420.0474                   22585418.5784
 -39172484.75348 -30502864.16346  20861505.3524                   20861501.4804
 -53513678.34348 -41681624.34046  20666796.9064                   20666794.8874
 -41120945.83746 -32030683.43442  23924719.6804                   23924719.5984
 -30467953.83448 -23721624.77746  21359327.2814                   21359325.5394
 -57538809.18747 -44819989.14445  22473075.5944                   22473073.7464
  -6909082.54047  -5363533.32844  23622404.1254                   23622404.8834
 11  8 11  0 17 30.0000000  0  8G09G12G02G04G28G10G17G05
 -27827605.04847 -21662794.04845  22688450.8054                   22688450.2504
 -16915011.76347 -13160783.56445  22555526.0704                   22555524.0394
 -39271685.96348 -30580163.79246  20842627.9384                   20842623.8244
 -53527674.77548 -41692530.67246  20664133.2034                   20664131.5274
 -41095236.22046 -32010650.05942  23929611.3204                   23929612.2234
 -30589175.75448 -23816083.38846  21336259.1644                   21336258.4024
 -57567346.81747 -44842226.25745  22467645.0864                   22467642.8554
  -7085841.44747  -5501267.36545  23588767.9454                   23588768.6804
 11  8 11  0 18  0.0000000  0  8G09G12G02G04G28G10G17G05
 -27843010.86647 -21674798.61145  22685518.8754                   22685518.6524
 -17071848.64247 -13282994.07545  22525680.5704                   22525678.7894
 -39370502.98748 -30657164.05046  20823823.8364                   20823820.0204
 -53541320.31148 -41703163.57146  20661536.3594                   20661534.9344
 -41069268.10146 -31990415.29143  23934553.6564                   23934553.9344
 -30709859.24348 -23910122.44246  21313294.0004                   21313292.7384
 -57595749.18447 -44864358.01045  22462240.4144                   22462239.0744
  -7262515.78847  -5638935.48644  23555147.8054                   23555148.4534
 11  8 11  0 18 30.0000000  0  8G09G12G02G04G28G10G17G05
 -27857966.36247 -21686452.30045  22682672.9694                   22682672.4734
 -17228423.22347 -13405000.18045  22495885.8524                   22495883.2584
 -39468934.42448 -30733863.85646  20805092.9304                   20805088.7034
 -53554615.75548 -41713523.67646  20659006.5944                   20659004.3094
 -41043041.60246 -31969979.20643  23939543.3594                   23939544.4574
 -30829999.86348 -24003738.48946  21290431.7114                   21290430.3674
 -57624013.45747 -44886382.13945  22456862.3984                   22456860.3594
  -7439100.66147  -5776533.91644  23521544.4454                   23521545.4494
 11  8 11  0 19  0.0000000  0  8G09G12G02G04G28G10G17G05
 -27872471.73047 -21697755.24945  22679912.7734                   22679912.1134
 -17384730.58447 -13526798.08545  22466140.9064                   22466139.2544
 -39566977.70048 -30810261.20146  20786435.9064                   20786431.9224
 -53567560.88248 -41723610.80446  20656542.6024                   20656541.1414
 -41016555.93446 -31949341.14543  23944584.1334                   23944585.5204
 -30949592.61247 -24096927.60846  21267674.6564                   21267672.9264
 -57652137.20047 -44908296.79245  22451510.8054                   22451508.2974
  -7615590.36747  -5914058.19444  23487959.5474                   23487959.2664
 11  8 11  0 19 30.0000000  0  8G09G12G02G04G28G10G17G05
 -27886526.53247 -21708707.09745  22677238.4064                   22677238.0634
 -17540764.24747 -13648382.71345  22436448.7814                   22436446.7854
 -39664630.00048 -30886353.88146  20767853.7034                   20767849.2774
 -53580154.28848 -41733423.87046  20654146.6484                   20654144.7464
 -40989809.15646 -31928499.59243  23949674.3834                   23949673.8164
 -31068631.59447 -24189685.23446  21245021.9844                   21245020.0784
 -57680116.00747 -44930098.49245  22446186.0704                   22446184.6804
  -7791978.45647  -6051503.27544  23454394.2114                   23454394.5314
 11  8 11  0 20  0.0000000  0  8G09G12G02G04G28G10G17G05
 -27900141.02847 -21719315.84945  22674647.8204                   22674646.8444
 -17696528.83747 -13769757.64845  22406808.2734                   22406805.7894
 -39761898.81048 -30962147.73446  20749343.7664                   20749339.7704
 -53592405.33348 -41742970.15746  20651815.3364                   20651813.6994
 -40962810.30346 -31907461.72742  23954812.1804                   23954812.6604
 -31187121.27647 -24282014.82346  21222474.0394                   21222472.3094
 -57707956.05247 -44951792.06945  22440888.4304                   22440886.7114
  -7968269.06147  -6188872.40144  23420846.8754                   23420847.1564
 11  8 11  0 20 30.0000000  0  8G09G12G02G04G28G10G17G05
 -27913307.60847 -21729575.57644  22672141.9224                   22672141.2854
 -17852010.90747 -13890912.45945  22377220.6414                   22377218.6294
 -39858774.24848 -31037635.05846  20730908.8674                   20730904.8984
 -53604305.90648 -41752243.35546  20649550.6724                   20649548.5394
 -40935550.78246 -31886220.66842  23960000.6094                   23959999.7664
 -31305048.87148 -24373906.43046  21200032.7344                   21200031.3594
 -57735646.47447 -44973369.06945  22435619.1254                   22435617.4494
  -8144448.77747  -6326155.13444  23387321.4384                   23387321.6094
 11  8 11  0 21  0.0000000  0  8G09G12G02G04G28G10G17G05
 -27926036.21247 -21739494.01544  22669719.5944                   22669718.9064
 -18007215.28547 -14011850.89545  22347686.1804                   22347683.7344
 -39955263.45348 -31112821.42646  20712547.4844                   20712543.3874
 -53615865.54548 -41761250.88246  20647350.8364                   20647349.6334
 -40908039.44246 -31864783.34842  23965235.1414                   23965234.5664
 -31422419.16248 -24465363.76846  21177698.5164                   21177696.7894
 -57763193.70047 -44994834.44845  22430376.9064                   22430375.7734
  -8320521.76347  -6463354.70844  23353814.8914                   23353815.3204
 11  8 11  0 21 30.0000000  0  8G09G12G02G04G28G10G17G05
 -27938328.22247 -21749072.24644  22667380.1094                   22667380.2894
 -18162137.69547 -14132569.60945  22318205.1414                   22318203.0984
 -40051365.33148 -31187705.98646  20694260.0634                   20694255.7854
 -53627084.74248 -41769993.14146  20645216.0164                   20645214.1644
 -40880276.26445 -31843149.80942  23970516.9924                   23970519.2114
 -31539227.98048 -24556383.59946  21155469.8914                   21155468.7304
 -57790595.24647 -45016186.33845  22425162.8134                   22425161.0554
  -8496483.29047  -6600467.43445  23320330.8364                   23320331.1954
 11  8 11  0 22  0.0000000  0  8G09G12G02G04G28G10G17G05
 -27950185.82247 -21758311.97844  22665125.0394                   22665123.6174
 -18316774.32247 -14253065.64345  22288779.1414                   22288776.7854
 -40147079.49248 -31262288.43146  20676046.0634                   20676041.8554
 -53637964.68648 -41778471.04046  20643145.6094                   20643143.4534
 -40852262.68746 -31821321.14842  23975849.8674                   23975849.2304
 -31655472.09648 -24646963.38746  21133349.7814                   21133348.3094
 -57817849.82947 -45037423.69145  22419976.6094                   22419973.8244
  -8672329.46447  -6737490.30644  23286868.2814                   23286868.3524
 11  8 11  0 22 30.0000000  0  8G09G12G02G04G28G10G17G05
 -27961611.38947 -21767215.06745  22662950.3134                   22662950.0354
 -18471122.02447 -14373336.53245  22259407.4454                   22259404.9924
 -40242406.08048 -31336568.87846  20657905.8754                   20657901.6454
 -53648507.49448 -41786686.24146  20641139.7344                   20641137.3714
 -40823999.74245 -31799298.16842  23981226.6094                   23981227.7194
 -31771148.58448 -24737100.88246  21111337.0704                   21111335.4964
 -57844956.11947 -45058545.49745  22414818.0474                   22414816.2424
  -8848056.64047  -6874420.46045  23253428.6174                   23253428.4614
 11  8 11  0 23  0.0000000  0  8G09G12G02G04G28G10G17G05
 -27972611.82447 -21775786.89645  22660856.9064                   22660857.0664
 -18625181.67447 -14493382.99245  22230090.9304                   22230088.7114
 -40337348.54048 -31410549.99646  20639839.1174                   20639834.9924
 -53658718.39947 -41794642.80946  20639196.3284                   20639194.8524
 -40795492.60745 -31777084.92642  23986652.9384                   23986653.3674
 -31886258.89148 -24826797.20046  21089432.5704                   21089431.3794
 -57871916.88047 -45079553.91345  22409687.6414                   22409685.5044
  -9023665.26047  -7011258.18945  23220011.1024                   23220011.9224
 11  8 11  0 23 30.0000000  0  8G09G12G02G04G28G10G17G05
 -27983186.25547 -21784026.78145  22658845.1334                   22658844.9694
 -18778946.75247 -14613199.91045  22200830.9064                   22200828.2974
 -40431903.95548 -31484229.52547  20621845.8834                   20621841.5984
 -53668596.45248 -41802340.01846  20637316.7504                   20637315.1174
 -40766739.87945 -31754680.35942  23992124.3834                   23992123.7344
 -32000796.85348 -24916047.51346  21067636.8054                   21067635.3524
 -57898728.07847 -45100445.76745  22404586.0234                   22404583.3324
  -9199148.61247  -7147998.34945  23186618.2504                   23186618.3754
 11  8 11  0 24  0.0000000  0  8G09G12G02G04G28G10G17G05
 -27993336.07047 -21791935.78145  22656913.8754                   22656912.9304
 -18932413.14747 -14732784.07645  22171626.6884                   22171624.1054
 -40526070.93848 -31557606.37246  20603926.3914                   20603922.7734
 -53678141.88048 -41809778.02946  20635500.6254                   20635498.9264
 -40737741.05545 -31732084.04342  23997641.7274                   23997641.9104
 -32114758.19448 -25004848.52546  21045950.4224                   21045948.9494
 -57925386.93147 -45121218.92045  22399512.8134                   22399510.2974
  -9374502.25647  -7284637.42345  23153249.0084                   23153249.3594
 11  8 11  0 24 30.0000000  0  8G09G12G02G04G28G10G17G05
 -28003068.89347 -21799519.85445  22655061.4384                   22655061.0824
 -19085582.56647 -14852136.85345  22142479.6564                   22142477.0984
 -40619854.91548 -31630684.78346  20586080.1414                   20586075.9654
 -53687361.70847 -41816962.31846  20633745.8524                   20633743.9614
 -40708503.13245 -31709301.37942  24003206.4224                   24003205.4304
 -32228145.33048 -25093202.11946  21024373.2584                   21024371.8324
 -57951897.32947 -45141876.39145  22394467.9064                   22394466.1054
  -9549727.29247  -7421176.30145  23119904.7894                   23119904.7544
 11  8 11  0 25  0.0000000  0  8G09G12G02G04G28G10G17G05
 -26436962.83646 -20579177.49845  22953081.6414                   22953080.7384
 -17663023.05147 -13743648.91245  22413183.3754                   22413180.7384
 -39137828.64048 -30475859.10546  20868100.0314                   20868096.1414
 -52120833.39848 -40596290.92246  20931846.2424                   20931844.6174
 -39103604.26445 -30458730.97742  24308608.1884                   24308608.2304
 -30765528.12148 -23953500.38246  21302700.3984                   21302698.5084
 -56402833.63947 -43934813.80445  22689245.6024                   22689243.7274
  -8149390.64947  -6330004.75044  23386379.5084                   23386379.2974
 11  8 11  0 25 30.0000000  0  8G09G12G02G04G28G10G17G05
 -26445865.43846 -20586114.61744  22951387.7894                   22951386.9454
 -17815585.04247 -13862528.36545  22384151.7664                   22384149.4804
 -39230842.29248 -30548337.25946  20850400.3054                   20850396.1914
 -52129403.28647 -40602968.76946  20930215.3674                   20930213.8594
 -39073888.09846 -30435575.61043  24314262.5864                   24314263.3444
 -30877755.01048 -24040949.87846  21281344.0784                   21281342.3244
 -56429040.36147 -43955234.64045  22684258.0234                   22684256.4884
  -8324344.53247  -6466332.31144  23353086.7274                   23353086.4804
 11  8 11  0 26  0.0000000  0  8G09G12G02G04G28G10G17G05
 -26454354.68646 -20592729.67045  22949772.3054                   22949771.4534
 -17967836.50147 -13981165.83345  22355179.9694                   22355177.2384
 -39323468.59148 -30620513.59246  20832773.8204                   20832770.0434
 -52137648.79148 -40609393.85746  20928646.6954                   20928644.7304
 -39043932.64946 -30412233.89643  24319964.2344                   24319964.2504
 -30989395.51648 -24127942.46146  21260099.9694                   21260098.0864
 -56455091.05047 -43975533.88945  22679301.3524                   22679299.0274
  -8499155.16947  -6602548.25944  23319821.7734                   23319821.6994
 11  8 11  0 26 30.0000000  0  8G09G12G02G04G28G10G17G05
 -26462439.01246 -20599029.20745  22948234.1644                   22948234.1174
 -18119779.84047 -14099563.21345  22326265.6254                   22326263.4534
 -39415713.35648 -30692392.61646  20815220.1724                   20815216.0634
 -52145577.35848 -40615571.96046  20927137.8134                   20927136.1684
 -39013744.77546 -30388711.06443  24325708.1804                   24325708.6724
 -31100452.76748 -24214480.55546  21238966.4774                   21238964.5274
 -56480990.21547 -43995715.10845  22674372.4144                   22674369.8284
  -8673824.79847  -6738654.33745  23286582.6954                   23286583.2854
 11  8 11  0 27  0.0000000  0  8G09G12G02G04G28G10G17G05
 -26470119.45847 -20605014.02745  22946773.1564                   22946772.5554
 -18271410.36648 -14217716.83345  22297411.4224                   22297408.4104
 -39507574.89148 -30763973.01946  20797739.6724                   20797735.4144
 -52153188.88648 -40621503.03646  20925689.4384                   20925687.5354
 -38983324.53646 -30365007.10843  24331497.8444                   24331498.1294
 -31210922.50248 -24300560.85346  21217944.4534                   21217942.7974
 -56506735.32747 -44015776.25245  22669473.1334                   22669471.1524
  -8848348.31947  -6874646.56344  23253372.0004                   23253372.3794
 11  8 11  0 27 30.0000000  0  8G09G12G02G04G28G10G17G05
 -26477401.86847 -20610688.71045  22945387.0864                   22945386.6564
 -18422728.23848 -14335626.82545  22268616.7974                   22268614.3284
 -39599056.61148 -30835257.46446  20780331.7424                   20780327.5354
 -52160488.77248 -40627191.28046  20924299.8594                   20924298.5634
 -38952676.89846 -30341126.00543  24337329.2734                   24337330.3714
 -31320805.61048 -24386184.03946  21197034.6414                   21197032.5704
 -56532328.66147 -44035719.15445  22664602.8594                   22664601.1884
  -9022725.50947  -7010524.78345  23220189.2504                   23220188.8554
 11  8 11  0 28  0.0000000  0  8G09G12G02G04G28G10G17G05
 -26484284.02446 -20616051.53244  22944076.7814                   22944076.7774
 -18573725.46447 -14453286.96545  22239883.2584                   22239880.8954
 -39690153.99848 -30906242.41846  20762995.9304                   20762991.4614
 -52167474.07248 -40632634.36346  20922971.1174                   20922969.1724
 -38921798.25545 -30317064.93042  24343205.2814                   24343206.3054
 -31430094.63348 -24471344.27546  21176237.3594                   21176236.0824
 -56557764.31747 -44055539.16745  22659762.6564                   22659762.0634
  -9196948.19147  -7146282.58845  23187036.0004                   23187034.8914
 11  8 11  0 28 30.0000000  0  8G09G12G02G04G28G10G17G05
 -26490773.66046 -20621108.45145  22942841.7664                   22942841.8014
 -18724403.80747 -14570698.63346  22211209.8834                   22211207.2344
 -39780872.03448 -30976931.78146  20745732.6094                   20745728.7584
 -52174151.24148 -40637837.35546  20921700.5864                   20921698.8364
 -38890695.29845 -30292829.00842  24349123.4454                   24349123.9344
 -31538791.66648 -24556043.25946  21155553.2734                   21155551.3284
 -56583045.67547 -44075238.98845  22654951.6954                   22654949.8284
  -9371017.62547  -7281920.98545  23153911.4224                   23153911.0474
 11  8 11  0 29  0.0000000  0  7G09G12G02G04G10G17G05
 -26496874.55746 -20625862.44744  22941680.4774                   22941681.1804
 -18874761.28348 -14687860.27145  22182597.3984                   22182594.5394
 -39871211.91648 -31047326.48046  20728541.8054                   20728537.7424
 -52180523.33648 -40642802.63146  20920487.9454                   20920485.9804
 -31646895.44348 -24640279.93146  21134981.6094                   21134979.5664
 -56608172.69947 -44094818.52445  22650170.4614                   22650168.1174
  -9544931.54247  -7417438.20145  23120816.5314                   23120816.0314
 11  8 11  0 29 30.0000000  0  7G09G12G02G04G10G17G05
 -26502589.58246 -20630315.76444  22940593.0554                   22940592.6604
 -19024794.93047 -14804769.57846  22154047.2894                   22154044.5984
 -39961173.95048 -31117426.75946  20711422.8444                   20711418.0164
 -52186592.26248 -40647531.67846  20919333.4694                   20919331.5124
 -31754403.70348 -24724052.59446  21114523.4224                   21114521.6724
 -56633144.82247 -44114277.39445  22645418.5864                   22645416.7934
  -9718685.92347  -7552831.10545  23087752.1414                   23087752.3134
 11  8 11  0 30  0.0000000  0  7G09G12G02G04G10G17G05
 -26507912.87047 -20634463.85844  22939579.8524                   22939580.8244
 -19174492.92047 -14921417.35846  22125560.6644                   22125557.8594
 -40050749.49248 -31187225.86046  20694376.8914                   20694372.8594
 -52192351.00148 -40652019.00846  20918237.1954                   20918235.5784
 -31861305.50348 -24807352.67646  21094180.2814                   21094179.2664
 -56657952.10147 -44133607.76045  22640697.4144                   22640696.0004
  -9892269.54447  -7688090.97545  23054719.7504                   23054719.8404
 11  8 11  0 30 30.0000000  0  7G09G12G02G04G10G17G05
 -26512841.28547 -20638304.23644  22938642.2274                   22938642.6644
 -19323846.09648 -15037796.43445  22097139.6254                   22097137.2424
 -40139932.97248 -31256719.48447  20677406.1564                   20677401.5824
 -52197795.78048 -40656261.70146  20917200.9694                   20917199.0474
 -31967592.43248 -24890173.64746  21073955.2344                   21073953.0664
 -56682587.51047 -44152804.23345  22636010.1954                   22636008.4304
 -10065672.62847  -7823210.14145  23021722.4614                   23021722.5704
 11  8 11  0 31  0.0000000  0  7G09G12G02G04G10G17G05
 -26517382.35747 -20641842.80144  22937778.0634                   22937778.4884
 -19472856.34747 -15153908.32246  22068783.9224                   22068781.0744
 -40228729.21148 -31325911.34247  20660508.7034                   20660504.6484
 -52202932.88448 -40660264.65646  20916223.2274                   20916222.0164
 -32073266.30348 -24972516.90446  21053845.9224                   21053844.0554
 -56707054.32347 -44171869.32145  22631354.2894                   22631352.6054
 -10238896.07747  -7958189.33345  22988758.8674                   22988759.2934
 11  8 11  0 31 30.0000000  0  7G09G12G02G04G10G17G05
 -26521542.75447 -20645084.74444  22936986.9144                   22936987.1884
 -19621524.39148 -15269753.53246  22040493.1174                   22040490.7664
 -40317142.49948 -31394804.81547  20643684.2974                   20643679.7544
 -52207768.11848 -40664032.36746  20915303.2504                   20915301.5904
 -32178329.12348 -25054384.01746  21033853.0084                   21033851.3714
 -56731355.77747 -44190805.56445  22626730.1414                   22626727.8634
 -10411940.72347  -8093029.20945  22955829.2344                   22955829.5904
 11  8 11  0 32  0.0000000  0  7G09G12G02G04G10G17G05
 -26525326.66847 -20648033.30344  22936266.7974                   22936267.7384
 -19769848.22148 -15385330.51246  22012268.5944                   22012265.6524
 -40405174.43748 -31463401.11846  20626931.9224                   20626928.0904
 -52212304.92148 -40667567.56046  20914439.9534                   20914438.2854
 -32282780.18748 -25135774.44446  21013976.4614                   21013975.1484
 -56755492.37347 -44209613.32245  22622136.1024                   22622134.6254
 -10584804.59247  -8227728.22645  22922934.6094                   22922934.6914
 11  8 11  0 32 30.0000000  0  7G09G12G02G04G10G17G05
 -26528740.59647 -20650693.56144  22935617.5084                   22935617.1884
 -19917829.30748 -15500640.45246  21984108.2274                   21984105.6094
 -40492829.07448 -31531703.42546  20610251.6724                   20610247.5744
 -52216548.65648 -40670874.38346  20913631.8594                   20913630.6134
 -32386620.71748 -25216689.12646  20994216.5704                   20994214.8134
 -56779466.50847 -44228294.51945  22617574.7974                   22617573.0084
 -10757487.79947  -8362286.45645  22890073.7584                   22890073.7974
 11  8 11  0 33  0.0000000  0  7G09G12G02G04G10G17G05
 -26531787.56347 -20653067.90044  22935037.5634                   22935037.0234
 -20065464.10047 -15615680.54146  21956013.7734                   21956011.3444
 -40580106.78048 -31599712.02846  20593643.2424                   20593639.0394
 -52220501.38148 -40673954.44146  20912880.5554                   20912878.2304
 -32489848.71248 -25297126.51146  20974573.0784                   20974571.0394
 -56803277.19247 -44246848.34945  22613043.4304                   22613041.8984
 -10929987.03047  -8496701.35045  22857248.6174                   22857247.8794
 11  8 11  0 33 30.0000000  0  7G09G12G02G04G10G17G05
 -26534471.78147 -20655159.50644  22934527.5554                   22934527.0744
 -20212751.29148 -15730449.76746  21927986.0864                   21927983.5124
 -40667008.97048 -31667428.00046  20577106.7894                   20577102.1644
 -52224166.19748 -40676810.16046  20912182.6724                   20912181.1134
 -32592463.23748 -25377085.87246  20955045.6174                   20955044.0864
 -56826924.91347 -44265275.19545  22608543.5554                   22608541.8794
 -11102300.21547  -8630971.25445  22824457.5554                   22824458.2384
 11  8 11  0 34  0.0000000  0  7G09G12G02G04G10G17G05
 -26536798.74147 -20656972.75744  22934084.3364                   22934083.7974
 -20359690.21247 -15844947.61546  21900024.7584                   21900022.7624
 -40753538.85348 -31734853.87847  20560640.5004                   20560636.2624
 -52227547.93648 -40679445.30846  20911539.3054                   20911537.3014
 -32694464.59648 -25456567.43946  20935635.6484                   20935633.9734
 -56850410.91947 -44283576.02045  22604074.0634                   22604072.4694
 -11274426.35747  -8765095.42945  22791704.1414                   22791703.0164
 11  8 11  0 34 30.0000000  0  7G09G12G02G04G10G17G05
 -26538773.80247 -20658511.82744  22933708.8444                   22933708.0784
 -20506280.55748 -15959173.84146  21872129.5234                   21872127.1214
 -40839699.13648 -31801991.74946  20544244.4384                   20544240.6914
 -52230650.78448 -40681863.13746  20910948.9304                   20910947.4184
 -32795853.32947 -25535571.61746  20916342.0784                   20916340.2854
 -56873737.19947 -44301752.39645  22599635.6094                   22599634.1024
 -11446365.01747  -8899073.52045  22758984.9224                   22758983.4964
 11  8 11  0 35  0.0000000  0  7G09G12G02G04G10G17G05
 -26540396.42647 -20659776.22244  22933399.3134                   22933399.2304
 -20652515.93747 -16073123.47446  21844301.9064                   21844299.6604
 -40925487.01548 -31868839.43746  20527919.8594                   20527915.9104
 -52233473.23148 -40684062.46646  20910411.8054                   20910409.9104
 -32896624.14648 -25614094.32346  20897166.1804                   20897164.6484
 -56896899.24447 -44319800.77645  22595228.2894                   22595226.3754
 -11618109.25047  -9032900.09145  22726302.9534                   22726302.9144
 11  8 11  0 35 30.0000000  0  7G09G12G02G04G10G17G05
 -26541673.34847 -20660771.31344  22933157.0944                   22933156.2854
 -20798396.62348 -16186796.70646  21816541.7584                   21816539.5904
 -41010906.56448 -31935400.10546  20511664.9304                   20511660.9574
 -52236020.76348 -40686047.59246  20909926.7894                   20909925.1684
 -32996778.35747 -25692136.54246  20878107.0944                   20878105.7894
 -56919899.43347 -44337723.03245  22590851.3674                   22590849.8054
 -11789659.08347  -9166575.19245  22693658.2894                   22693657.4024
 11  8 11  0 36  0.0000000  0  7G09G12G02G04G10G17G05
 -24967184.70046 -19433897.06844  23232771.7344                   23232772.3874
 -19368492.37247 -15072585.55446  22088643.1804                   22088641.1724
 -39520532.78248 -30774069.88146  20795273.5474                   20795269.8094
 -50662872.71848 -39460217.97246  21209287.1644                   21209286.1054
 -31520888.51648 -24542092.49146  21158959.6724                   21158958.1484
 -55367313.52547 -43127915.88045  22886298.4614                   22886296.9264
 -10385583.00647  -8072489.83745  22960845.2274                   22960844.1054
 11  8 11  0 36 30.0000000  0  7G09G12G02G04G10G17G05
 -24967778.65747 -19434359.94444  23232659.0704                   23232658.9344
 -19513655.06848 -15185699.31746  22061019.4384                   22061017.7074
 -39605216.37848 -30840057.08746  20779159.0394                   20779154.7894
 -50664876.02448 -39461779.01646  21208906.2504                   21208904.5864
 -31619803.71748 -24619169.24546  21140136.7974                   21140135.4734
 -55389987.18947 -43145583.68745  22881984.0394                   22881982.2734
 -10556733.87447  -8205854.05445  22928275.8984                   22928274.9774
 11  8 11  0 37  0.0000000  0  7G09G12G02G04G10G17G05
 -24968038.89447 -19434562.77444  23232609.9844                   23232609.7974
 -19658457.81347 -15298532.58846  22033464.5634                   22033462.4414
 -39689535.75548 -30905760.49046  20763113.6024                   20763109.5704
 -50666613.48348 -39463132.90246  21208575.4384                   21208573.8134
 -31718099.63848 -24695763.44146  21121432.0634                   21121430.1024
 -55412499.50047 -43163125.78345  22877699.9534                   22877698.9024
 -10727683.63047  -8339061.53245  22895744.8754                   22895744.6764
 11  8 11  0 37 30.0000000  0  7G09G12G02G04G10G17G05
 -24967967.01847 -19434506.82844  23232623.3444                   23232623.1294
 -19802895.98147 -15411081.78746  22005978.9454                   22005976.5904
 -39773490.12048 -30971179.46946  20747137.3594                   20747133.3594
 -50668085.32848 -39464279.81946  21208295.1954                   21208293.9494
 -31815773.12748 -24771872.63046  21102845.1334                   21102843.4964
 -55434847.68447 -43180539.97945  22873447.0634                   22873445.2424
 -10898427.28847  -8472108.45745  22863253.5864                   22863252.8914
 11  8 11  0 38  0.0000000  0  7G09G12G02G04G10G17G05
 -24967564.79247 -19434193.48344  23232699.1414                   23232699.4064
 -19946965.54547 -15523343.75646  21978563.4844                   21978560.9384
 -39857078.85248 -31036313.54347  20731230.9064                   20731226.9064
 -50669292.38248 -39465220.41246  21208065.5004                   21208064.5394
 -31912821.15848 -24847494.44546  21084377.1884                   21084375.5394
 -55457030.07447 -43197824.98445  22869225.9844                   22869224.6644
 -11068960.35947  -8604991.24845  22830802.0394                   22830801.4884
 11  8 11  0 38 30.0000000  0  7G09G12G02G04G10G17G05
 -24966836.31347 -19433625.89144  23232838.2894                   23232838.6564
 -20090664.77947 -15635317.14546  21951218.4304                   21951216.1174
 -39940303.47148 -31101163.87846  20715393.8984                   20715390.0084
 -50670237.69248 -39465957.03846  21207885.6094                   21207884.6884
 -32009242.44548 -24922627.88546  21066029.2194                   21066027.0784
 -55479046.24447 -43214980.48245  22865037.0164                   22865035.5124
 -11239280.39147  -8737708.03145  22798390.9844                   22798390.3594
 11  8 11  0 39  0.0000000  0  7G09G12G02G04G10G17G05
 -24965784.52747 -19432806.38344  23233038.9454                   23233038.6414
 -20233990.48447 -15746999.49346  21923944.1254                   21923941.6994
 -40023164.11748 -31165730.60546  20699626.2734                   20699621.8164
 -50670922.70548 -39466490.83846  21207755.7734                   21207754.2894
 -32105035.31348 -24997271.65946  21047800.4064                   21047798.3984
 -55500895.36847 -43232005.78845  22860878.7114                   22860877.5944
 -11409384.12047  -8870256.29645  22766021.4384                   22766020.7114
 11  8 11  0 39 30.0000000  0  7G09G12G02G04G10G17G05
 -24964416.94547 -19431740.80644  23233299.0704                   23233299.1724
 -20376944.39647 -15858392.13546  21896740.9614                   21896738.2304
 -40105666.15848 -31230017.90046  20683926.3204                   20683922.9344
 -50671354.50248 -39466827.32946  21207673.5394                   21207671.5394
 -32200202.71548 -25071428.05446  21029690.2664                   21029688.5434
 -55522581.24347 -43248903.91145  22856751.4924                   22856750.6294
 -11579272.93147  -9002637.09545  22733692.1174                   22733691.8754
 11  8 11  0 40  0.0000000  0  7G09G12G02G04G10G17G05
 -24962731.73547 -19430427.73844  23233620.3674                   23233620.3874
 -20519518.43747 -15969488.78446  21869610.1174                   21869607.9414
 -40187805.02048 -31294022.19147  20668295.8134                   20668292.2664
 -50671529.46948 -39466963.68046  21207639.9774                   21207638.5704
 -32294737.91748 -25145091.81346  21011700.8984                   21011699.1174
 -55544097.83547 -43265670.10345  22852658.1884                   22852656.5044
 -11748938.20747  -9134843.68945  22701406.2974                   22701405.4774
 11  8 11  0 40 30.0000000  0  7G09G12G02G04G10G17G05
 -24960736.26247 -19428872.89544  23233999.4384                   23233999.6684
 -20661714.24547 -16080290.68746  21842551.1884                   21842548.7544
 -40269585.20748 -31357747.01446  20652733.8594                   20652729.5474
 -50671454.06348 -39466904.94646  21207654.6174                   21207653.0824
 -32388643.59848 -25218265.05346  20993831.0314                   20993829.8834
 -55565448.72747 -43282307.17345  22848595.1414                   22848593.2664
 -11918381.13947  -9266877.05345  22669162.1884                   22669161.0234
 11  8 11  0 41  0.0000000  0  7G09G12G02G04G10G17G05
 -24958434.32546 -19427079.26844  23234437.9694                   23234437.9844
 -20803529.80848 -16190796.30446  21815564.5944                   21815562.2234
 -40351008.50648 -31421193.73846  20637239.2194                   20637235.3364
 -50671131.12448 -39466653.32246  21207716.1414                   21207714.5944
 -32481918.90648 -25290947.07946  20976081.2664                   20976079.7114
 -55586633.32347 -43298814.65645  22844563.7894                   22844562.2854
 -12087599.20747  -9398735.19145  22636960.9384                   22636960.3444
 11  8 11  0 41 30.0000000  0  7G09G12G02G04G10G17G05
 -24955831.82146 -19425051.41544  23234932.6094                   23234933.9344
 -20944965.09147 -16301005.60746  21788650.2974                   21788647.9694
 -40432078.42148 -31484365.10446  20621811.8914                   20621807.7464
 -50670565.10848 -39466212.29746  21207823.7114                   21207821.8524
 -32574564.88248 -25363138.73746  20958451.5394                   20958449.9264
 -55607654.04647 -43315194.50545  22840564.1724                   22840562.3634
 -12256591.83047  -9530417.64845  22604802.4304                   22604802.5204
 11  8 11  0 42  0.0000000  0  7G09G12G02G04G10G17G05
 -24952925.37547 -19422786.73244  23235486.4774                   23235486.0744
 -21086010.96348 -16410911.46146  21761810.4224                   21761807.9384
 -40512789.03148 -31547256.47747  20606453.5944                   20606449.3244
 -50669752.18248 -39465578.85346  21207978.5394                   21207976.5554
 -32666573.73848 -25434833.93446  20940943.0784                   20940941.6414
 -55628503.71947 -43331441.03845  22836595.7664                   22836594.0784
 -12425349.17347  -9661916.80245  22572689.2034                   22572688.9414
 11  8 11  0 42 30.0000000  0  7G09G12G02G04G10G17G05
 -24949719.70947 -19420288.86744  23236096.5864                   23236096.4384
 -21226665.68448 -16520512.53346  21735044.1414                   21735042.1454
 -40593142.16248 -31609869.30147  20591162.5314                   20591158.9574
 -50668695.05848 -39464755.13446  21208179.4844                   21208177.5394
 -32757944.98648 -25506032.29846  20923555.5864                   20923553.4384
 -55649182.68547 -43347554.54845  22832661.5474                   22832659.2624
 -12593869.87847  -9793231.54745  22540621.0944                   22540619.7194
 11  8 11  0 43  0.0000000  0  7G09G12G02G04G10G17G05
 -24946220.34847 -19417562.16044  23236762.7034                   23236761.0434
 -21366928.98347 -16629808.60046  21708353.1024                   21708350.9184
 -40673141.16148 -31672206.16946  20575939.3594                   20575935.1844
 -50667398.42848 -39463744.80746  21208426.1884                   21208424.6334
 -32848679.71348 -25576734.67146  20906289.4304                   20906287.4694
 -55669692.39746 -43363536.17445  22828758.2504                   22828756.8554
 -12762152.91047  -9924361.09445  22508597.6094                   22508596.5664
 11  8 11  0 43 30.0000000  0  8G09G12G02G04G25G10G17G05
 -24942428.71447 -19414607.70144  23237483.7974                   23237483.9414
 -21506796.79047 -16738796.49546  21681737.1484                   21681734.6954
 -40752784.88648 -31734266.22047  20560783.9614                   20560779.5824
 -50665862.55847 -39462548.05946  21208718.7504                   21208717.2664
   6046709.39355   4727181.73052  24577887.3134                   24577889.6374
 -32938774.92447 -25646938.73246  20889145.0634                   20889143.4734
 -55690030.40847 -43379384.01845  22824887.7734                   22824886.3954
 -12930193.29347 -10055301.56445  22476620.1954                   22476619.3634
 11  8 11  0 44  0.0000000  0  8G09G12G02G04G25G10G17G05
 -24938359.91147 -19411437.24144  23238258.0864                   23238258.1684
 -21646278.13948 -16847483.23546  21655194.9614                   21655192.5944
 -40832085.95648 -31796059.26847  20545693.3524                   20545689.1804
 -50664101.52447 -39461175.84246  21209053.7114                   21209052.5434
   5873664.95846   4592341.98843  24544959.2274                   24544961.4144
 -33028241.17447 -25716652.67646  20872119.8134                   20872117.9414
 -55710207.94747 -43395106.81444  22821048.5394                   22821046.6054
 -13097999.89947 -10186059.86545  22444687.7424                   22444687.0204
 11  8 11  0 44 30.0000000  0  8G09G12G02G04G25G10G17G05
 -24934024.22447 -19408058.85444  23239083.7584                   23239082.9414
 -21785377.38848 -16955872.24646  21628725.1724                   21628723.4304
 -40911052.06848 -31857591.28447  20530666.7274                   20530662.3554
 -50662123.99448 -39459634.92746  21209430.0234                   21209428.3874
   5700741.55746   4457596.47243  24512053.0234                   24512055.0314
 -33117084.12648 -25785880.93446  20855213.7034                   20855211.6844
 -55730231.20047 -43410709.39344  22817238.4384                   22817236.6524
 -13265576.48047 -10316638.93545  22412799.1644                   22412797.9694
 11  8 11  0 45  0.0000000  0  8G09G12G02G04G25G10G17G05
 -24929422.67847 -19404473.31944  23239958.4694                   23239959.7384
 -21924089.71547 -17063959.75546  21602328.4534                   21602326.2544
 -40989682.13648 -31918861.47046  20515703.9774                   20515699.7774
 -50659930.16748 -39457925.46546  21209847.6884                   21209846.3364
   5527943.91447   4322949.01944  24479171.0394                   24479173.0784
 -33205300.04448 -25854620.59446  20838426.2584                   20838424.1134
 -55750097.20746 -43426189.43244  22813457.4144                   22813456.4964
 -13432917.85447 -10447034.71945  22380954.5634                   22380953.8204
 11  8 11  0 45 30.0000000  0  8G09G12G02G04G25G10G17G05
 -24924550.22647 -19400676.67244  23240885.7424                   23240886.6804
 -22062403.84047 -17171736.97646  21576008.6484                   21576006.2814
 -41067968.38648 -31979863.74246  20500806.4844                   20500801.8954
 -50657513.50348 -39456042.38046  21210307.3594                   21210306.7704
   5355283.03447   4188408.09744  24446314.4454                   24446316.9494
 -33292879.61248 -25922864.40646  20821760.6724                   20821758.6214
 -55769796.95546 -43441539.91944  22809708.7974                   22809707.0704
 -13600012.21747 -10577238.04045  22349157.8674                   22349157.0704
 11  8 11  0 46  0.0000000  0  8G09G12G02G04G25G10G17G05
 -24919410.43347 -19396671.70944  23241864.2034                   23241865.3404
 -22200317.31347 -17279202.01246  21549764.5634                   21549762.1134
 -41145911.78248 -32040598.84847  20485974.2504                   20485970.0124
 -50654876.55148 -39453987.64346  21210809.4694                   21210807.8444
   5182761.36247   4053975.68444  24413485.3754                   24413486.8444
 -33379821.85648 -25990611.60746  20805216.5164                   20805214.5204
 -55789329.95746 -43456760.47444  22805992.2344                   22805990.5434
 -13766856.64747 -10707246.59645  22317408.1094                   22317407.5514
 11  8 11  0 46 30.0000000  0  8G09G12G02G04G25G10G17G05
 -24914004.31946 -19392459.24444  23242892.1174                   23242892.8134
 -22337825.62947 -17386351.33046  21523597.4144                   21523595.7504
 -41223510.87848 -32101065.66647  20471207.4774                   20471203.6334
 -50652018.80448 -39451760.84346  21211353.4064                   21211351.3984
   5010383.73347   3919655.59044  24380682.7344                   24380684.6954
 -33466123.22348 -26057859.42246  20788793.6954                   20788791.8244
 -55808693.24046 -43471848.77444  22802307.1414                   22802305.5744
 -13933445.87347 -10837056.29445  22285707.4454                   22285706.6684
 11  8 11  0 47  0.0000000  0  8G09G12G02G04G25G10G17G05
 -23332913.11447 -18160440.15544  23543764.0864                   23543764.3954
 -20899499.15847 -16265577.43546  21797301.9144                   21797299.5904
 -39725342.07748 -30933661.38847  20756299.5164                   20756295.7304
 -49073520.43447 -38221762.14046  21511731.3134                   21511730.1254
   6413580.73047   5013055.93444  24647701.8914                   24647703.1844
 -31976357.33148 -24897002.86546  21072286.5784                   21072284.6254
 -54252463.09046 -42259201.97344  23098448.4774                   23098446.8204
 -12524349.39747  -9739058.97145  22553849.2584                   22553848.3524
 11  8 11  0 47 30.0000000  0  8G09G12G02G04G25G10G17G05
 -23326983.86546 -18155820.05144  23544892.5704                   23544893.0004
 -21036188.68548 -16372088.74846  21771290.3984                   21771288.4264
 -39802255.43648 -30993593.87247  20741663.3284                   20741659.5904
 -49070227.33348 -38219196.12046  21512357.7664                   21512356.9104
   6241499.23446   4878966.53243  24614956.1884                   24614957.7854
 -32061373.21948 -24963249.00746  21056108.9454                   21056106.5864
 -54271484.47747 -42274023.85444  23094829.4064                   23094827.0554
 -12690419.25947  -9868463.96545  22522247.4144                   22522246.6804
 11  8 11  0 48  0.0000000  0  8G09G12G02G04G25G10G17G05
 -23320797.14647 -18150999.23644  23546070.6254                   23546069.2774
 -21172463.93048 -16478277.24346  21745358.4844                   21745356.0124
 -39878825.97048 -31053259.21247  20727092.6564                   20727088.9694
 -49066718.63748 -38216462.09346  21513026.0704                   21513024.0204
   6069570.67245   4744996.27343  24582239.1484                   24582240.6054
 -32145744.02548 -25028992.47046  21040053.1174                   21040051.4344
 -54290332.98846 -42288711.07344  23091241.6094                   23091240.5984
 -12856223.83147  -9997662.25745  22490695.3834                   22490694.7934
 11  8 11  0 48 30.0000000  0  8G09G12G02G04G25G10G17G05
 -23314355.06446 -18145979.51844  23547295.5634                   23547297.0634
 -21308321.68948 -16584140.41846  21719505.6024                   21719503.0474
 -39955054.05348 -31112657.71047  20712587.1484                   20712582.7194
 -49062995.62748 -38213561.07846  21513734.4774                   21513732.8164
   5897798.46545   4611148.00442  24549550.9614                   24549553.4184
 -32229467.83248 -25094231.78946  21024121.2734                   21024119.0864
 -54309007.09846 -42303262.37244  23087687.6884                   23087686.1994
 -13021758.75947 -10126650.44145  22459194.8674                   22459193.7304
 11  8 11  0 49  0.0000000  0  8G09G12G02G04G25G10G17G05
 -23307663.70146 -18140765.56744  23548569.7114                   23548570.2624
 -21443761.94347 -16689678.26046  21693732.3834                   21693729.6214
 -40030942.72648 -31171791.73447  20698145.6414                   20698141.8054
 -49059062.72748 -38210496.50146  21514482.5084                   21514481.3404
   5726182.67846   4477421.52042  24516894.2584                   24516894.9304
 -32312546.13548 -25158968.10746  21008312.0314                   21008310.5044
 -54327508.78647 -42317679.28744  23084167.8914                   23084165.9654
 -13187023.72847 -10255428.27245  22427746.4304                   22427745.2774
 11  8 11  0 49 30.0000000  0  8G09G12G02G04G25G10G17G05
 -23300727.87046 -18135361.09844  23549889.4924                   23549890.2624
 -21578783.52648 -16794889.87546  21668038.7114                   21668035.4774
 -40106494.67248 -31230663.37246  20683768.6254                   20683764.7034
 -49054923.67148 -38207271.28846  21515270.3444                   21515268.6564
   5554724.46146   4343817.75842  24484267.0004                   24484267.3874
 -32394979.49248 -25223201.88146  20992625.2974                   20992623.3244
 -54345838.58546 -42331962.26844  23080679.4384                   23080678.6454
 -13352017.35147 -10383994.66246  22396349.2504                   22396347.9144
 11  8 11  0 50  0.0000000  0  8G09G12G02G04G25G10G17G05
 -23293548.73447 -18129767.02144  23551255.3284                   23551256.4734
 -21713381.70247 -16899771.54746  21642425.4774                   21642423.5314
 -40181708.41748 -31289271.46446  20669456.0474                   20669451.3634
 -49050578.06348 -38203885.11746  21516097.2034                   21516095.4384
   5383428.82346   4210340.63243  24451670.4064                   24451670.5904
 -32476764.64248 -25286930.55146  20977062.3834                   20977060.0664
 -54363993.87546 -42346109.31244  23077224.0704                   23077223.7424
 -13516734.25147 -10512345.43745  22365004.1024                   22365003.3914
 11  8 11  0 50 30.0000000  0  8G09G12G02G04G25G10G17G05
 -23286129.08347 -18123985.57144  23552667.4694                   23552668.1094
 -21847553.43147 -17004320.94446  21616892.8594                   21616890.6484
 -40256584.13348 -31347616.17147  20655207.7114                   20655203.7274
 -49046027.52448 -38200339.25746  21516963.3674                   21516962.1334
   5212298.81347   4076992.62944  24419105.4774                   24419105.4734
 -32557899.91548 -25350152.83346  20961622.4614                   20961620.9264
 -54381973.23547 -42360119.24444  23073803.4924                   23073802.1524
 -13681170.96547 -10640477.88045  22333713.2974                   22333712.1254
 11  8 11  0 51  0.0000000  0  8G09G12G02G04G25G10G17G05
 -23278474.59947 -18118021.08544  23554124.4224                   23554124.6414
 -21981298.41747 -17108537.79246  21591442.7034                   21591440.1884
 -40331125.27248 -31405700.15846  20641023.1954                   20641018.7384
 -49041276.36248 -38196637.08845  21517867.6484                   21517865.9414
   5041334.79247   3943773.90644  24386571.9614                   24386572.1524
 -32638387.18948 -25412870.17046  20946306.1724                   20946304.3914
 -54399778.30746 -42373993.34144  23070414.9064                   23070414.3054
 -13845326.76847 -10768391.41745  22302475.3754                   22302474.3444
 11  8 11  0 51 30.0000000  0  8G09G12G02G04G25G10G17G05
 -23270589.25647 -18111876.69444  23555624.8364                   23555625.9774
 -22114614.78847 -17212420.67146  21566073.1484                   21566070.5314
 -40405333.65348 -31463524.87647  20626901.4384                   20626897.0474
 -49036327.50348 -38192780.85846  21518809.1724                   21518807.4384
   4870538.52047   3810685.90844  24354070.9224                   24354071.8754
 -32718226.01748 -25475082.23446  20931113.6334                   20931111.8014
 -54417409.61446 -42387732.11744  23067059.6094                   23067059.9144
 -14009199.13947 -10896084.11445  22271291.1804                   22271290.4804
 11  8 11  0 52  0.0000000  0  8G09G12G02G04G25G10G17G05
 -23262475.77147 -18105554.54844  23557168.9774                   23557169.0744
 -22247499.74347 -17315967.37846  21540785.9844                   21540783.3874
 -40479209.46248 -31521090.43447  20612843.4694                   20612839.2154
 -49031182.25248 -38188771.60145  21519788.1414                   21519786.6804
   4699913.28747   3677731.22844  24321601.8524                   24321602.9964
 -32797415.19448 -25536788.07846  20916044.3984                   20916041.9694
 -54434865.67447 -42401334.26744  23063738.4844                   23063737.0394
 -14172784.52047 -11023553.16345  22240161.8594                   22240160.6524
 11  8 11  0 52 30.0000000  0  8G09G12G02G04G25G10G17G05
 -23254137.10947 -18099056.97744  23558756.0784                   23558756.2934
 -22379950.20147 -17419175.51046  21515581.5234                   21515578.8054
 -40552753.32147 -31578397.32247  20598848.4924                   20598844.1134
 -49025842.09548 -38184610.44746  21520804.8834                   21520802.7974
   4529462.13047   3544912.15045  24289165.6024                   24289167.5084
 -32875953.61548 -25597986.84546  20901098.9064                   20901097.3054
 -54452145.27246 -42414798.92844  23060450.5004                   23060449.0234
 -14336079.40147 -11150795.86445  22209088.2894                   22209086.6954
 11  8 11  0 53  0.0000000  0  8G09G12G02G04G25G10G17G05
 -23245579.08747 -18092388.48444  23560383.9534                   23560385.2424
 -22511965.99347 -17522044.94246  21490459.9064                   21490456.8014
 -40625968.46647 -31635448.06747  20584916.1254                   20584911.9184
 -49020311.63448 -38180301.02945  21521857.0864                   21521854.9224
   4359185.32047   3412228.93544  24256763.4144                   24256764.6174
 -32953842.85948 -25658679.75446  20886276.8364                   20886274.7464
 -54469250.44346 -42428127.65044  23057194.9844                   23057193.8244
 -14499083.58347 -11277812.05045  22178069.3594                   22178068.1484
 11  8 11  0 53 30.0000000  0  8G09G12G02G04G25G10G17G05
 -23236806.51047 -18085552.79944  23562053.4844                   23562054.4304
 -22643546.35747 -17624575.08246  21465420.8054                   21465418.2974
 -40698857.50147 -31692244.70747  20571045.8524                   20571041.6954
 -49014594.20548 -38175845.90745  21522944.9304                   21522943.4024
   4189084.06046   3279682.52544  24224393.9384                   24224395.1294
 -33031083.65548 -25718867.37846  20871578.7814                   20871576.9574
 -54486181.88447 -42441321.03244  23053974.5164                   23053972.1524
 -14661795.10447 -11404600.17845  22147106.1804                   22147105.2854
 11  8 11  0 54  0.0000000  0  8G09G12G02G04G25G10G17G05
 -23227824.51747 -18078553.94344  23563762.8754                   23563763.1804
 -22774690.93747 -17726765.64446  21440465.1484                   21440463.0204
 -40771423.37748 -31748789.53646  20557237.1884                   20557232.5594
 -49008693.79748 -38171248.20745  21524067.6024                   21524065.9924
   4019158.99346   3147273.40644  24192057.6724                   24192060.3794
 -33107677.27548 -25778550.70746  20857003.3914                   20857002.0904
 -54502941.00646 -42454380.10444  23050784.5554                   23050782.6884
 -14824213.17547 -11531159.64946  22116198.8284                   22116197.4304
 11  8 11  0 54 30.0000000  0  8G09G12G02G04G25G10G17G05
 -23218635.20347 -18071393.49044  23565511.6414                   23565511.9694
 -22905395.67847 -17828613.47646  21415592.3054                   21415589.8134
 -40843665.40648 -31805082.01746  20543489.8364                   20543486.1134
 -49002611.08148 -38166508.44745  21525225.0314                   21525223.5744
   3849414.09346   3015004.74843  24159756.6954                   24159757.8094
 -33183621.94448 -25837728.35646  20842551.9774                   20842549.5124
 -54519525.61046 -42467303.22244  23047627.7344                   23047626.7194
 -14986333.25947 -11657486.91745  22085348.7194                   22085347.8054
 11  8 11  0 55  0.0000000  0  8G09G12G02G04G25G10G17G05
 -23209244.22447 -18064075.93244  23567298.8444                   23567299.4924
 -23035660.82147 -17930118.75346  21390803.3594                   21390801.3674
 -40915587.47148 -31861125.19047  20529803.6484                   20529799.0314
 -48996350.77748 -38161630.32145  21526416.9454                   21526414.4844
   3679849.53246   2882876.53044  24127489.7894                   24127489.8634
 -33258919.48548 -25896401.76446  20828223.0784                   20828220.9614
 -54535938.02646 -42480092.14244  23044505.5554                   23044504.4344
 -15148155.02647 -11783581.74646  22054555.1484                   22054554.3404
 11  8 11  0 55 30.0000000  0  8G09G12G02G04G25G10G17G05
 -23199652.55246 -18056601.99143  23569123.7974                   23569124.3674
 -23165481.18947 -18031277.46746  21366099.7274                   21366097.2734
 -40987187.84548 -31916917.68447  20516178.1804                   20516173.8134
 -48989911.96048 -38156613.07245  21527642.0314                   21527640.0084
   3510470.60647   2750893.04744  24095257.9774                   24095258.9574
 -33333566.67648 -25954568.40646  20814018.3524                   20814016.2704
 -54552174.82647 -42492744.26644  23041415.9924                   23041414.0864
 -15309672.78847 -11909439.68846  22023818.9534                   22023818.0904
 11  8 11  0 56  0.0000000  0  8G09G12G02G04G25G10G17G05
 -23189863.41747 -18048974.19744  23570987.5004                   23570988.3634
 -23294854.13647 -18132087.54246  21341481.0634                   21341478.5784
 -41058467.07248 -31972459.92746  20502614.4304                   20502610.2704
 -48983296.30648 -38151458.03145  21528900.4924                   21528899.6024
   3341280.35947   2619056.54444  24063062.3134                   24063062.3244
 -33407562.69148 -26012227.62646  20799937.2974                   20799935.3874
 -54568234.83947 -42505258.60544  23038359.4694                   23038358.0634
 -15470883.31547 -12035058.21346  21993141.5634                   21993140.6054
 11  8 11  0 56 30.0000000  0  8G09G12G02G04G25G10G17G05
 -23179883.08746 -18041197.34943  23572885.7194                   23572886.8714
 -23423780.22647 -18232549.42146  21316947.1954                   21316944.8674
 -41129429.10548 -32027755.00446  20489111.1804                   20489106.6604
 -48976508.94848 -38146169.21645  21530192.4614                   21530190.6214
   3172278.34247   2487366.65143  24030901.6724                   24030901.8484
 -33480909.81748 -26069381.22146  20785979.1884                   20785977.7814
 -54584120.67947 -42517637.22744  23035336.2114                   23035335.1254
 -15631786.51747 -12160437.28646  21962522.1564                   21962521.4414
 11  8 11  0 57  0.0000000  0  8G09G12G02G04G25G10G17G05
 -23169714.67147 -18033273.98444  23574821.5784                   23574820.8204
 -23552256.83747 -18332661.07046  21292498.8754                   21292496.5274
 -41200075.27848 -32082803.95646  20475666.8754                   20475662.8484
 -48969551.80848 -38140748.08245  21531516.0234                   21531514.5044
   3003467.24147   2355825.55944  23998778.5474                   23998778.4344
 -33553607.66748 -26126028.88746  20772145.4534                   20772144.1134
 -54599831.81447 -42529879.73244  23032346.7344                   23032345.4264
 -15792379.57447 -12285574.69546  21931963.3834                   21931961.6454
 11  8 11  0 57 30.0000000  0  8G09G12G02G04G25G10G17G05
 -23159361.93846 -18025207.01644  23576791.9774                   23576791.8874
 -23680282.58047 -18432421.37146  21268136.2504                   21268134.0164
 -41270406.98248 -32137607.88546  20462283.5164                   20462279.2154
 -48962427.08448 -38135196.37545  21532872.0474                   21532870.6604
   2834849.21747   2224434.92544  23966691.9144                   23966691.9344
 -33625655.94348 -26182170.38046  20758435.1254                   20758433.1414
 -54615368.18947 -42541986.01444  23029390.9064                   23029388.8674
 -15952659.97047 -12410468.44846  21901462.5944                   21901460.8324
 11  8 11  0 58  0.0000000  0  8G09G12G02G04G25G10G17G05
 -23148830.14047 -18017000.49744  23578795.5314                   23578796.5864
 -23807856.71647 -18531829.79946  21243859.8914                   21243857.5554
 -41340426.77847 -32192168.74846  20448959.6644                   20448955.0084
 -48955138.80448 -38129517.22945  21534258.5784                   21534257.6724
   2666425.24047   2093195.45944  23934641.2814                   23934641.8554
 -33697056.23347 -26237806.96146  20744848.3524                   20744846.5594
 -54630730.68246 -42553956.81044  23026467.0234                   23026464.9654
 -16112626.41147 -12535117.58546  21871021.5314                   21871021.0704
 11  8 11  0 58 30.0000000  0  8G09G12G02G04G25G10G17G05
 -21562703.17247 -16781057.49044  23880625.4304                   23880625.7734
 -22359552.36647 -17403280.94346  21519463.1094                   21519460.5634
 -39834713.63847 -31018885.78946  20735486.8524                   20735482.4384
 -47372269.09248 -36896112.27345  21835469.6334                   21835467.5274
   4073623.43747   3189713.61344  24202422.5394                   24202422.6214
 -32192385.80247 -25065336.46846  21031178.0084                   21031175.4964
 -53070498.52947 -41338191.50044  23323369.0634                   23323367.5594
 -14696850.61947 -11431915.60646  22140435.4224                   22140433.8984
 11  8 11  0 59  0.0000000  0  8G09G12G02G04G25G10G17G05
 -21551817.00247 -16772574.81044  23882697.3204                   23882698.4144
 -22486209.67748 -17501974.94546  21495360.9694                   21495358.6174
 -39904106.70147 -31072958.30347  20722282.0314                   20722277.6604
 -47364653.11848 -36890177.78845  21836918.4064                   21836917.8054
   3905601.67847   3058787.68644  24170448.5634                   24170450.2664
 -32262482.83347 -25119957.52946  21017838.3984                   21017836.8134
 -53085505.49546 -41349885.27044  23320514.0944                   23320511.7344
 -14856174.04247 -11556063.67046  22110116.8914                   22110115.3244
 11  8 11  0 59 30.0000000  0  8G09G12G02G04G25G10G17G05
 -21540763.15047 -16763961.53244  23884800.3284                   23884801.4144
 -22612409.38648 -17600312.37046  21471345.7734                   21471343.4414
 -39973192.32748 -31126791.24947  20709135.4144                   20709130.7194
 -47356880.33648 -36884121.09045  21838397.5554                   21838396.1484
   3737780.88447   2928018.29044  24138513.0634                   24138513.5664
 -32331931.84648 -25174073.62046  21004622.4774                   21004621.1484
 -53100338.17747 -41361443.22044  23317691.4534                   23317688.8444
 -15015175.98447 -11679961.24746  22079859.7734                   22079858.0864
 11  8 11  1  0  0.0000000  0  8G09G12G02G04G25G10G17G05
 -21529543.36547 -16755218.95744  23886935.8364                   23886937.1684
 -22738147.76448 -17698290.33746  21447418.8594                   21447416.0824
 -40041969.89448 -31180384.14046  20696047.5634                   20696042.8364
 -47348951.17648 -36877942.55545  21839906.1334                   21839904.9304
   3570165.11847   2797408.70344  24106616.7424                   24106617.8554
 -32400731.49648 -25227683.74846  20991530.8284                   20991528.6644
 -53114994.53346 -41372863.78943  23314901.4384                   23314900.6884
 -15173852.14847 -11803604.94846  22049664.3444                   22049663.1644
 11  8 11  1  0 30.0000000  0  8G09G12G02G04G25G10G17G05
 -21518158.73346 -16746347.90044  23889102.5314                   23889103.0784
 -22863420.37648 -17795905.34946  21423580.0164                   21423577.5634
 -40110438.52447 -31233736.32746  20683018.1414                   20683013.7464
 -47340865.68548 -36871642.21445  21841445.0634                   21841442.9924
   3402759.17047   2666962.59144  24074761.4534                   24074761.7974
 -32468879.10747 -25280785.73746  20978562.7424                   20978560.8164
 -53129472.23546 -41384145.17443  23312146.2584                   23312144.5354
 -15332197.30447 -11926990.72846  22019532.6804                   22019531.3324
 11  8 11  1  1  0.0000000  0  8G09G12G02G04G25G10G17G05
 -21506613.05347 -16737351.34144  23891299.7424                   23891300.0434
 -22988225.51148 -17893156.10046  21399830.3914                   21399828.2344
 -40178599.76547 -31286848.97147  20670047.3444                   20670043.1524
 -47332626.12648 -36865221.80045  21843012.9384                   21843011.9614
   3235565.18047   2536681.60744  24042944.6644                   24042944.6254
 -32536374.94747 -25333379.90446  20965718.8754                   20965716.6484
 -53143771.02846 -41395287.10343  23309425.5704                   23309425.2384
 -15490208.86947 -12050116.57046  21989463.6954                   21989462.0394
 11  8 11  1  1 30.0000000  0  8G09G12G02G04G25G10G17G05
 -21494908.36246 -16728230.94444  23893527.1484                   23893527.9104
 -23112559.54048 -17990039.74446  21376170.6414                   21376168.1994
 -40246453.16047 -31339721.74546  20657135.5084                   20657130.9414
 -47324233.28848 -36858681.95045  21844610.1884                   21844608.9304
   3068587.23847   2406568.99644  24011169.6644                   24011170.5744
 -32603217.54647 -25385465.02546  20952998.8594                   20952996.7894
 -53157888.77847 -41406287.97944  23306739.7344                   23306737.9024
 -15647883.01947 -12172979.49046  21959459.5784                   21959458.0084
 11  8 11  1  2  0.0000000  0  8G09G12G02G04G25G10G17G05
 -21483051.93346 -16718992.22644  23895782.5864                   23895784.5044
 -23236423.85048 -18086557.37246  21352599.8054                   21352597.8754
 -40314003.87648 -31392358.66047  20644281.1954                   20644276.5664
 -47315692.47448 -36852026.79645  21846235.1484                   21846234.4064
   2901824.06047   2276623.73844  23979435.4614                   23979436.5554
 -32669410.47448 -25437043.92646  20940402.5004                   20940400.4304
 -53171828.82046 -41417150.39844  23304086.7664                   23304084.3134
 -15805220.57847 -12295580.13546  21929519.2034                   21929517.1994
 11  8 11  1  2 30.0000000  0  8G09G12G02G04G25G10G17G05
 -21471049.67846 -16709639.93644  23898066.0164                   23898068.1054
 -23359818.44748 -18182708.98946  21329118.5084                   21329116.1334
 -40381255.39848 -31444762.43746  20631483.2814                   20631478.9304
 -47307008.31647 -36845259.95545  21847887.6484                   21847886.0944
   2735276.05547   2146846.10544  23947742.5314                   23947742.9414
 -32734956.09447 -25488118.42446  20927929.8444                   20927927.7934
 -53185593.12046 -41427875.83343  23301468.1564                   23301466.3134
 -15962221.09747 -12417918.15746  21899642.5944                   21899641.5554
 11  8 11  1  3  0.0000000  0  8G09G12G02G04G25G10G17G05
 -21458901.79946 -16700174.18543  23900378.3914                   23900379.5744
 -23482738.66048 -18278490.96146  21305727.8754                   21305724.8524
 -40448205.76048 -31496931.54946  20618742.9454                   20618738.8984
 -47298179.61748 -36838380.47345  21849568.6484                   21849567.1564
   2568948.78646   2017240.52144  23916090.5004                   23916092.6644
 -32799851.35447 -25538686.15046  20915580.8364                   20915578.6024
 -53199178.13547 -41438461.61844  23298882.2344                   23298881.0004
 -16118878.56647 -12539988.86546  21869831.7344                   21869830.5274
 11  8 11  1  3 30.0000000  0  8G09G12G02G04G25G10G17G05
 -21446613.94746 -16690599.36443  23902717.1094                   23902718.2194
 -23605184.57648 -18373903.34446  21282426.7344                   21282424.1374
 -40514858.53948 -31548868.76447  20606059.3594                   20606054.8794
 -47289210.89348 -36831391.86845  21851274.7424                   21851273.2304
   2402842.40547   1887807.01644  23884481.1644                   23884482.9454
 -32864098.68947 -25588748.99746  20903354.5004                   20903352.8554
 -53212585.96447 -41448909.29444  23296330.9304                   23296330.3444
 -16275192.87647 -12661792.17546  21840086.2194                   21840084.6524
 11  8 11  1  4  0.0000000  0  8G09G12G02G04G25G10G17G05
 -21434192.14146 -16680920.16043  23905081.3284                   23905082.7584
 -23727156.68948 -18468946.52646  21259216.2504                   21259214.2154
 -40581217.34548 -31600576.92746  20593431.9384                   20593427.6954
 -47280106.52548 -36824297.59045  21853007.6254                   21853006.3754
   2236957.05446   1758545.77544  23852914.8204                   23852916.3594
 -32927700.59847 -25638308.91546  20891251.4614                   20891250.0354
 -53225818.44147 -41459220.35944  23293812.9924                   23293812.1094
 -16431163.44448 -12783327.64546  21810405.5084                   21810404.3094
 11  8 11  1  4 30.0000000  0  8G09G12G02G04G25G10G17G05
 -21421638.49646 -16671138.18843  23907469.9614                   23907471.5664
 -23848651.33448 -18563617.67146  21236096.7734                   21236094.1414
 -40647282.02148 -31652055.89047  20580860.4304                   20580855.9414
 -47270867.05248 -36817098.03245  21854765.5864                   21854764.1214
   2071296.72647   1629459.87244  23821391.6414                   23821392.8094
 -32990655.81647 -25687364.91946  20879271.6414                   20879269.9844
 -53238873.97347 -41469393.52644  23291329.5634                   23291327.0704
 -16586786.29347 -12904592.16446  21780792.1414                   21780790.5824
 11  8 11  1  5  0.0000000  0  8G09G12G02G04G25G10G17G05
 -21408958.32047 -16661257.69643  23909883.8674                   23909883.8674
 -23969668.54848 -18657916.76846  21213067.9694                   21213065.5124
 -40713055.80548 -31703308.18047  20568344.0634                   20568339.5824
 -47261496.27347 -36809796.16045  21856548.4064                   21856547.1724
   1905862.08047   1500549.78144  23789910.2974                   23789911.6724
 -33052966.11048 -25735918.39746  20867414.6564                   20867412.6994
 -53251754.08647 -41479430.02144  23288877.6484                   23288877.0164
 -16742060.87047 -13025585.27646  21751243.9924                   21751242.3674
 11  8 11  1  5 30.0000000  0  8G09G12G02G04G25G10G17G05
 -21396152.46447 -16651279.20143  23912319.7034                   23912320.8364
 -24090203.29847 -18751839.94046  21190130.6334                   21190128.3094
 -40778537.07648 -31754332.54846  20555883.1954                   20555879.1484
 -47251993.39248 -36802391.34445  21858357.3204                   21858355.5634
   1740658.51447   1371819.76445  23758473.9304                   23758474.3754
 -33114629.28448 -25783967.61246  20855680.2894                   20855678.3484
 -53264455.32447 -41489327.12444  23286461.1564                   23286459.8444
 -16896981.25447 -13146302.40646  21721763.6174                   21721761.8014
 11  8 11  1  6  0.0000000  0  8G09G12G02G04G25G10G17G05
 -21383226.63047 -16641207.19643  23914779.8444                   23914780.4774
 -24210256.04947 -18845387.53446  21167285.7584                   21167283.0594
 -40843729.32048 -31805131.68246  20543477.5864                   20543473.2234
 -47242362.92048 -36794887.12945  21860189.8054                   21860188.7624
   1575686.17447   1243269.90444  23727080.1484                   23727081.0234
 -33175647.78947 -25831514.50346  20844068.9224                   20844066.8914
 -53276979.98347 -41499086.62844  23284077.4384                   23284075.8204
 -17051547.30847 -13266743.43946  21692350.5234                   21692349.1844
 11  8 11  1  6 30.0000000  0  8G09G12G02G04G25G10G17G05
 -21370185.67947 -16631045.51244  23917261.3524                   23917262.2304
 -24329826.32048 -18938559.16846  21144532.4384                   21144529.9534
 -40908635.37448 -31855707.82346  20531126.4224                   20531122.2154
 -47232608.49248 -36787286.29145  21862046.2344                   21862044.1884
   1410945.88747   1114900.82444  23695731.1564                   23695732.2774
 -33236023.50047 -25878560.50846  20832579.7424                   20832578.0664
 -53289329.03647 -41508709.26244  23281727.7584                   23281726.0124
 -17205758.13147 -13386907.65746  21663005.2424                   21663003.4924
 11  8 11  1  7  0.0000000  0  8G09G12G02G04G25G10G17G05
 -21357031.89547 -16620795.91044  23919765.3054                   23919765.8794
 -24448911.07848 -19031352.46646  21121871.3524                   21121868.5234
 -40973255.47648 -31906061.14746  20518829.6334                   20518825.0824
 -47222730.69148 -36779589.34045  21863925.7194                   21863924.6764
   1246441.57047    986715.66344  23664427.4454                   23664427.6724
 -33295755.34548 -25925104.80046  20821213.1954                   20821211.3094
 -53301501.23547 -41518194.16144  23279411.4454                   23279410.5664
 -17359609.68747 -13506791.93846  21633728.0234                   21633726.5004
 11  8 11  1  7 30.0000000  0  8G09G12G02G04G25G10G17G05
 -21343770.23147 -16610462.27644  23922288.7814                   23922290.0004
 -24567509.90248 -19123767.12846  21099302.3284                   21099299.9144
 -41037592.25848 -31956193.69846  20506586.7584                   20506582.5664
 -47212733.00848 -36771798.96845  21865828.1644                   21865827.0004
   1082174.22747    858715.10544  23633167.4924                   23633167.8054
 -33354845.34448 -25971148.95546  20809968.4454                   20809966.7774
 -53313497.67447 -41527542.06944  23277128.8594                   23277127.1644
 -17513100.84547 -13626395.39446  21604519.9384                   21604517.8204
 11  8 11  1  8  0.0000000  0  8G09G12G02G04G25G10G17G05
 -21330402.84847 -16600046.24044  23924832.4924                   23924833.4494
 -24685619.16348 -19215800.31046  21076827.0084                   21076825.1294
 -41101645.77748 -32006105.54146  20494397.7664                   20494393.3594
 -47202615.82747 -36763915.48245  21867753.6724                   21867752.5314
    918147.92247    730902.43544  23601954.1954                   23601955.1684
 -33413292.31448 -26016692.04546  20798846.8054                   20798844.8674
 -53325316.49347 -41536751.56644  23274879.4454                   23274878.5434
 -17666227.67447 -13745714.94946  21575380.2814                   21575379.2304
 11  8 11  1  8 30.0000000  0  8G09G12G02G04G25G10G17G05
 -21316935.69247 -16589552.45644  23927395.8524                   23927396.5044
 -24803239.48648 -19307452.49946  21054444.7344                   21054442.1024
 -41165419.63548 -32055799.44446  20482261.7114                   20482257.7194
 -47192383.58248 -36755942.32845  21869700.6954                   21869699.4614
    754362.84247    603277.66044  23570787.5084                   23570786.5394
 -33471098.82848 -26061736.07646  20787846.8364                   20787844.3444
 -53336959.81246 -41545824.31444  23272663.9694                   23272662.3324
 -17818989.78347 -13864750.30846  21546311.1644                   21546309.2034
 11  8 11  1  9  0.0000000  0  8G09G12G02G04G25G10G17G05
 -21303366.76847 -16578979.44544  23929977.9454                   23929978.5904
 -24920363.71448 -19398718.13346  21032156.6024                   21032154.1724
 -41228909.91447 -32105272.40246  20470180.0704                   20470175.9414
 -47182033.21847 -36747877.14045  21871670.3594                   21871669.2734
    590826.40847    475846.69344  23539667.5234                   23539668.0704
 -33528260.26948 -26106277.45546  20776969.2274                   20776967.5474
 -53348422.29147 -41554756.10844  23270482.5084                   23270481.6724
 -17971379.43247 -13983495.41646  21517312.2034                   21517310.2814
 11  8 11  1  9 30.0000000  0  8G09G12G02G04G25G10G17G05
 -21289700.44947 -16568330.48744  23932577.6024                   23932579.8284
 -25036990.79448 -19489596.36746  21009963.1804                   21009960.8054
 -41292118.43847 -32154525.80446  20458151.7734                   20458147.6764
 -47171567.23447 -36739721.83245  21873662.0944                   21873659.8594
    427540.59047    348611.00144  23508594.9144                   23508596.4804
 -33584778.01048 -26150317.26746  20766213.8834                   20766212.4024
 -53359704.17047 -41563547.23744  23268335.2894                   23268335.1294
 -18123394.73647 -14101948.85146  21488384.9454                   21488383.0984
 11  8 11  1 10  0.0000000  0  8G09G12G02G04G25G10G17G05
 -19700521.79747 -15330009.60844  24234989.8754                   24234990.5744
 -23577696.60848 -18352484.00046  21287657.7274                   21287655.3674
 -39779625.78248 -30975960.09047  20745969.7274                   20745965.5274
 -45585569.19047 -35503879.22745  22175467.5314                   22175466.7344
   1839932.17847   1449175.94944  23777364.6414                   23777365.9964
 -32065232.01848 -24966255.43746  21055374.0084                   21055372.2344
 -51795385.70847 -40344597.81044  23566015.4844                   23566014.3324
 -16699609.26347 -12992505.58046  21759321.9844                   21759320.1454
 11  8 11  1 10 30.0000000  0  8G09G12G02G04G25G10G17G05
 -19686673.74147 -15319219.05944  24237624.1724                   24237625.8444
 -23693327.06448 -18442585.64946  21265654.0474                   21265651.6414
 -39842277.82147 -31024779.86346  20734047.3284                   20734043.4964
 -45574880.72147 -35495550.55145  22177501.1174                   22177500.1414
   1677152.46447   1322334.60944  23746388.5234                   23746389.1564
 -32120466.68448 -25009295.44546  21044863.1174                   21044861.8324
 -51806308.19847 -40353108.88844  23563937.3674                   23563935.8094
 -16850871.30747 -13110372.04846  21730537.8674                   21730535.9654
 11  8 11  1 11  0.0000000  0  8G09G12G02G04G25G10G17G05
 -19672739.65546 -15308361.47243  24240275.2734                   24240277.3284
 -23808455.85448 -18532296.38846  21243745.6484                   21243742.7344
 -39904653.21148 -31073384.04546  20722177.8284                   20722173.4184
 -45564083.41248 -35487137.10145  22179556.0554                   22179555.1024
   1514629.96647   1195693.73444  23715461.7114                   23715462.2774
 -32175060.04648 -25051835.71646  21034474.2034                   21034472.5234
 -51817050.42747 -40361479.46644  23561893.3834                   23561891.7664
 -17001752.37247 -13227941.66846  21701825.7734                   21701824.1094
 11  8 11  1 11 30.0000000  0  8G09G12G02G04G25G10G17G05
 -19658723.59646 -15297439.95544  24242942.9774                   24242944.4264
 -23923081.99748 -18621615.46346  21221933.0474                   21221930.8984
 -39966754.04848 -31121774.31246  20710360.5314                   20710356.4224
 -45553180.10947 -35478641.02345  22181630.9844                   22181629.8594
   1352366.31547   1069254.60444  23684583.5474                   23684585.3554
 -32229013.59348 -25093877.43046  21024207.3834                   21024205.7504
 -51827612.86547 -40369709.97244  23559882.5084                   23559882.4224
 -17152250.81147 -13345213.13546  21673186.7894                   21673184.8754
 11  8 11  1 12  0.0000000  0  8G09G12G02G04G25G10G17G05
 -19644628.44746 -15286456.93044  24245625.3674                   24245626.9144
 -24037202.91648 -18710540.84946  21200216.3134                   21200213.7384
 -40028581.14848 -31169951.28746  20698594.8284                   20698590.4734
 -45542172.05247 -35470063.35545  22183725.2034                   22183723.6214
   1190364.92547    943019.75144  23653755.8834                   23653756.6644
 -32282327.08447 -25135420.41946  21014062.1724                   21014060.2424
 -51837994.23547 -40377799.39944  23557907.4384                   23557906.7154
 -17302363.32347 -13462183.87346  21644621.6024                   21644620.3284
 11  8 11  1 12 30.0000000  0  8G09G12G02G04G25G10G17G05
 -19630458.96847 -15275415.96544  24248322.2974                   24248323.3954
 -24150818.09148 -18799072.14046  21178596.0784                   21178593.2424
 -40090136.72848 -31217916.66446  20686881.4694                   20686876.9264
 -45531062.29247 -35461406.41945  22185839.7424                   22185838.4734
   1028627.01547    816990.26344  23622977.3054                   23622978.6524
 -32335002.55848 -25176466.22546  21004038.7194                   21004036.8634
 -51848195.66046 -40385748.60644  23555965.2424                   23555964.9844
 -17452088.53148 -13578852.82846  21616129.4774                   21616128.1254
 11  8 11  1 13  0.0000000  0  8G09G12G02G04G25G10G17G05
 -19616217.33546 -15264318.73243  24251031.9924                   24251033.3324
 -24263924.47047 -18887206.96446  21157072.8054                   21157069.9414
 -40151421.05248 -31265670.69646  20675219.4774                   20675215.0434
 -45519851.43047 -35452670.71345  22187972.9774                   22187971.2624
    867156.18347    691168.85644  23592250.6254                   23592251.9224
 -32387039.64847 -25217014.60246  20994136.3204                   20994134.4264
 -51858215.95647 -40393556.66044  23554060.0634                   23554058.3754
 -17601422.99748 -13695217.30946  21587711.7664                   21587709.7154
 11  8 11  1 13 30.0000000  0  8G09G12G02G04G25G10G17G05
 -19601909.39747 -15253169.83644  24253755.3524                   24253756.4574
 -24376522.81348 -18974945.93046  21135646.2034                   21135643.5004
 -40212437.71348 -31313216.14846  20663608.2424                   20663603.9924
 -45508543.69447 -35443859.52545  22190125.6884                   22190123.8094
    705952.83447    565555.89344  23561575.2814                   23561576.1214
 -32438441.29147 -25257067.82246  20984355.1094                   20984352.7974
 -51868056.55646 -40401224.67744  23552185.8674                   23552185.4384
 -17750366.37548 -13811277.04546  21559369.1414                   21559367.3204
 11  8 11  1 14  0.0000000  0  8G09G12G02G04G25G10G17G05
 -19587538.59846 -15241971.96444  24256490.3054                   24256490.7854
 -24488611.85648 -19062288.03346  21114316.0864                   21114314.2114
 -40273188.37748 -31360554.32446  20652048.0164                   20652043.7034
 -45497141.38947 -35434974.61345  22192294.6174                   22192292.8594
    545019.14247    440153.04544  23530949.5314                   23530951.0394
 -32489208.16348 -25296626.41346  20974694.3754                   20974692.5864
 -51877718.02646 -40408753.12144  23550348.6644                   23550347.9534
 -17898916.48548 -13927030.33046  21531100.7584                   21531099.8054
 11  8 11  1 14 30.0000000  0  8G09G12G02G04G25G10G17G05
 -19573109.65746 -15230728.78443  24259235.7504                   24259236.9304
 -24600190.93848 -19149232.76546  21093083.3524                   21093080.8914
 -40333675.26548 -31407686.94846  20640537.5634                   20640533.0824
 -45485647.39447 -35426018.28845  22194481.8754                   22194480.6844
    384356.51347    314961.40244  23500377.4064                   23500378.8524
 -32539342.20747 -25335691.89146  20965153.4064                   20965151.4024
 -51887201.25146 -40416142.68644  23548543.3914                   23548542.5554
 -18047071.74548 -14042475.94146  21502907.8204                   21502906.5944
 11  8 11  1 15  0.0000000  0  8G09G12G02G04G25G10G17G05
 -19558624.72746 -15219441.96343  24261992.2344                   24261992.8324
 -24711256.81848 -19235777.61146  21071948.1024                   21071945.8244
 -40393898.99048 -31454614.54046  20629077.0634                   20629072.7544
 -45474062.18747 -35416990.86945  22196686.2344                   22196685.5904
    223968.64447    189983.87844  23469856.5394                   23469855.7194
 -32588843.24647 -25374264.11846  20955733.9844                   20955732.0984
 -51896504.75246 -40423392.19144  23546773.3284                   23546772.6994
 -18194828.76248 -14157611.23346  21474790.5314                   21474789.2814
 11  8 11  1 15 30.0000000  0  8G09G12G02G04G25G10G17G05
 -19544088.75046 -15208115.36943  24264758.8364                   24264759.4574
 -24821809.57548 -19321922.61646  21050910.7424                   21050907.9774
 -40453861.97748 -31501338.94646  20617666.6094                   20617662.6054
 -45462389.39147 -35407895.22545  22198907.6334                   22198906.8164
     63856.62247     65221.25744  23439387.7584                   23439389.6374
 -32637713.66048 -25412344.95446  20946434.2664                   20946432.5044
 -51905629.82746 -40430502.69344  23545037.4224                   23545035.0234
 -18342186.66748 -14272435.53446  21446749.2504                   21446747.8674
 11  8 11  1 16  0.0000000  0  8G09G12G02G04G25G10G17G05
 -19529501.77246 -15196749.09743  24267534.3134                   24267536.0514
 -24931844.34148 -19407663.97146  21029971.7194                   21029969.4064
 -40513562.42348 -31547858.76746  20606306.3284                   20606301.9964
 -45450627.74547 -35398730.33345  22201146.2584                   22201144.9104
    -95973.98447    -59322.04544  23408973.1564                   23408973.3404
 -32685950.81148 -25449932.32246  20937254.7974                   20937253.1524
 -51914572.98047 -40437471.39444  23543335.9774                   23543334.3094
 -18489139.74648 -14386944.38046  21418784.6884                   21418783.7584
 11  8 11  1 16 30.0000000  0  8G09G12G02G04G25G10G17G05
 -19514869.80646 -15185347.65943  24270317.9774                   24270319.7234
 -25041362.14248 -19493002.51246  21009131.0234                   21009128.7504
 -40573004.30648 -31594177.12346  20594994.6094                   20594990.4494
 -45438781.23947 -35389499.30245  22203400.6644                   22203398.4104
   -255522.94046   -183645.87544  23378611.8364                   23378613.6294
 -32733558.09647 -25487028.90446  20928195.8364                   20928193.7584
 -51923336.29747 -40444299.94044  23541668.9144                   23541666.1684
 -18635687.80748 -14501137.62446  21390897.8914                   21390896.2734
 11  8 11  1 17  0.0000000  0  8G09G12G02G04G25G10G17G05
 -19500197.32846 -15173914.73043  24273111.2344                   24273112.0234
 -25150362.55048 -19577937.89346  20988389.4144                   20988386.5084
 -40632190.33148 -31640296.09046  20583731.7584                   20583727.2664
 -45426853.28047 -35380204.82845  22205670.0554                   22205669.6134
   -414789.23947   -307749.43744  23348305.0784                   23348305.1724
 -32780538.15148 -25523636.72746  20919256.1564                   20919253.6484
 -51931921.17746 -40450989.46544  23540034.1724                   23540033.1954
 -18781830.21248 -14615014.78046  21363087.6414                   21363086.1254
 11  8 11  1 17 30.0000000  0  8G09G12G02G04G25G10G17G05
 -19485487.62746 -15162452.74043  24275910.8364                   24275912.4184
 -25258843.58748 -19662468.55546  20967746.1174                   20967743.2854
 -40691121.38948 -31686216.39646  20572518.0084                   20572513.6094
 -45414845.23347 -35370847.93445  22207955.3364                   22207953.2344
   -573770.01547   -431630.54644  23318051.4144                   23318052.5434
 -32826891.39548 -25559756.11046  20910435.2194                   20910432.9104
 -51940326.98946 -40457539.45844  23538434.7424                   23538432.7304
 -18927563.91048 -14728573.46046  21335355.5084                   21335354.0984
 11  8 11  1 18  0.0000000  0  8G09G12G02G04G25G10G17G05
 -19470744.54946 -15150964.78043  24278716.1414                   24278717.8364
 -25366804.07748 -19746593.60946  20947201.5864                   20947198.9694
 -40749799.42148 -31731939.53446  20561351.7504                   20561346.7734
 -45402759.33547 -35361430.37645  22210255.1484                   22210253.9734
   -732463.06947   -555287.36744  23287853.1254                   23287853.2814
 -32872619.21248 -25595388.16046  20901733.0004                   20901731.1294
 -51948553.74447 -40463949.93444  23536868.8754                   23536867.9924
 -19072887.09448 -14841812.25646  21307701.3914                   21307699.8834
 11  8 11  1 18 30.0000000  0  8G09G12G02G04G25G10G17G05
 -19455969.46845 -15139451.90643  24281527.0084                   24281530.0084
 -25474240.54548 -19830310.32346  20926757.1724                   20926754.5434
 -40808223.45448 -31777464.74546  20550234.1334                   20550229.6724
 -45390595.26947 -35351951.89545  22212570.0314                   22212568.0234
   -890863.92247   -678716.57644  23257710.5164                   23257712.1484
 -32917720.51648 -25630532.00746  20893151.2194                   20893148.9224
 -51956599.71246 -40470219.52644  23535339.0554                   23535337.2814
 -19217795.37448 -14954727.74946  21280126.3834                   21280124.6914
 11  8 11  1 19  0.0000000  0  8G09G12G02G04G25G10G17G05
 -19441165.22146 -15127916.29443  24284344.7504                   24284346.8364
 -25581151.27948 -19913617.37846  20906412.5474                   20906410.0394
 -40866394.53148 -31822792.85046  20539164.2734                   20539159.7814
 -45378354.67847 -35342413.77745  22214898.7504                   22214897.5904
  -1048969.76247   -801915.86444  23227623.9144                   23227624.3094
 -32962196.20648 -25665188.37946  20884687.3524                   20884685.1174
 -51964464.22246 -40476347.70244  23533841.0084                   23533840.9414
 -19362286.10048 -15067317.87046  21252630.4844                   21252628.8364
 11  8 11  1 19 30.0000000  0  8G09G12G02G04G25G10G17G05
 -19426339.63746 -15116364.02943  24287166.4224                   24287168.0204
 -25687539.18148 -19996517.02646  20886167.6954                   20886165.7854
 -40924318.89748 -31867928.71046  20528141.8984                   20528137.4694
 -45366043.70847 -35332820.83345  22217242.0234                   22217240.7424
  -1206782.59247   -924886.81744  23197592.5944                   23197594.0124
 -33006051.52148 -25699361.33746  20876341.8914                   20876340.5044
 -51972151.48546 -40482337.78644  23532378.9384                   23532376.4414
 -19506361.46948 -15179584.33746  21225214.0084                   21225212.3984
 11  8 11  1 20  0.0000000  0  8G09G12G02G04G25G10G17G05
 -19411493.61546 -15104795.86043  24289990.7274                   24289993.3204
 -25793399.60148 -20079005.65346  20866023.2894                   20866020.6024
 -40981994.60548 -31912870.81446  20517166.3524                   20517161.8954
 -45353661.48547 -35323172.36045  22219598.8054                   22219596.9734
  -1364297.03747  -1047625.30544  23167619.2814                   23167619.1524
 -33049284.88648 -25733049.66546  20868114.3204                   20868113.0004
 -51979658.63547 -40488187.50244  23530950.6954                   23530948.5664
 -19650016.39348 -15291523.19246  21197877.2194                   21197875.5554
 11  8 11  1 20 30.0000000  0  8G09G12G02G04G25G10G17G05
 -19396630.00246 -15093213.97543  24292820.1254                   24292822.1724
 -25898731.33148 -20161082.31046  20845979.2734                   20845976.3674
 -41039423.14748 -31957620.32546  20506238.0474                   20506233.6684
 -45341209.37547 -35313469.43645  22221967.7274                   22221966.7194
  -1521510.54647  -1170129.27345  23137702.9144                   23137703.0704
 -33091897.42648 -25766254.24046  20860005.8674                   20860003.8094
 -51986985.37646 -40493896.67244  23529556.5474                   23529554.6844
 -19793248.44048 -15403132.52846  21170621.2194                   21170619.5474
 11  8 11  1 21  0.0000000  0  8G09G12G02G04G25G10G17G05
 -19381756.47346 -15081624.34944  24295650.5314                   24295653.4224
 -26003537.22748 -20242749.22346  20826035.1724                   20826033.0164
 -41096609.91548 -32002181.43146  20495356.1414                   20495351.7664
 -45328693.77547 -35303717.06645  22224349.6174                   22224348.5004
  -1678424.93147  -1292400.13844  23107842.2034                   23107842.5354
 -33133894.66648 -25798979.35746  20852014.2274                   20852012.4734
 -51994135.89046 -40499468.52344  23528194.7344                   23528195.4224
 -19936059.43048 -15514413.77446  21143445.2034                   21143443.7154
 11  8 11  1 21 30.0000000  0  8G09G12G02G04G25G10G17G05
 -17791451.35346 -13842425.71844  24598275.5164                   24598278.2734
 -24532386.12148 -19096397.69746  21105985.9224                   21105983.0704
 -39578128.99148 -30818949.53246  20784313.1254                   20784308.9884
 -43740690.78547 -34066312.13445  22526537.0004                   22526535.5474
   -259606.67747   -186827.37845  23377833.7504                   23377835.3634
 -31599850.50948 -24603620.25546  21143933.0704                   21143930.8484
 -50425683.84546 -39277298.15644  23826661.8754                   23826661.1134
 -18503016.50648 -14397756.88746  21416143.9454                   21416142.4694
 11  8 11  1 22  0.0000000  0  8G09G12G02G04G25G10G17G05
 -17776552.64647 -13830816.52144  24601110.3134                   24601112.8874
 -24636119.96348 -19177229.24246  21086246.1254                   21086243.3634
 -39634821.23648 -30863125.31046  20773524.7734                   20773520.7034
 -43728037.16047 -34056452.22245  22528944.4144                   22528943.8244
   -415899.61547   -308614.02945  23348092.7194                   23348093.9344
 -31640604.79848 -24635376.84346  21136177.6954                   21136175.6764
 -50432465.55346 -39282582.64044  23825370.7584                   23825369.3364
 -18644963.02648 -14508364.52846  21389132.4614                   21389130.6724
 11  8 11  1 22 30.0000000  0  8G09G12G02G04G25G10G17G05
 -17761639.88847 -13819196.33544  24603948.9454                   24603951.0554
 -24739309.36348 -19257636.55146  21066609.9614                   21066607.6214
 -39691261.82048 -30907104.98146  20762784.5704                   20762780.2464
 -43715310.90747 -34046535.64144  22531365.5084                   22531364.5164
   -571871.82247   -430150.74145  23318412.1174                   23318413.8324
 -31680732.79548 -24666645.39446  21128541.8834                   21128540.0664
 -50439056.27346 -39287718.27444  23824116.8754                   23824116.2734
 -18786467.50648 -14618627.71946  21362205.1484                   21362203.2304
 11  8 11  1 23  0.0000000  0  8G09G12G02G04G25G10G17G05
 -17746716.20047 -13807567.64744  24606789.1644                   24606791.4184
 -24841952.63448 -19337618.30846  21047077.6334                   21047074.8754
 -39747451.83048 -30950889.38046  20752092.1724                   20752088.1604
 -43702513.45047 -34036563.63645  22533801.8364                   22533800.7154
   -727520.40347   -551435.31545  23288793.3284                   23288793.6994
 -31720235.90248 -24697427.02946  21121024.2274                   21121022.3834
 -50445455.64846 -39292704.87744  23822898.7584                   23822899.2584
 -18927527.36448 -14728544.43146  21335361.9694                   21335360.1484
 11  8 11  1 23 30.0000000  0  8G09G12G02G04G25G10G17G05
 -17731791.09647 -13795937.86643  24609629.0314                   24609631.4844
 -24944054.82948 -19417178.45446  21027648.1254                   21027645.8094
 -39803398.67348 -30994484.31046  20741445.9694                   20741441.7814
 -43689652.45747 -34026542.07444  22536248.4064                   22536247.5354
   -882849.10947   -672470.64545  23259235.1804                   23259235.7304
 -31759121.24347 -24727727.29646  21113624.8054                   21113622.8554
 -50451669.89447 -39297547.15544  23821717.5634                   23821716.1254
 -19068146.77048 -14838117.96546  21308602.9534                   21308601.5274
 11  8 11  1 24  0.0000000  0  8G09G12G02G04G25G10G17G05
 -17716868.50747 -13784310.05043  24612469.4224                   24612470.9964
 -25045614.97848 -19496316.22746  21008321.9144                   21008319.1054
 -39859104.31448 -31037891.29446  20730845.0704                   20730840.9024
 -43676730.46647 -34016473.02144  22538707.6414                   22538707.3244
  -1037856.15247   -793255.33545  23229738.6024                   23229739.4774
 -31797390.88348 -24757547.80146  21106342.1174                   21106339.7504
 -50457699.43447 -39302245.53844  23820569.7814                   23820568.7114
 -19208324.14848 -14947347.04146  21281928.1954                   21281925.8954
 11  8 11  1 24 30.0000000  0  8G09G12G02G04G25G10G17G05
 -17701955.98246 -13772690.04043  24615306.8754                   24615308.9224
 -25146636.15048 -19575034.01846  20989098.0394                   20989095.4614
 -39914574.40848 -31081114.73846  20720289.8444                   20720285.4454
 -43663753.50847 -34006361.12845  22541177.2664                   22541175.3164
  -1192543.17947   -913790.64145  23200302.3204                   23200302.5554
 -31835050.31847 -24786892.83946  21099176.1414                   21099173.9884
 -50463548.12546 -39306802.97944  23819456.1724                   23819455.6454
 -19348061.36148 -15056233.13346  21255336.9384                   21255335.0744
 11  8 11  1 25  0.0000000  0  8G09G12G02G04G25G10G17G05
 -17687057.46246 -13761080.95743  24618141.9304                   24618145.0744
 -25247117.37648 -19653331.05646  20969977.1484                   20969974.9224
 -39969810.99248 -31124156.23346  20709778.5784                   20709774.1334
 -43650723.80347 -33996208.12545  22543656.0084                   22543655.4024
  -1346908.45247  -1034075.24445  23170927.5944                   23170928.3524
 -31872101.81147 -24815764.13046  21092125.0944                   21092123.1024
 -50469216.89946 -39311220.26844  23818377.8834                   23818377.1374
 -19487356.93848 -15164775.10346  21228829.8364                   21228828.0944
 11  8 11  1 25 30.0000000  0  8G09G12G02G04G25G10G17G05
 -17672173.98946 -13749483.67243  24620973.5474                   24620976.7894
 -25347055.87648 -19731205.22846  20950959.5164                   20950957.1454
 -40024813.46348 -31167015.29246  20699312.2894                   20699307.5594
 -43637640.83847 -33986013.63045  22546146.5474                   22546145.6524
  -1500947.46447  -1154105.63845  23141614.7114                   23141615.4104
 -31908544.56148 -24844161.07946  21085190.3984                   21085188.3874
 -50474703.53146 -39315495.59644  23817333.7274                   23817333.3324
 -19626206.63348 -15272969.63246  21202407.8364                   21202405.9804
 11  8 11  1 26  0.0000000  0  8G09G12G02G04G25G10G17G05
 -17657313.76845 -13737904.49642  24623801.7894                   24623804.9534
 -25446455.02948 -19808659.10446  20932044.6954                   20932042.0704
 -40079588.15148 -31209696.86546  20688888.7814                   20688883.9734
 -43624511.15947 -33975782.73445  22548644.9384                   22548643.5474
  -1654662.63247  -1273883.64945  23112363.9224                   23112365.5474
 -31944385.06648 -24872088.74246  21078370.2584                   21078368.8484
 -50480012.75546 -39319632.73444  23816323.1484                   23816322.0314
 -19764613.47148 -15380819.08446  21176069.7034                   21176067.6374
 11  8 11  1 26 30.0000000  0  8G09G12G02G04G25G10G17G05
 -17642480.32645 -13726346.14842  24626624.6644                   24626627.1684
 -25545313.62648 -19885691.79146  20913232.3594                   20913229.6724
 -40134136.15048 -31252201.79446  20678508.5944                   20678504.4414
 -43611336.39747 -33965516.68845  22551152.1174                   22551150.0204
  -1808051.37947  -1393407.35745  23083174.9384                   23083175.8244
 -31979624.50448 -24899548.05546  21071664.4224                   21071662.7774
 -50485144.40246 -39323631.49144  23815347.7504                   23815346.5164
 -19902574.86648 -15488321.42646  21149816.1884                   21149814.9344
 11  8 11  1 27  0.0000000  0  8G09G12G02G04G25G10G17G05
 -17627677.62946 -13714811.77343  24629442.9454                   24629445.1994
 -25643631.27648 -19962302.94846  20894523.4924                   20894520.9414
 -40188459.67248 -31294531.81046  20668171.1954                   20668166.1724
 -43598119.31847 -33955217.66645  22553667.3524                   22553666.4184
  -1961112.37747  -1512675.64144  23054048.1254                   23054048.4304
 -32014265.27748 -24926540.87246  21065072.2664                   21065070.4804
 -50490099.69546 -39327492.75944  23814403.1094                   23814402.9264
 -20040090.15548 -15595476.16046  21123647.9304                   21123645.9654
 11  8 11  1 27 30.0000000  0  8G09G12G02G04G25G10G17G05
 -17612906.40146 -13703302.00343  24632253.0944                   24632256.0084
 -25741404.73048 -20038490.05446  20875917.4844                   20875914.9694
 -40242558.19348 -31336686.49546  20657876.7274                   20657872.0394
 -43584859.18647 -33944885.12845  22556190.0634                   22556189.0234
  -2113840.76347  -1631684.74345  23024985.1954                   23024986.4494
 -32048306.75547 -24953066.68846  21058594.5634                   21058593.0084
 -50494875.99946 -39331214.57144  23813495.7504                   23813493.9344
 -20177154.68448 -15702279.65146  21097565.8284                   21097563.6994
 11  8 11  1 28  0.0000000  0  8G09G12G02G04G25G10G17G05
 -17598171.80446 -13691820.73743  24635056.8834                   24635060.0314
 -25838634.35148 -20114253.39846  20857415.3524                   20857413.0234
 -40296434.42348 -31378667.95446  20647624.2734                   20647620.0864
 -43571559.29047 -33934521.57045  22558721.9144                   22558719.8554
  -2266235.82047  -1750434.12045  22995985.6564                   22995985.4964
 -32081752.10548 -24979128.00146  21052230.2894                   21052228.1954
 -50499475.00146 -39334798.20944  23812619.9534                   23812619.3984
 -20313767.87948 -15808731.45046  21071568.7584                   21071567.7464
 11  8 11  1 28 30.0000000  0  8G09G12G02G04G25G10G17G05
 -17583476.39246 -13680369.99943  24637854.4304                   24637857.1134
 -25935318.23348 -20189591.48346  20839017.0554                   20839014.4734
 -40350089.10648 -31420476.80146  20637414.0784                   20637409.9494
 -43558220.59147 -33924127.79144  22561259.0784                   22561258.0514
  -2418294.41847  -1868921.31045  22967049.5704                   22967050.4414
 -32114602.17048 -25004725.44646  21045978.7584                   21045977.2774
 -50503896.11146 -39338243.29644  23811778.9144                   23811778.0704
 -20449927.32148 -15914829.66846  21045658.6254                   21045656.5164
 11  8 11  1 29  0.0000000  0  8G09G12G02G04G25G10G17G05
 -17568822.91346 -13668951.96443  24640642.5944                   24640645.2274
 -26031454.89548 -20264503.16346  20820722.6254                   20820719.9534
 -40403523.21248 -31462113.75546  20627245.4304                   20627241.4654
 -43544844.09947 -33913704.58745  22563805.1024                   22563804.0784
  -2570013.66247  -1987144.07645  22938178.0944                   22938178.7344
 -32146857.91248 -25029859.79646  21039840.9694                   21039839.2934
 -50508138.71046 -39341549.21444  23810971.8054                   23810970.0864
 -20585630.46648 -16020572.33246  21019835.2664                   21019833.1334
 11  8 11  1 29 30.0000000  0  8G09G12G02G04G25G10G17G05
 -17554214.56946 -13657569.08543  24643422.9924                   24643424.9414
 -26127042.76848 -20338987.22146  20802533.0004                   20802530.6294
 -40456737.72948 -31503579.58246  20617119.4224                   20617115.1374
 -43531431.32447 -33903253.07244  22566357.2974                   22566355.8914
  -2721390.89247  -2105100.31545  22909372.0944                   22909372.4104
 -32178520.72848 -25054532.09946  21033815.6884                   21033813.7154
 -50512202.60846 -39344715.87944  23810198.8914                   23810196.7034
 -20720874.78548 -16125957.47846  20994099.1174                   20994097.5594
 11  8 11  1 30  0.0000000  0  8G09G12G02G04G25G10G17G05
 -17539652.50646 -13646222.28043  24646194.1644                   24646197.1484
 -26222079.36248 -20413041.70046  20784448.0704                   20784445.4964
 -40509732.13748 -31544873.91546  20607034.7584                   20607030.4104
 -43517981.79647 -33892772.96744  22568916.8594                   22568915.8244
  -2872421.79547  -2222786.70945  22880631.8364                   22880632.6214
 -32209590.74548 -25078742.49846  21027903.9224                   21027901.1484
 -50516085.58846 -39347741.60044  23809458.7584                   23809456.8954
 -20855656.44248 -16230982.10446  20968450.9064                   20968449.1094
 11  8 11  1 30 30.0000000  0  8G09G12G02G04G25G10G17G05
 -17525142.15946 -13634915.73843  24648955.6484                   24648958.3484
 -26316565.88348 -20486667.55346  20766468.3284                   20766465.1884
 -40562510.38248 -31585999.81446  20596991.3134                   20596987.0234
 -43504499.84447 -33882267.56045  22571481.4064                   22571481.1954
  -3023106.37247  -2340203.24445  22851957.4454                   22851957.7234
 -32240071.61848 -25102493.82246  21022102.8284                   21022100.9924
 -50519790.04546 -39350628.20644  23808754.5084                   23808753.5124
 -20989976.17248 -16335646.78846  20942891.1334                   20942889.0824
 11  8 11  1 31  0.0000000  0  8G09G12G02G04G25G10G17G05
 -17510682.91646 -13623648.98643  24651707.1644                   24651709.9184
 -26410497.16448 -20559860.76246  20748593.4384                   20748590.7774
 -40615069.72448 -31626955.14546  20586989.6094                   20586985.5434
 -43490982.47847 -33871734.55144  22574054.0944                   22574053.3714
  -3173438.19147  -2457344.85345  22823350.3204                   22823350.2304
 -32269960.99248 -25125784.25146  21016415.4144                   21016413.7274
 -50523312.43546 -39353372.94144  23808083.8984                   23808083.1294
 -21123827.69048 -16439946.63746  20917419.6484                   20917418.0274
 11  8 11  1 31 30.0000000  0  8G09G12G02G04G25G10G17G05
 -17496280.90646 -13612426.85743  24654447.3834                   24654450.7344
 -26503875.25648 -20632622.90146  20730823.9924                   20730821.5394
 -40667414.40748 -31667743.20846  20577028.9694                   20577024.6094
 -43477434.64847 -33861177.81244  22576632.5084                   22576631.8244
  -3323417.83447  -2574212.10745  22794809.9694                   22794810.3674
 -32299263.69948 -25148617.51546  21010839.0784                   21010837.0164
 -50526655.50547 -39355977.96444  23807448.3054                   23807446.8404
 -21257212.21348 -16543882.58446  20892037.3834                   20892035.4574
 11  8 11  1 32  0.0000000  0  8G09G12G02G04G25G10G17G05
 -17481942.12146 -13601254.02143  24657176.3134                   24657180.1844
 -26596702.06448 -20704955.46646  20713159.7664                   20713157.1214
 -40719548.63348 -31708367.28246  20567108.2664                   20567103.5664
 -43463860.52547 -33850600.58644  22579215.6254                   22579214.9454
  -3473045.78547  -2690805.26545  22766336.3914                   22766337.4574
 -32327984.55948 -25170997.41346  21005373.7974                   21005372.0394
 -50529822.14646 -39358445.51843  23806845.7974                   23806843.5554
 -21390130.36548 -16647455.13046  20866743.7274                   20866741.6254
 11  8 11  1 32 30.0000000  0  8G09G12G02G04G25G10G17G05
 -17467669.03046 -13590132.37943  24659892.7344                   24659896.1414
 -26688975.81848 -20776857.07546  20695600.9534                   20695597.9924
 -40771473.29748 -31748828.05446  20557227.2274                   20557222.6094
 -43450261.02347 -33840003.58644  22581803.5084                   22581801.3594
  -3622318.90847  -2807121.93645  22737930.9924                   22737932.1374
 -32356124.30448 -25192924.47946  21000018.6884                   21000016.7934
 -50532811.44846 -39360774.88344  23806276.9064                   23806275.6484
 -21522579.60648 -16750662.29646  20841539.5314                   20841537.5514
 11  8 11  1 33  0.0000000  0  8G09G12G02G04G25G10G17G05
 -15878043.75346 -12351463.53644  24962388.5084                   24962392.8324
 -25205270.69148 -19620723.20446  20977940.2504                   20977937.3014
 -39247765.88648 -30561523.57546  20847179.0704                   20847174.7304
 -41861216.38447 -32601786.99444  22884188.7034                   22884187.2274
  -2195808.20247  -1695555.11845  23009386.9844                   23009387.8794
 -30808262.19147 -23986798.19046  21294566.8984                   21294565.2774
 -48960201.91846 -38135364.91643  24105533.6564                   24105533.2384
 -20079131.98048 -15625897.87246  21116218.3204                   21116216.6604
 11  8 11  1 33 30.0000000  0  8G09G12G02G04G25G10G17G05
 -15863907.38546 -12340448.41344  24965078.9454                   24965082.0944
 -25296431.08148 -19691757.26246  20960592.9064                   20960590.4694
 -39299270.51548 -30601657.05146  20837377.7114                   20837373.6374
 -41847566.45847 -32591150.70944  22886785.4924                   22886785.0824
  -2344360.40747  -1811310.03445  22981118.4454                   22981118.5004
 -30835240.99048 -24007820.61246  21289433.3134                   21289431.3324
 -48962832.79546 -38137415.00343  24105033.4534                   24105032.5634
 -20210633.48148 -15728366.54246  21091194.5634                   21091192.5984
 11  8 11  1 34  0.0000000  0  8G09G12G02G04G25G10G17G05
 -15849843.65146 -12329489.91943  24967754.6884                   24967759.6094
 -25387033.45348 -19762356.49346  20943351.8674                   20943349.7814
 -39350567.08748 -30641628.40646  20827616.9534                   20827612.4414
 -41833893.51447 -32580496.52344  22889388.4384                   22889387.1454
  -2492548.26247  -1926781.04645  22952919.0234                   22952919.8984
 -30861641.69248 -24028392.59746  21284409.4844                   21284407.3204
 -48965284.15046 -38139325.26443  24104567.5634                   24104566.7774
 -20341658.28948 -15830463.75846  21066261.0474                   21066259.4064
 11  8 11  1 34 30.0000000  0  7G12G02G04G25G10G17G05
 -25477077.61848 -19832520.76946  20926217.4694                   20926215.0004
 -39401657.67648 -30681439.26146  20817894.5234                   20817889.9804
 -41820199.63547 -32569825.98044  22891993.8284                   22891993.5354
  -2640370.23347  -2041966.97445  22924789.6024                   22924790.1374
 -30887466.92948 -24048516.14746  21279495.3284                   21279492.9224
 -48967556.64046 -38141096.06643  24104134.0784                   24104133.8484
 -20472205.13448 -15932188.52946  21041418.9304                   21041416.8364
 11  8 11  1 35  0.0000000  0  7G12G02G04G25G10G17G05
 -25566562.42448 -19902249.18646  20909188.9144                   20909186.3324
 -39452543.38848 -30721090.46246  20808211.2734                   20808207.2464
 -41806486.08947 -32559140.12144  22894603.5944                   22894602.7234
  -2787823.85547  -2156865.89245  22896730.4384                   22896729.8674
 -30912718.35448 -24068192.57046  21274690.0164                   21274688.5314
 -48969650.53846 -38142727.66443  24103736.1884                   24103736.0044
 -20602272.00647 -16033539.30946  21016667.9844                   21016665.9184
 11  8 11  1 35 30.0000000  0  7G12G02G04G25G10G17G05
 -25655479.04248 -19971534.86646  20892268.6644                   20892266.2384
 -39503217.39748 -30760576.70846  20798568.1024                   20798563.7424
 -41792746.13447 -32548433.70244  22897218.6724                   22897217.4224
  -2934898.45047  -2271469.46245  22868742.5394                   22868743.9344
 -30937389.87948 -24087417.13246  21269995.2194                   21269993.3284
 -48971557.51746 -38144213.67443  24103372.2584                   24103372.9224
 -20731848.69148 -16134508.11746  20992010.3594                   20992008.2544
 11  8 11  1 36  0.0000000  0  7G12G02G04G25G10G17G05
 -25743824.18448 -20040375.22346  20875456.8444                   20875454.2624
 -39553678.70348 -30799897.20846  20788965.6174                   20788961.4774
 -41778978.67347 -32537705.82544  22899838.0474                   22899837.0434
  -3081589.26047  -2385773.95245  22840828.6724                   22840828.4614
 -30961480.94448 -24106189.40646  21265410.6414                   21265408.5784
 -48973275.25746 -38145552.22643  24103044.9454                   24103046.5474
 -20860931.28048 -16235091.90846  20967446.7274                   20967445.0204
 11  8 11  1 36 30.0000000  0  7G12G02G04G25G10G17G05
 -25831601.68148 -20108773.28346  20858753.5394                   20858751.0004
 -39603933.33148 -30839056.65446  20779402.6254                   20779398.1134
 -41765190.24947 -32526961.63044  22902462.1334                   22902460.8954
  -3227898.67047  -2499781.29745  22812986.4224                   22812986.9964
 -30984998.06848 -24124514.43446  21260935.7114                   21260933.2274
 -48974808.43846 -38146746.95943  24102753.9454                   24102754.4184
 -20989522.53748 -16335292.84946  20942976.5394                   20942974.7974
 11  8 11  1 37  0.0000000  0  7G12G02G04G25G10G17G05
 -25918812.70248 -20176729.91046  20842157.7114                   20842155.5044
 -39653984.23748 -30878057.33546  20769878.3284                   20769873.4264
 -41751383.96947 -32516203.53244  22905089.1644                   22905088.2194
  -3373826.40847  -2613491.20745  22785217.3444                   22785217.8094
 -31007945.54948 -24142395.58846  21256568.8754                   21256566.9454
 -48976159.27646 -38147799.64844  24102499.0234                   24102497.4884
 -21117622.52748 -16435110.96946  20918599.8054                   20918598.4224
 11  8 11  1 37 30.0000000  0  7G12G02G04G25G10G17G05
 -26005460.12848 -20244247.38946  20825669.2034                   20825666.2424
 -39703836.44348 -30916903.20646  20760391.6564                   20760387.2464
 -41737565.10847 -32505435.64144  22907719.1954                   22907718.0514
  -3519373.55247  -2726904.56145  22757520.6334                   22757521.6094
 -31030328.33648 -24159836.72146  21252309.5704                   21252307.2894
 -48977331.16547 -38148712.81644  24102275.1644                   24102273.1604
 -21245233.14848 -16534547.77546  20894316.5394                   20894314.6134
 11  8 11  1 38  0.0000000  0  7G12G02G04G25G10G17G05
 -26091540.91048 -20311323.32846  20809289.0554                   20809286.0234
 -39753489.31248 -30955593.75146  20750943.0864                   20750938.7234
 -41723732.42947 -32494656.95344  22910352.0234                   22910350.0234
  -3664535.55547  -2840017.82645  22729897.0864                   22729897.5234
 -31052146.29048 -24176837.73646  21248157.8204                   21248155.4844
 -48978321.83447 -38149484.77844  24102086.9534                   24102085.7424
 -21372350.46548 -16633600.18046  20870126.8754                   20870124.8754
 11  8 11  1 38 30.0000000  0  7G12G02G04G25G10G17G05
 -26177057.29948 -20377959.47946  20793015.3284                   20793012.9224
 -39802946.63648 -30994131.91346  20741531.8524                   20741527.3364
 -41709890.23547 -32483870.86444  22912985.5004                   22912984.5864
  -3809312.86247  -2952831.30345  22702346.9064                   22702347.9224
 -31073404.17047 -24193402.31246  21244112.5474                   21244110.7814
 -48979134.50947 -38150118.06944  24101932.3524                   24101931.2194
 -21498975.53348 -16732269.03646  20846030.9614                   20846028.5784
 11  8 11  1 39  0.0000000  0  7G12G02G04G25G10G17G05
 -26262011.53848 -20444157.59246  20776849.1804                   20776846.2504
 -39852212.61448 -31032520.97946  20732156.5394                   20732152.1954
 -41696042.75147 -32473080.65844  22915620.4924                   22915620.0124
  -3953706.02747  -3065345.42245  22674869.8754                   22674870.1334
 -31094107.18947 -24209534.53346  21240172.5314                   21240171.1644
 -48979772.02247 -38150614.88544  24101810.7814                   24101809.3444
 -21625109.71048 -16830555.36946  20822028.6884                   20822025.9144
 11  8 11  1 39 30.0000000  0  7G12G02G04G25G10G17G05
 -26346401.48448 -20509915.99746  20760790.3284                   20760787.4344
 -39901287.57648 -31070761.21546  20722817.8674                   20722813.7344
 -41682190.16747 -32462286.43644  22918256.6094                   22918255.8324
  -4097711.57047  -3177557.52345  22647466.4384                   22647466.1604
 -31114256.14147 -24225235.01545  21236338.5864                   21236336.2034
 -48980233.35946 -38150974.40144  24101722.7504                   24101723.1094
 -21750749.70148 -16928456.62346  20798119.8444                   20798117.8874
 11  8 11  1 40  0.0000000  0  7G12G02G04G25G10G17G05
 -26430226.01948 -20575233.80546  20744839.0314                   20744836.4734
 -39950171.81948 -31108852.84046  20713515.7194                   20713511.2034
 -41668333.12247 -32451488.75944  22920893.8984                   22920891.9304
  -4241326.40747  -3289465.17045  22620137.7424                   22620137.9614
 -31133852.01447 -24240504.51946  21232609.5554                   21232607.6054
 -48980517.64947 -38151195.96544  24101669.4924                   24101666.2464
 -21875893.26148 -17025971.04846  20774305.6884                   20774303.6174
 11  8 11  1 40 30.0000000  0  7G12G02G04G25G10G17G05
 -26513486.18448 -20640111.86246  20728995.2344                   20728992.7624
 -39998868.21648 -31146798.07946  20704248.6334                   20704244.6254
 -41654474.57647 -32440689.90044  22923530.6254                   22923529.2734
  -4384549.84247  -3401067.81845  22592883.1724                   22592883.9064
 -31152898.74148 -24255346.14546  21228985.3524                   21228982.8754
 -48980626.57447 -38151280.87944  24101648.5164                   24101647.3484
 -22000540.40848 -17123098.66246  20750585.9144                   20750584.0354
 11  8 11  1 41  0.0000000  0  7G12G02G04G25G10G17G05
 -26596177.97248 -20704547.02346  20713259.3914                   20713256.9144
 -40047374.63148 -31184595.27846  20695018.5704                   20695014.5204
 -41640612.49447 -32429888.31144  22926168.8054                   22926166.8874
  -4527376.23947  -3512361.08545  22565704.0004                   22565704.1214
 -31171394.96147 -24269758.79045  21225465.0554                   21225463.1914
 -48980557.24547 -38151226.92144  24101661.6174                   24101661.2074
 -22124686.07448 -17219835.50546  20726961.9384                   20726959.8094
 11  8 11  1 41 30.0000000  0  7G12G02G04G25G10G17G05
 -26678302.23148 -20768539.94946  20697631.3364                   20697628.6724
 -40095694.12748 -31222246.83746  20685823.6024                   20685819.0164
 -41626749.85647 -32419086.23944  22928806.6094                   22928805.2544
  -4669804.93347  -3623344.44945  22538600.9534                   22538600.8954
 -31189344.69348 -24283745.60845  21222049.7734                   21222047.7704
 -48980311.02546 -38151035.07743  24101708.6094                   24101707.6604
 -22248330.27548 -17316181.60746  20703433.3444                   20703431.7154
 11  8 11  1 42  0.0000000  0  7G12G02G04G25G10G17G05
 -26759860.21748 -20832091.63746  20682111.6254                   20682109.3244
 -40143829.42448 -31259754.87046  20676663.9614                   20676659.4304
 -41612889.60346 -32408286.07744  22931443.9224                   22931442.6094
  -4811835.28347  -3734017.39745  22511573.4304                   22511573.9104
 -31206751.63047 -24297309.45945  21218737.4694                   21218735.6724
 -48979889.94546 -38150707.00243  24101788.3284                   24101786.6844
 -22371473.06348 -17412136.99046  20679999.5944                   20679997.8914
 11  8 11  1 42 30.0000000  0  7G12G02G04G25G10G17G05
 -26840851.46348 -20895201.68146  20666699.9384                   20666696.9384
 -40191782.38548 -31297120.81446  20667538.7034                   20667534.1054
 -41599033.33646 -32397489.02944  22934081.6254                   22934080.6954
  -4953465.31947  -3844378.42645  22484622.5864                   22484622.0984
 -31223618.12747 -24310452.19546  21215527.5704                   21215525.6454
 -48979294.24546 -38150242.84743  24101901.9304                   24101900.0514
 -22494113.09648 -17507700.60946  20656661.9694                   20656660.5394
 11  8 11  1 43  0.0000000  0  7G12G02G04G25G10G17G05
 -26921272.63248 -20957867.52946  20651396.1884                   20651393.7384
 -40239551.16548 -31334343.24746  20658448.5634                   20658444.3284
 -41585179.23247 -32386693.64144  22936717.5784                   22936716.7734
  -5094689.86447  -3954423.48645  22457747.7344                   22457747.7464
 -31239943.13047 -24323172.96546  21212421.3364                   21212419.2154
 -48978521.08646 -38149640.38943  24102049.1024                   24102047.1254
 -22616245.80548 -17602868.92446  20633421.1334                   20633419.3164
 11  8 11  1 43 30.0000000  0  7G12G02G04G25G10G17G05
 -27001125.64948 -21020090.64546  20636200.8754                   20636198.0204
 -40287139.22248 -31371424.86446  20649392.9844                   20649388.5554
 -41571330.94746 -32375902.78744  22939353.0164                   22939351.8834
  -5235508.82647  -4064152.49345  22430950.7344                   22430951.2034
 -31255731.52247 -24335475.60746  21209416.6804                   21209414.9144
 -48977572.84246 -38148901.50843  24102229.0784                   24102228.3444
 -22737872.07448 -17697642.61046  20610276.1414                   20610274.4614
 11  8 11  1 44  0.0000000  0  7G12G02G04G25G10G17G05
 -27080407.50048 -21081868.71146  20621113.8984                   20621111.2114
 -40334544.90748 -31408364.35346  20640372.2034                   20640367.6564
 -41557487.01646 -32365115.36844  22941987.1724                   22941985.9534
  -5375917.25147  -4173561.61445  22404231.8594                   22404232.6644
 -31270982.70447 -24347359.65346  21206514.3594                   21206512.4454
 -48976446.99646 -38148024.25643  24102443.8914                   24102443.2734
 -22858987.58848 -17792018.30746  20587228.6954                   20587226.4964
 11  8 11  1 44 30.0000000  0  8G29G12G02G04G25G10G17G05
  15536320.24156  12119414.21153  24779382.4064                   24779381.4694
 -25583698.62947 -19915602.04646  20905927.7114                   20905925.0944
 -38806351.82348 -30217564.53746  20931177.6094                   20931173.1054
 -39968232.93846 -31126735.57644  23244411.7114                   23244410.9414
  -3940492.17047  -3055048.51845  22677384.0164                   22677384.3524
 -29710282.02847 -23131229.24545  21503505.6644                   21503504.0984
 -47399727.79346 -36919411.87643  24402483.5164                   24402481.2774
 -21404170.61548 -16658394.65846  20864071.1644                   20864069.3914
 11  8 11  1 45  0.0000000  0  8G29G12G02G04G25G10G17G05
  15387589.05045  12003519.79643  24751079.3594                   24751079.5434
 -25661851.41147 -19976500.31946  20891055.9224                   20891053.4384
 -38853412.37147 -30254235.09346  20922222.1564                   20922217.5354
 -39954416.73046 -31115969.75244  23247040.9614                   23247040.2464
  -4080088.37247  -3163824.72445  22650820.1254                   22650820.6914
 -29724480.51448 -23142293.00045  21500804.3364                   21500802.0744
 -47398262.81946 -36918270.34543  24402762.8054                   24402761.5904
 -21524275.58748 -16751982.92646  20841216.3524                   20841214.0514
 11  8 11  1 45 30.0000000  0  8G29G12G02G04G25G10G17G05
  15238763.73246  11887552.00442  24722758.5704                   24722757.8094
 -25739445.64348 -20036963.34546  20876290.2974                   20876287.6374
 -38900307.94248 -30290777.10046  20913298.3834                   20913294.2034
 -39940622.06247 -31105220.69344  23249666.6484                   23249665.4264
  -4219280.86547  -3272286.36045  22624332.1334                   22624333.0204
 -29738161.92248 -23152953.85246  21498200.2814                   21498198.5904
 -47396634.10746 -36917001.29643  24403072.7894                   24403070.9494
 -21643878.82048 -16845180.22746  20818456.6644                   20818454.1094
 11  8 11  1 46  0.0000000  0  8G29G12G02G04G25G10G17G05
  15089849.82246  11771515.27343  24694420.9384                   24694421.2974
 -25816475.78448 -20096986.81846  20861631.7194                   20861629.2034
 -38947034.97548 -30327187.77546  20904406.2734                   20904401.9064
 -39926845.41147 -31094485.66844  23252287.6724                   23252287.4534
  -4358062.68047  -3380428.00245  22597923.3204                   22597923.5204
 -29751323.76248 -23163209.81545  21495696.0394                   21495693.7344
 -47394837.26746 -36915601.13043  24403414.8134                   24403413.0124
 -21762973.84448 -16937981.52046  20795793.3914                   20795790.8834
 11  8 11  1 46 30.0000000  0  8G29G12G02G04G25G10G17G05
  14940853.04146  11655413.89542  24666068.4304                   24666068.4024
 -25892935.37148 -20156565.71946  20847082.3444                   20847079.8204
 -38993588.85547 -30363463.53146  20895547.1414                   20895542.6054
 -39913082.08446 -31083761.01044  23254906.1724                   23254905.2234
  -4496425.88447  -3488243.44245  22571593.8134                   22571593.1524
 -29763962.65847 -23173058.30545  21493291.1564                   21493288.9614
 -47392866.52645 -36914065.52243  24403788.0634                   24403788.3164
 -21881553.95148 -17030381.56946  20773228.1644                   20773226.0164
 11  8 11  1 47  0.0000000  0  8G29G12G02G04G25G10G17G05
  14791775.14846  11539249.41643  24637699.9064                   24637698.9024
 -25968822.96547 -20215698.90346  20832641.1884                   20832638.7544
 -39039970.03148 -30399604.70046  20886721.5784                   20886717.1764
 -39899332.28346 -31073046.92443  23257523.5704                   23257521.7704
  -4634367.25247  -3595730.18245  22545344.0704                   22545344.9804
 -29776079.78547 -23182500.23145  21490985.3914                   21490983.1764
 -47390721.57246 -36912394.11243  24404197.7114                   24404196.0084
 -21999616.53948 -17122378.36246  20750761.5554                   20750759.4304
 11  8 11  1 47 30.0000000  0  8G29G12G02G04G25G10G17G05
  14642616.05946  11423021.62543  24609315.3594                   24609314.7344
 -26044139.02747 -20274386.73646  20818309.0864                   20818306.7974
 -39086180.04047 -30435612.48746  20877927.5944                   20877922.9494
 -39885597.85946 -31062344.75444  23260137.9304                   23260136.3594
  -4771885.05947  -3702886.88045  22519175.6094                   22519175.9654
 -29787677.82147 -23191537.66545  21488778.1254                   21488776.1254
 -47388402.50246 -36910587.10743  24404637.3594                   24404636.6054
 -22117160.79448 -17213971.25846  20728393.6724                   20728391.4414
 11  8 11  1 48  0.0000000  0  8G29G12G02G04G25G10G17G05
  14493379.43046  11306733.44443  24580916.0394                   24580916.3914
 -26118880.03148 -20332626.48446  20804086.3204                   20804083.8134
 -39132216.20247 -30471484.81146  20869167.3594                   20869163.2464
 -39871876.00346 -31051652.43544  23262748.3524                   23262747.1024
  -4908973.48547  -3809708.99945  22493087.8754                   22493087.6254
 -29798755.80047 -23200169.83445  21486669.8054                   21486667.7384
 -47385906.01945 -36908641.88543  24405114.2274                   24405113.2074
 -22234181.23948 -17305155.99346  20706125.4224                   20706123.0634
 11  8 11  1 48 30.0000000  0  8G29G12G02G04G25G10G17G05
  14344067.11747  11190386.24544  24552503.5784                   24552503.3324
 -26193044.67548 -20390417.10846  20789973.0234                   20789970.3484
 -39178079.11148 -30507222.14046  20860439.9454                   20860435.7974
 -39858167.41346 -31040970.45244  23265356.9304                   23265355.9104
  -5045629.51947  -3916194.18445  22467083.0234                   22467083.1604
 -29809314.74847 -23208397.57945  21484660.6174                   21484658.7734
 -47383231.61446 -36906557.92143  24405622.2274                   24405621.0904
 -22350676.21748 -17395931.26546  20683957.1724                   20683954.9264
 11  8 11  1 49  0.0000000  0  8G29G12G02G04G25G10G17G05
  14194676.70647  11073978.17944  24524075.8674                   24524075.8484
 -26266634.79248 -20447760.05546  20775969.3674                   20775966.6914
 -39223772.71248 -30542827.53546  20851744.6174                   20851740.3714
 -39844475.32146 -31030301.29044  23267962.3204                   23267960.6884
  -5181853.61247  -4022342.80245  22441160.8594                   22441161.5044
 -29819359.96347 -23216225.02545  21482749.1564                   21482746.6484
 -47380382.12546 -36904337.53943  24406165.1724                   24406162.5984
 -22466646.59948 -17486297.76547  20661888.7894                   20661886.4694
 11  8 11  1 49 30.0000000  0  8G29G12G02G04G25G10G17G05
  14045210.29947  10957510.91244  24495632.6254                   24495632.4064
 -26339649.20248 -20504654.39546  20762075.1254                   20762072.3874
 -39269296.46048 -30578300.57546  20843082.1174                   20843077.5474
 -39830799.77246 -31019645.04544  23270564.6174                   23270563.3874
  -5317642.08647  -4128151.97345  22415321.2114                   22415321.7664
 -29828892.26247 -23223652.78645  21480935.2194                   21480932.7154
 -47377355.84246 -36901979.43743  24406740.8754                   24406740.9574
 -22582089.59448 -17576253.30647  20639920.7034                   20639918.4224
 11  8 11  1 50  0.0000000  0  8G29G12G02G04G25G10G17G05
  13895668.92547  10840985.21044  24467176.0314                   24467176.1374
 -26412087.20048 -20561099.58246  20748290.8134                   20748288.3594
 -39314650.60548 -30613641.45946  20834451.8284                   20834447.0864
 -39817140.92446 -31009001.84044  23273164.6414                   23273163.6414
  -5452992.03347  -4233619.44745  22389564.5474                   22389564.8444
 -29837913.10147 -23230682.00045  21479218.3054                   21479216.8444
 -47374152.49046 -36899483.39643  24407350.3284                   24407349.2234
 -22697003.24548 -17665796.38246  20618053.0554                   20618051.3484
 11  8 11  1 50 30.0000000  0  8G29G12G02G04G25G10G17G05
  13746053.57947  10724401.79644  24438704.7664                   24438705.1214
 -26483947.85448 -20617094.89146  20734616.0704                   20734613.5634
 -39359836.07648 -30648850.90446  20825853.0084                   20825848.6024
 -39803499.40846 -30998372.16144  23275759.5314                   23275759.0984
  -5587900.90747  -4338743.23445  22363892.5234                   22363893.1684
 -29846424.65747 -23237314.37945  21477598.8204                   21477597.1844
 -47370771.96546 -36896849.20043  24407995.0784                   24407993.2934
 -22811385.96648 -17754925.75446  20596287.2734                   20596284.9264
 11  8 11  1 51  0.0000000  0  8G29G12G02G04G25G10G17G05
  13596362.92747  10607759.80944  24410220.0164                   24410219.5514
 -26555232.58948 -20672641.44646  20721051.0704                   20721048.0554
 -39404855.80248 -30683931.20946  20817286.0234                   20817281.2194
 -39789878.14846 -30987758.20844  23278352.0634                   23278351.7194
  -5722368.34947  -4443523.03145  22338304.1334                   22338304.5084
 -29854431.24647 -23243553.26445  21476075.1644                   21476072.9454
 -47367215.89246 -36894078.21743  24408669.3444                   24408670.1804
 -22925238.37948 -17843641.89946  20574621.6884                   20574619.1604
 11  8 11  1 51 30.0000000  0  8G29G12G02G04G25G10G17G05
  13446597.19146  10491059.29844  24381720.5704                   24381718.9844
 -26625941.87448 -20727739.58746  20707595.5394                   20707592.4104
 -39449711.10548 -30718883.38046  20808749.9774                   20808745.4574
 -39776278.51746 -30977161.09544  23280939.8834                   23280939.6294
  -5856392.47247  -4547957.39045  22312800.3674                   22312800.7584
 -29861935.38447 -23249400.62445  21474647.4064                   21474645.3364
 -47363484.99446 -36891171.07943  24409379.7584                   24409381.0004
 -23038559.17548 -17931943.79747  20553057.1564                   20553054.8404
 11  8 11  1 52  0.0000000  0  8G29G12G02G04G25G10G17G05
  13296756.96046  10374300.68243  24353206.2664                   24353206.3484
 -26696075.82648 -20782389.42546  20694249.5004                   20694246.7934
 -39494403.30648 -30753708.46646  20800245.4774                   20800240.8404
 -39762701.56446 -30966581.73344  23283523.8754                   23283523.4104
  -5989971.33647  -4652044.80045  22287381.3674                   22287381.2304
 -29868939.67647 -23254858.49845  21473314.2344                   21473312.4264
 -47359579.79746 -36888128.09043  24410123.1094                   24410121.8554
 -23151347.27448 -18019830.60747  20531593.9224                   20531592.3524
 11  8 11  1 52 30.0000000  0  8G29G12G02G04G25G10G17G05
  13146844.33446  10257485.63543  24324678.2974                   24324677.6294
 -26765632.73948 -20836589.61746  20681013.3284                   20681010.2274
 -39538932.04448 -30788406.18446  20791772.0004                   20791767.5704
 -39749146.95647 -30956019.71944  23286103.6564                   23286102.0744
  -6123101.35347  -4755782.47245  22262046.9454                   22262047.6764
 -29875445.10748 -23259927.64545  21472076.5704                   21472074.0704
 -47355498.62146 -36884947.93943  24410899.9924                   24410900.1254
 -23263600.05348 -18107300.28147  20510233.3834                   20510231.5704
 11  8 11  1 53  0.0000000  0  8G29G12G02G04G25G10G17G05
  12996858.66246  10140613.71443  24296136.8984                   24296136.3244
 -26834613.08848 -20890340.54646  20667886.7194                   20667883.9574
 -39583299.06348 -30822977.88346  20783329.0084                   20783324.5634
 -39735616.32846 -30945476.38744  23288678.1094                   23288676.5634
  -6255781.12547  -4859169.30045  22236798.8594                   22236798.9844
 -29881454.86347 -23264610.56545  21470932.7194                   21470930.7424
 -47351242.79646 -36881631.65443  24411709.9614                   24411709.9144
 -23375317.06248 -18194352.47146  20488974.2034                   20488972.0554
 11  8 11  1 53 30.0000000  0  8G29G12G02G04G25G10G17G05
  12846799.27346  10023684.42543  24267582.2424                   24267580.9344
 -26903018.20448 -20943643.26146  20654869.5784                   20654867.0044
 -39627506.69748 -30857425.39246  20774916.8524                   20774912.4104
 -39722112.07446 -30934953.63943  23291247.3834                   23291246.6724
  -6388009.81648  -4962204.62545  22211636.8284                   22211637.1174
 -29886972.80348 -23268910.23445  21469882.2584                   21469880.5944
 -47346813.69646 -36878180.44843  24412552.5704                   24412552.5514
 -23486498.49348 -18280987.32747  20467817.3054                   20467815.2934
 11  8 11  1 54  0.0000000  0  7G29G12G02G04G25G10G05
  12696667.05546   9906698.25243  24239013.4774                   24239012.6804
 -26970848.79748 -20996498.27246  20641961.8984                   20641958.9534
 -39671556.49048 -30891749.90746  20766534.2344                   20766530.1294
 -39708635.47446 -30924452.39244  23293811.7424                   23293810.5744
  -6519785.68848  -5064887.11745  22186561.1174                   22186560.7304
 -29892001.38347 -23272828.59245  21468926.1174                   21468924.0164
 -23597143.34548 -18367204.06546  20446762.0234                   20446759.6524
 11  8 11  1 54 30.0000000  0  7G29G12G02G04G25G10G05
  12546463.24647   9789656.32043  24210430.2974                   24210429.5044
 -27038103.77848 -21048904.75146  20629163.6884                   20629160.9494
 -39715448.85248 -30925951.75146  20758181.6254                   20758177.4384
 -39695186.64947 -30913972.84344  23296370.5784                   23296370.5664
  -6651105.98848  -5167214.61045  22161570.8754                   22161571.4694
 -29896542.51548 -23276367.13045  21468061.6174                   21468059.6214
 -23707249.91148 -18453001.36146  20425809.5234                   20425807.2934
 11  8 11  1 55  0.0000000  0  7G29G12G02G04G25G10G05
  12396193.89147   9672563.32544  24181835.5234                   24181834.8484
 -27104777.73948 -21100858.49346  20616476.1174                   20616473.4774
 -39759179.17248 -30960027.32246  20749860.2584                   20749856.1684
 -39681761.03446 -30903511.36444  23298925.9144                   23298925.9804
  -6781962.94947  -5269181.05945  22136669.7194                   22136670.1684
 -29900593.12148 -23279523.42545  21467290.8284                   21467288.5474
 -23816811.39948 -18538373.91346  20404960.2504                   20404958.1174
 11  8 11  1 55 30.0000000  0  7G29G12G02G04G25G10G05
  13821287.43147  10783025.88444  24453021.8444                   24453021.1054
 -25595445.19948 -19924755.23046  20903692.6334                   20903689.9844
 -38227323.87948 -29766373.83646  21041362.6254                   21041358.3094
 -38092936.97147 -29665466.65843  23601268.5084                   23601268.8284
  -5336927.25747  -4143179.20246  22411651.2034                   22411651.8714
 -28328732.63147 -22054697.05145  21766406.0944                   21766403.6024
 -22350400.11548 -17395715.73647  20684009.3054                   20684007.0634
 11  8 11  1 56  0.0000000  0  7G29G12G02G04G25G10G05
  13670891.56247  10665834.35044  24424402.6024                   24424401.7664
 -25660953.96848 -19975801.03946  20891226.4454                   20891224.1254
 -38270730.13648 -29800196.89446  21033102.6644                   21033098.3954
 -38079557.40047 -29655041.04743  23603815.5704                   23603814.6214
  -5466848.49047  -4244416.49945  22386927.5394                   22386928.2774
 -28331806.51747 -22057092.26145  21765821.2894                   21765818.5864
 -22458865.06448 -17480233.84247  20663369.2974                   20663367.1644
 11  8 11  1 56 30.0000000  0  7G29G12G02G04G25G10G05
  13520428.26747  10548590.25544  24395769.8134                   24395769.7664
 -25725885.62748 -20026397.15246  20878870.6024                   20878867.7384
 -38313981.35747 -29833899.13346  21024872.2734                   21024868.1024
 -38066207.71846 -29644638.67643  23606356.0704                   23606353.1724
  -5596304.02147  -4345290.90946  22362292.9844                   22362293.5124
 -28334401.25747 -22059114.11245  21765327.0234                   21765324.8164
 -22566785.24248 -17564327.45747  20642832.4774                   20642830.7774
 11  8 11  1 57  0.0000000  0  7G29G12G02G04G25G10G05
  13369895.07647  10431291.67444  24367124.6954                   24367124.3164
 -25790243.53448 -20076546.18046  20866623.5554                   20866620.9024
 -38357081.62748 -29867483.76746  21016670.5004                   21016666.0664
 -38052891.77846 -29634262.63743  23608890.1254                   23608889.0554
  -5725295.08247  -4445803.37845  22337746.6724                   22337746.7814
 -28336522.41647 -22060766.95245  21764923.4144                   21764921.4734
 -22674163.06248 -17647998.45246  20622399.1334                   20622397.1484
 11  8 11  1 57 30.0000000  0  7G29G12G02G04G25G10G05
  13219292.05946  10313938.79344  24338465.3834                   24338464.5004
 -25854028.02848 -20126248.40346  20854486.1334                   20854483.4064
 -38400032.38248 -29900951.89446  21008497.1724                   21008492.6914
 -38039611.12446 -29623914.11443  23611417.4224                   23611416.5474
  -5853820.20147  -4545952.79646  22313289.5004                   22313290.0004
 -28338173.19047 -22062053.25345  21764609.5004                   21764607.0514
 -22780998.04548 -17731246.45747  20602069.2734                   20602066.8134
 11  8 11  1 58  0.0000000  0  7G29G12G02G04G25G10G05
  13068621.45546  10196533.20444  24309793.5084                   24309793.7234
 -25917238.50648 -20175503.34146  20842457.3444                   20842455.0314
 -38442833.81648 -29934303.65746  21000352.5784                   21000348.1884
 -38026365.33046 -29613592.71444  23613938.0704                   23613937.5864
  -5981876.05747  -4645736.52546  22288921.3754                   22288921.7664
 -28339355.08747 -22062974.21445  21764384.3834                   21764382.1524
 -22887287.69348 -17814069.53447  20581842.9144                   20581840.1954
 11  8 11  1 58 30.0000000  0  7G29G12G02G04G25G10G05
  12917881.64046  10079073.74344  24281109.2034                   24281108.7854
 -25979877.04748 -20224312.60046  20830537.6884                   20830534.8244
 -38485488.58248 -29967541.13246  20992235.4924                   20992230.7814
 -38013157.46446 -29603300.90044  23616450.7974                   23616450.2034
  -6109462.73747  -4745154.69746  22264642.1564                   22264642.7234
 -28340072.54447 -22063533.25945  21764248.1414                   21764245.5234
 -22993033.34548 -17896468.73047  20561720.2034                   20561717.6134
 11  8 11  1 59  0.0000000  0  7G29G12G02G04G25G10G05
  12767075.13946   9961562.27043  24252411.2194                   24252409.9964
 -26041941.73448 -20272674.70846  20818727.2344                   20818724.4414
 -38527995.94648 -30000663.76146  20984146.3914                   20984142.3484
 -37999986.20547 -29593037.58443  23618957.6804                   23618956.3594
  -6236576.37647  -4844204.24246  22240453.7894                   22240453.9804
 -28340326.09147 -22063730.81645  21764200.0864                   21764197.3554
 -23098232.06248 -17978441.72747  20541701.7114                   20541699.5004
 11  8 11  1 59 30.0000000  0  7G29G12G02G04G25G10G05
  12616201.96646   9843998.86944  24223701.1024                   24223699.8984
 -26103434.10248 -20320590.85346  20807025.8594                   20807023.2384
 -38570357.92948 -30033673.09846  20976085.2814                   20976080.9494
 -37986853.55947 -29582804.38443  23621456.8834                   23621455.3914
  -6363216.07748  -4942884.49246  22216354.2974                   22216354.6604
 -28340119.63847 -22063569.92045  21764238.8984                   21764236.4064
 -23202883.95048 -18059988.61847  20521787.3364                   20521784.8014
 11  8 11  2  0  0.0000000  0  7G29G12G02G04G25G10G05
  12465262.62846   9726383.86443  24194978.1724                   24194977.5004
 -26164354.25048 -20368061.10746  20795433.0234                   20795430.7304
 -38612575.38648 -30066569.82846  20968051.9064                   20968047.2194
 -37973760.25447 -29572601.82843  23623947.8444                   23623946.5434
  -6489380.02348  -5041194.02946  22192345.8054                   22192346.8054
 -28339455.57947 -22063052.48645  21764365.2734                   21764363.8204
 -23306988.02848 -18141108.64746  20501976.5314                   20501974.5474
 11  8 11  2  0 30.0000000  0  7G29G12G02G04G25G10G05
  12314257.99346   9608717.94344  24166243.5784                   24166242.5354
 -26224702.61748 -20415085.82246  20783949.2734                   20783946.5164
 -38654649.13948 -30099354.58146  20960045.5784                   20960041.3754
 -37960707.23647 -29562430.65844  23626431.8364                   23626430.7344
  -6615065.96048  -5139131.08146  22168429.2664                   22168429.3444
 -28338336.17647 -22062180.19345  21764578.3204                   21764575.9734
 -23410543.11248 -18221800.88547  20482270.9844                   20482268.4144
 11  8 11  2  1  0.0000000  0  7G29G12G02G04G25G10G05
  12163183.73447   9490997.79243  24137494.4694                   24137492.6454
 -26284484.47548 -20461669.09346  20772572.4844                   20772569.8914
 -38696585.44347 -30132032.22846  20952065.5394                   20952060.6174
 -37947700.19147 -29552295.27343  23628906.9614                   23628906.2114
  -6740277.19048  -5236698.24846  22144602.6024                   22144602.5044
 -28336769.54947 -22060959.43945  21764877.0704                   21764874.0744
 -23513553.75847 -18302068.88847  20462668.4304                   20462666.0204
 11  8 11  2  1 30.0000000  0  7G29G12G02G04G25G10G05
  12012043.33047   9373226.07243  24108733.1564                   24108730.4534
 -26343697.18948 -20507808.87646  20761305.2194                   20761302.7114
 -38738382.51148 -30164601.39246  20944111.4144                   20944107.3754
 -37934737.34447 -29542194.36544  23631373.4844                   23631373.4534
  -6865009.00847  -5333891.84445  22120866.2974                   22120866.0864
 -28334755.57847 -22059390.09945  21765259.3914                   21765257.7074
 -23616016.15148 -18381909.67947  20443170.2424                   20443168.0784
 11  8 11  2  2  0.0000000  0  7G29G12G02G04G25G10G05
  11860838.89447   9255404.38144  24079960.0234                   24079958.0044
 -26402340.13248 -20553504.66846  20750145.5314                   20750143.8954
 -38780040.18448 -30197061.93746  20936184.4614                   20936179.6134
 -37921818.21047 -29532127.54843  23633833.2034                   23633831.6914
  -6989258.40047  -5430709.53946  22097222.5314                   22097222.2464
 -28332295.94147 -22057473.50745  21765728.0784                   21765725.8714
 -23717928.45948 -18461321.84447  20423777.3594                   20423774.9414
 11  8 11  2  2 30.0000000  0  7G29G12G02G04G25G10G05
  11709572.46947   9137534.44244  24051175.1414                   24051174.9614
 -26460412.28048 -20598755.69346  20739094.9304                   20739092.5084
 -38821558.06948 -30229413.55046  20928283.5004                   20928279.6054
 -37908941.97247 -29522094.14743  23636283.0784                   23636281.9844
  -7113022.17647  -5527148.82546  22073670.9454                   22073671.2194
 -28329391.32647 -22055210.17545  21766280.8364                   21766278.8554
 -23819288.61248 -18540303.74647  20404488.7274                   20404486.6454
 11  8 11  2  3  0.0000000  0  7G29G12G02G04G25G10G05
  11558245.17147   9019617.04344  24022378.3754                   24022378.5204
 -26517914.23348 -20643562.41446  20728152.6484                   20728150.0124
 -38862937.08948 -30261656.95746  20920409.8364                   20920405.5864
 -37896109.55847 -29512094.85843  23638724.8054                   23638723.4414
  -7236298.29748  -5623208.12946  22050212.8674                   22050212.7774
 -28326044.28047 -22052602.10345  21766917.0634                   21766915.2154
 -23920095.59147 -18618854.61647  20385305.7424                   20385303.3134
 11  8 11  2  3 30.0000000  0  7G29G12G02G04G25G10G05
  11406856.41246   8901651.77544  23993570.1884                   23993568.7584
 -26574847.21248 -20687925.77046  20717318.7584                   20717315.8714
 -38904178.77448 -30293793.35846  20912561.8284                   20912556.9534
 -37883322.83546 -29502131.20043  23641156.4224                   23641157.2234
  -7359086.19048  -5718886.99246  22026846.5004                   22026846.6174
 -28322258.87447 -22049652.42345  21767637.3444                   21767635.6294
 -24020350.01248 -18696974.91747  20366228.3134                   20366225.7504
 11  8 11  2  4  0.0000000  0  7G29G12G02G04G25G10G05
  11255406.64446   8783638.94344  23964750.4694                   23964749.8984
 -26631212.42348 -20731846.71946  20706593.0314                   20706590.3874
 -38945285.08948 -30325824.27246  20904739.4694                   20904734.7934
 -37870583.10446 -29492204.17943  23643581.7114                   23643582.3054
  -7481384.50948  -5814184.37246  22003574.1564                   22003574.4614
 -28318038.42947 -22046363.76945  21768441.2974                   21768438.7074
 -24120051.38948 -18774664.28347  20347255.6804                   20347253.1764
 11  8 11  2  4 30.0000000  0  7G29G12G02G04G25G10G05
  11103897.46646   8665579.86544  23935917.9224                   23935918.2344
 -26687009.60248 -20775325.03246  20695974.6804                   20695972.3674
 -38986256.39747 -30357749.96946  20896942.8134                   20896938.9534
 -37857890.35647 -29482313.71444  23645997.3524                   23645996.8484
  -7603190.63848  -5909098.23646  21980395.3754                   21980395.4264
 -28313384.65247 -22042737.44545  21769326.3134                   21769324.2734
 -24219198.09748 -18851921.43747  20328388.7114                   20328386.1374
 11  8 11  2  5  0.0000000  0  7G29G12G02G04G25G10G05
  10952330.99946   8547476.16644  23907075.8914                   23907076.1914
 -26742237.71048 -20818359.93546  20685465.6254                   20685462.8984
 -39027091.80848 -30389569.79146  20889172.0634                   20889167.8524
 -37845243.64347 -29472459.19044  23648405.0634                   23648404.1804
  -7724501.34247  -6003626.06446  21957310.1254                   21957310.4104
 -28308299.00847 -22038774.59645  21770294.2734                   21770291.9224
 -24317788.19548 -18928744.88347  20309627.3524                   20309624.6054
 11  8 11  2  5 30.0000000  0  7G29G12G02G04G25G10G05
  10800706.85446   8429327.50044  23878223.6724                   23878222.7074
 -26796898.84148 -20860953.02246  20675063.5944                   20675061.2344
 -39067793.57948 -30421285.47646  20881426.5004                   20881422.6374
 -37832645.43147 -29462642.41444  23650801.3914                   23650800.9534
  -7845316.47548  -6097767.72246  21934319.8754                   21934320.4264
 -28302785.89947 -22034478.68545  21771343.3054                   21771341.2774
 -24415822.70348 -19005135.39047  20290972.0634                   20290969.5164
 11  8 11  2  6  0.0000000  0  7G29G12G02G04G25G10G05
  10649026.65546   8311135.18344  23849358.6804                   23849358.1484
 -26850992.39848 -20903103.85246  20664770.1484                   20664766.8404
 -39108361.78848 -30452897.09046  20873706.8524                   20873702.7034
 -37820095.24847 -29452863.08643  23653190.4534                   23653188.5434
  -7965633.17048  -6191520.99346  21911424.4614                   21911424.6994
 -28296846.57247 -22029850.65145  21772473.6174                   21772471.6604
 -24513299.78548 -19081091.52947  20272422.8594                   20272420.9104
 11  8 11  2  6 30.0000000  0  7G29G12G02G04G25G10G05
  10497293.61646   8192901.68844  23820486.0784                   23820485.1644
 -26904517.02848 -20944811.36646  20654585.0944                   20654582.2034
 -39148795.27048 -30484403.71046  20866012.6804                   20866008.2624
 -37807591.64347 -29443120.03844  23655568.8594                   23655568.6334
  -8085447.43548  -6284882.75346  21888624.3914                   21888625.3554
 -28290481.82247 -22024891.10445  21773684.8984                   21773682.5944
 -24610216.73648 -19156611.21147  20253980.5164                   20253977.8794
 11  8 11  2  7  0.0000000  0  7G29G12G02G04G25G10G05
  11920928.25846   9302227.45044  24091394.4774                   24091394.5084
 -25382056.93848 -19758478.82946  20944299.0554                   20944296.3984
 -37613678.96847 -29288209.20746  21158135.3594                   21158130.9024
 -36219721.45247 -28205818.59744  23957731.8054                   23957730.9924
  -6629339.22348  -5150252.96946  22165712.8444                   22165713.5274
 -26708280.15447 -20792006.71045  22074767.6334                   22074766.0124
 -23131155.46548 -18004095.92847  20535436.0394                   20535433.8484
 11  8 11  2  7 30.0000000  0  7G29G12G02G04G25G10G05
  11769084.92847   9183908.00444  24062499.1804                   24062499.7154
 -25434453.05648 -19799306.97546  20934328.6724                   20934325.9414
 -37653853.05548 -29319513.71046  21150490.6174                   21150486.2154
 -36207320.80347 -28196155.78443  23960091.3444                   23960089.9964
  -6748151.41248  -5242833.89346  22143103.7584                   22143104.5084
 -26701080.08647 -20786396.26545  22076137.5314                   22076135.3444
 -23226958.05548 -18078747.26147  20517205.7274                   20517203.1214
 11  8 11  2  8  0.0000000  0  7G29G12G02G04G25G10G05
  11617187.73847   9065546.59944  24033594.9454                   24033593.9884
 -25486285.97548 -19839696.27746  20924465.0004                   20924462.1994
 -37693898.69548 -29350718.12346  21142870.2974                   21142865.5234
 -36194972.78147 -28186533.92643  23962440.0394                   23962438.2034
  -6866460.07348  -5335022.44546  22120590.4614                   22120590.9384
 -26693466.69047 -20780463.77445  22077587.0234                   22077584.8284
 -23322202.81448 -18152963.94147  20499081.1094                   20499078.7584
 11  8 11  2  8 30.0000000  0  7G29G12G02G04G25G10G05
  11465239.62047   8947145.55244  24004680.2664                   24004679.2894
 -25537553.92248 -19879645.34146  20914709.1174                   20914706.3754
 -37733814.87948 -29381821.65246  21135274.2664                   21135269.9304
 -36182675.62747 -28176951.68943  23964780.3204                   23964779.0594
  -6984261.26848  -5426815.57046  22098173.3674                   22098174.1724
 -26685440.36847 -20774209.47645  22079114.0084                   22079112.1054
 -23416886.86148 -18226743.68747  20481063.6254                   20481060.7814
 11  8 11  2  9  0.0000000  0  7G29G12G02G04G25G10G05
  11313243.70147   8828707.18344  23975756.0234                   23975755.7424
 -25588255.61348 -19919153.14546  20905060.8674                   20905058.5204
 -37773600.13248 -29412823.14446  21127703.5314                   21127699.3094
 -36170427.94647 -28167408.03043  23967110.8674                   23967109.5044
  -7101551.34448  -5518210.42246  22075853.8914                   22075854.3524
 -26677001.92847 -20767634.06845  22080719.9534                   22080717.6884
 -23511007.73348 -18300084.59447  20463152.8834                   20463150.3404
 11  8 11  2  9 30.0000000  0  7G29G12G02G04G25G10G05
  11161197.30147   8710229.51844  23946822.5234                   23946820.8834
 -25638395.82948 -19958223.46146  20895519.3364                   20895516.8094
 -37813259.14048 -29443726.27246  21120156.5084                   21120151.9064
 -36158234.15447 -28157906.28943  23969431.2114                   23969430.9844
  -7218332.29248  -5609208.54446  22053631.5084                   22053631.7074
 -26668157.76647 -20760742.53745  22082402.8984                   22082401.6294
 -23604568.59348 -18372989.13247  20445348.2424                   20445346.1024
 11  8 11  2 10  0.0000000  0  7G29G12G02G04G25G10G05
  11009100.53746   8591712.56944  23917878.9454                   23917877.8204
 -25687975.96648 -19996857.33146  20886084.9384                   20886082.1054
 -37852793.77948 -29474532.48246  21112633.4614                   21112629.1374
 -36146095.79346 -28148447.88243  23971741.2974                   23971740.8984
  -7334603.61448  -5699809.56246  22031505.4384                   22031505.6334
 -26658911.74547 -20753537.86345  22084162.5234                   22084160.0944
 -23697569.93948 -18445457.67847  20427650.9224                   20427648.7974
 11  8 11  2 10 30.0000000  0  7G29G12G02G04G25G10G05
  10856957.89947   8473159.94744  23888927.2034                   23888925.8754
 -25736993.13448 -20035052.53246  20876756.9224                   20876754.0234
 -37892200.86848 -29505239.29846  21105134.7034                   21105130.2384
 -36134009.66746 -28139030.16543  23974040.9224                   23974040.2854
  -7450359.86048  -5790009.21346  22009477.7274                   22009478.3954
 -26649262.70847 -20746019.13545  22085998.2734                   22085996.1214
 -23790007.57348 -18517486.96247  20410060.4694                   20410058.1884
 11  8 11  2 11  0.0000000  0  7G29G12G02G04G25G10G05
  10704767.94146   8354570.38944  23859966.8594                   23859966.7304
 -25785450.73048 -20072811.68446  20867535.7894                   20867533.2464
 -37931483.85248 -29535849.40846  21097659.3134                   21097654.9494
 -36121978.93346 -28129655.56343  23976330.6484                   23976329.7584
  -7565601.99748  -5879808.26346  21987547.7974                   21987547.8714
 -26639216.08347 -20738190.64045  22087909.9534                   22087908.4614
 -23881883.68148 -18589078.68847  20392577.0084                   20392574.9264
 11  8 11  2 11 30.0000000  0  7G29G12G02G04G25G10G05
  10552531.83746   8235944.93744  23830996.7504                   23830996.1254
 -25833349.61848 -20110135.49246  20858420.9614                   20858418.0984
 -37970643.43948 -29566363.36746  21090207.5474                   21090203.5084
 -36110004.03146 -28120324.44343  23978610.0944                   23978608.6954
  -7680328.23648  -5969205.30746  21965716.2894                   21965716.4924
 -26628774.16947 -20730054.07745  22089896.9924                   22089894.9454
 -23973197.88248 -18660232.58247  20375200.5314                   20375197.8954
 11  8 11  2 12  0.0000000  0  7G29G12G02G04G25G10G05
  10400248.94246   8117282.97544  23802017.6334                   23802017.3324
 -25880691.90348 -20147025.58946  20849412.1254                   20849409.5554
 -38009682.00348 -29596783.02046  21082778.6564                   21082774.5634
 -36098086.98046 -28111038.45643  23980877.0554                   23980876.7974
  -7794538.59248  -6058200.36746  21943982.9614                   21943982.5434
 -26617941.68347 -20721613.19145  22091958.5004                   22091957.3834
 -24063951.40748 -18730949.58647  20357930.8834                   20357928.5944
 11  8 11  2 12 30.0000000  0  7G29G12G02G04G25G10G05
  10247921.42247   7998586.26044  23773031.0864                   23773030.3134
 -25927477.19848 -20183481.66946  20840509.1254                   20840506.2664
 -38048599.19048 -29627108.10246  21075373.2034                   21075369.0004
 -36086226.98846 -28101796.97843  23983134.2894                   23983132.5514
  -7908230.31748  -6146791.31046  21922347.9144                   21922347.9224
 -26606720.20847 -20712869.20145  22094094.2034                   22094092.4184
 -24154142.27748 -18801228.16047  20340767.8984                   20340765.5704
 11  8 11  2 13  0.0000000  0  7G29G12G02G04G25G10G05
  10095551.29347   7879856.35444  23744036.2894                   23744036.2934
 -25973705.72548 -20219503.89146  20831712.1884                   20831709.8244
 -38087394.94748 -29657338.56046  21067990.2814                   21067986.5984
 -36074424.07946 -28092599.87643  23985380.1414                   23985378.9924
  -8021401.13648  -6234976.34146  21900812.1334                   21900812.5704
 -26595111.61547 -20703823.56445  22096302.7034                   22096301.2934
 -24243769.74048 -18871067.71447  20323712.2114                   20323709.6454
 11  8 11  2 13 30.0000000  0  7G29G12G02G04G25G10G05
   9943140.03547   7761094.39744  23715033.0474                   23715033.0704
 -26019377.95848 -20255092.65046  20823021.0704                   20823018.2504
 -38126069.51948 -29687474.57046  21060631.2114                   21060627.0314
 -36062678.32146 -28083447.28943  23987614.4144                   23987614.7234
  -8134049.28448  -6322754.10646  21879376.0084                   21879376.2234
 -26583118.40847 -20694478.22645  22098585.3054                   22098583.3284
 -24332833.07148 -18940467.68347  20306764.0704                   20306761.4224
 11  8 11  2 14  0.0000000  0  7G29G12G02G04G25G10G05
   9790687.00647   7642299.87544  23686022.5394                   23686021.9064
 -26064496.48748 -20290249.93746  20814435.2274                   20814432.2504
 -38164625.26748 -29717517.99346  21053294.1484                   21053289.6804
 -36050991.92046 -28074341.03743  23989838.8364                   23989838.2504
  -8246174.76348  -6410124.57946  21858039.0864                   21858040.0944
 -26570744.91847 -20684836.56545  22100939.9534                   22100938.0044
 -24421333.49448 -19009429.02547  20289923.0554                   20289920.7194
 11  8 11  2 14 30.0000000  0  7G29G12G02G04G25G10G05
   9638194.55347   7523474.62244  23657004.4844                   23657002.9224
 -26109061.40948 -20324975.84746  20805954.6954                   20805952.1054
 -38203061.89148 -29747468.59946  21045979.4844                   21045975.6564
 -36039364.04946 -28065280.42943  23992052.5004                   23992050.8324
  -8357775.01848  -6497085.79346  21836802.4224                   21836803.0664
 -26557993.07647 -20674900.08745  22103366.6254                   22103364.5474
 -24509269.84948 -19077950.84047  20273189.3834                   20273187.0354
 11  8 11  2 15  0.0000000  0  7G29G12G02G04G25G10G05
   9485663.70447   7404619.45444  23627978.3834                   23627977.3134
 -26153073.50848 -20359270.98846  20797579.7974                   20797577.0084
 -38241380.37848 -29777327.13946  21038688.2424                   21038683.3284
 -36027795.33045 -28056265.83443  23994253.0474                   23994252.2234
  -8468848.64848  -6583636.65146  21815665.3364                   21815665.7854
 -26544865.19847 -20664670.59745  22105864.5634                   22105862.6524
 -24596641.96248 -19146032.97847  20256562.8984                   20256560.5004
 11  8 11  2 15 30.0000000  0  7G29G12G02G04G25G10G05
   9333096.88846   7285736.24143  23598945.1414                   23598944.5944
 -26196532.25548 -20393134.94546  20789309.6484                   20789307.2584
 -38279579.90548 -29807092.98646  21031418.6484                   21031414.2974
 -36016284.90546 -28047296.66743  23996444.1644                   23996442.2814
  -8579392.82448  -6669774.95946  21794629.8444                   21794630.2034
 -26531362.78347 -20654149.26245  22108433.9924                   22108432.1804
 -24683447.95948 -19213673.99847  20240044.4614                   20240042.1724
 11  8 11  2 16  0.0000000  0  7G29G12G02G04G25G10G05
   9180493.45746   7166824.55144  23569905.9844                   23569904.9804
 -26239440.50748 -20426569.95046  20781144.6094                   20781141.9304
 -38317663.17548 -29836768.25346  21024171.9454                   21024167.5354
 -36004835.18746 -28038374.76443  23998621.8594                   23998620.7704
  -8689408.10548  -6755501.12846  21773694.6484                   21773694.8484
 -26517490.78647 -20643339.89545  22111073.9924                   22111071.8404
 -24769689.75348 -19280875.36147  20223632.9224                   20223630.7504
 11  8 11  2 16 30.0000000  0  7G29G12G02G04G25G10G05
   9027853.92446   7047884.75943  23540859.4694                   23540859.1174
 -26281800.06748 -20459577.40446  20773083.7114                   20773080.8914
 -38355631.21348 -29866353.70646  21016946.8674                   21016942.0864
 -35993446.83446 -28029500.70844  24000790.3914                   24000789.1724
  -8798893.42348  -6840814.35446  21752859.9064                   21752860.3914
 -26503252.18647 -20632244.92045  22113783.7424                   22113781.5394
 -24855367.56948 -19347637.28147  20207329.0234                   20207326.8134
 11  8 11  2 17  0.0000000  0  7G29G12G02G04G25G10G05
   8875180.28447   6928918.37544  23511806.2504                   23511806.4414
 -26323611.40148 -20492157.66046  20765127.6414                   20765124.8204
 -38393484.30848 -29895849.60246  21009743.6334                   21009739.0744
 -35982119.97346 -28020674.62643  24002944.8134                   24002944.3404
  -8907846.85148  -6925713.11846  21732127.1564                   21732127.3324
 -26488649.30747 -20620866.06745  22116562.3444                   22116560.0164
 -24940480.76748 -19413959.23647  20191132.9534                   20191129.6134
 11  8 11  2 17 30.0000000  0  7G29G12G02G04G25G10G05
   8722474.26647   6809926.67544  23482748.2274                   23482747.2234
 -26364874.42448 -20524310.68046  20757275.2274                   20757272.0784
 -38431222.16848 -29925255.70046  21002562.1644                   21002557.5164
 -35970854.37546 -28011896.26744  24005088.9454                   24005088.0744
  -9016266.39747  -7010195.87846  21711495.3284                   21711495.7664
 -26473684.80647 -20609205.45345  22119409.7504                   22119408.2194
 -25025028.52948 -19479840.58847  20175043.4454                   20175040.9574
 11  8 11  2 18  0.0000000  0  7G29G12G02G04G25G10G05
   8569736.25147   6690910.09644  23453682.7814                   23453682.0904
 -26405591.72248 -20556038.45446  20749527.1484                   20749524.5004
 -38468846.45248 -29954573.30646  20995402.5784                   20995397.8284
 -35959651.02246 -28003166.34844  24007221.2584                   24007220.1414
  -9124151.57548  -7094262.23946  21690965.5474                   21690966.0594
 -26458361.86647 -20597265.48745  22122325.8594                   22122323.3914
 -25109011.58548 -19545281.91747  20159062.1564                   20159059.6684
 11  8 11  2 18 30.0000000  0  7G29G12G02G04G25G10G05
   9992394.21347   7799474.80445  23724405.8754                   23724404.8014
 -24870341.19948 -19359739.34546  21041675.3834                   21041673.0164
 -36930935.05948 -28756200.76846  21288057.5314                   21288052.8524
 -34373089.18646 -26766884.39644  24309133.8524                   24309132.0354
  -7656075.72048  -5950307.02746  21970331.3204                   21970331.5554
 -24867262.18147 -19357447.58844  22425102.3204                   22425099.9494
 -23617005.15748 -18382679.49447  20442981.4924                   20442978.9804
 11  8 11  2 19  0.0000000  0  7G29G12G02G04G25G10G05
   9839599.16447   7680413.78645  23695329.2664                   23695329.2154
 -24909966.53848 -19390616.24346  21034135.1094                   21034132.8554
 -36968330.90848 -28785340.37546  21280941.3524                   21280936.8364
 -34362008.28146 -26758249.88144  24311241.6414                   24311241.5784
  -7762884.61548  -6033534.73546  21950006.3594                   21950006.2774
 -24851227.23347 -19344952.84045  22428153.2584                   22428151.2974
 -23699855.02148 -18447237.80747  20427215.5864                   20427213.3364
 11  8 11  2 19 30.0000000  0  7G29G12G02G04G25G10G05
   9686776.71247   7561331.45545  23666248.5394                   23666248.7154
 -24949048.04847 -19421069.36746  21026698.1024                   21026695.5434
 -37005614.17148 -28814392.24746  21273846.1024                   21273842.1334
 -34350989.86446 -26749664.10744  24313338.6484                   24313338.8404
  -7869154.28148  -6116342.26646  21929783.6724                   21929783.9574
 -24834841.25747 -19332184.59245  22431271.6804                   22431269.1254
 -23782139.14248 -18511355.28547  20411557.3674                   20411554.8524
 11  8 11  2 20  0.0000000  0  7G29G12G02G04G25G10G05
   9533928.13647   7442228.74845  23637163.3524                   23637161.7894
 -24987587.42647 -19451100.05346  21019364.3674                   21019361.7814
 -37042785.76847 -28843357.10146  21266773.1644                   21266768.6334
 -34340034.75146 -26741127.69843  24315422.9534                   24315422.6844
  -7974883.44947  -6198728.62746  21909664.3134                   21909664.0314
 -24818107.29247 -19319145.15544  22434456.2114                   22434453.7344
 -23863857.38648 -18575031.82247  20396007.1954                   20396004.1914
 11  8 11  2 20 30.0000000  0  7G29G12G02G04G25G10G05
   9381053.88447   7323106.01944  23608071.2114                   23608070.5004
 -25025586.58248 -19480709.79746  21012133.0234                   21012130.8524
 -37079847.11848 -28872236.04346  21259720.5314                   21259716.1174
 -34329143.58746 -26732641.11343  24317495.6174                   24317495.6644
  -8080071.62348  -6280693.44546  21889647.6804                   21889647.9184
 -24801028.77747 -19305837.22945  22437705.3754                   22437703.3444
 -23945010.55148 -18638268.03547  20380564.0634                   20380561.0234
 11  8 11  2 21  0.0000000  0  7G29G12G02G04G25G10G05
   9228155.15147   7203964.23144  23578976.0944                   23578975.1804
 -25063046.55648 -19509899.39746  21005004.9774                   21005002.3914
 -37116798.46648 -28901029.27146  21252688.5784                   21252684.2464
 -34318316.88246 -26724204.65643  24319555.7424                   24319555.0204
  -8184717.50648  -6362235.69546  21869734.2734                   21869734.1914
 -24783608.65147 -19292263.10244  22441020.4844                   22441019.0004
 -24025598.75648 -18701064.01747  20365228.7814                   20365226.5274
 11  8 11  2 21 30.0000000  0  7G29G12G02G04G25G10G05
   9075233.86547   7084804.87544  23549875.3284                   23549875.0004
 -25099967.74848 -19538669.15946  20997978.4454                   20997976.6604
 -37153640.03448 -28929736.95946  21245678.0004                   21245673.5594
 -34307554.26646 -26715818.25343  24321604.0784                   24321603.3054
  -8288819.39248  -6443354.04146  21849923.8984                   21849924.2344
 -24765849.12447 -19278424.55344  22444400.5704                   22444398.5164
 -24105621.30348 -18763419.24147  20350000.7194                   20349997.7234
 11  8 11  2 22  0.0000000  0  7G29G12G02G04G25G10G05
   8922290.56947   6965628.34844  23520770.7034                   23520769.4614
 -25136352.65048 -19567021.03946  20991055.2274                   20991052.3444
 -37190373.09248 -28958360.08946  21238687.8444                   21238683.5784
 -34296857.07546 -26707482.79243  24323640.3674                   24323638.0594
  -8392376.85347  -6524048.17546  21830217.8524                   21830218.3364
 -24747753.75447 -19264324.28545  22447843.9614                   22447841.4694
 -24185079.22548 -18825334.49047  20334880.6254                   20334877.3094
 11  8 11  2 22 30.0000000  0  7G29G12G02G04G25G10G05
   8769326.95547   6846435.99744  23491662.8674                   23491662.6214
 -25172202.04647 -19594955.63346  20984233.4614                   20984230.7154
 -37226997.77347 -28986898.76446  21231718.3674                   21231714.0824
 -34286224.96846 -26699197.93443  24325662.7734                   24325661.7704
  -8495388.14847  -6604316.71446  21810615.2274                   21810615.7114
 -24729324.50447 -19249963.85445  22451351.1024                   22451349.3954
 -24263972.08848 -18886809.43247  20319867.5234                   20319865.1764
 11  8 11  2 23  0.0000000  0  7G29G12G02G04G25G10G05
   8616344.15547   6727228.71044  23462551.0554                   23462550.0314
 -25207517.40447 -19622474.09746  20977512.6724                   20977510.1094
 -37263514.96047 -29015353.69246  21224769.2664                   21224764.6134
 -34275658.50346 -26690964.33243  24327674.6094                   24327673.0084
  -8597852.46148  -6684159.03546  21791117.0784                   21791117.2934
 -24710564.90946 -19235345.99444  22454920.8594                   22454919.4614
 -24342300.31448 -18947844.39747  20304962.2344                   20304959.8014
 11  8 11  2 23 30.0000000  0  8G29G12G02G04G25G26G10G05
   8463341.75347   6608006.09244  23433436.2734                   23433435.3244
 -25242301.81848 -19649578.83346  20970893.7424                   20970891.3834
 -37299926.78948 -29043726.50946  21217840.4304                   21217836.0394
 -34265159.67446 -26682783.45243  24329671.7664                   24329669.7974
  -8699770.38247  -6763575.58746  21771722.6954                   21771722.1914
  20245475.82955  15795997.33652  24818200.4454                   24818200.4534
 -24691479.13347 -19220474.00045  22458552.8674                   22458550.4574
 -24420065.56148 -19008440.67747  20290164.1024                   20290161.2464
 11  8 11  2 24  0.0000000  0  8G29G12G02G04G25G26G10G05
   8310318.99247   6488767.63944  23404317.1644                   23404315.5554
 -25276559.11348 -19676272.82946  20964374.7424                   20964372.7114
 -37336236.26548 -29072019.58846  21210930.6804                   21210926.3554
 -34254731.28546 -26674657.41643  24331656.2814                   24331655.2544
  -8801143.32447  -6842567.47946  21752432.1644                   21752431.7974
  20082135.29946  15668719.12043  24787118.6414                   24787118.0514
 -24672072.68446 -19205352.12544  22462245.6644                   22462243.3674
 -24497270.85648 -19068600.62947  20275472.2034                   20275469.4614
 11  8 11  2 24 30.0000000  0  8G29G12G02G04G25G26G10G05
   8157273.77247   6369511.66644  23375193.3364                   23375191.4304
 -25310293.40348 -19702559.28546  20957955.4534                   20957953.1254
 -37372447.21448 -29100235.88146  21204040.2274                   21204035.4924
 -34244376.62846 -26666588.79243  24333626.4534                   24333625.5634
  -8901973.11447  -6921136.14046  21733244.5234                   21733245.3364
  19918650.50646  15541328.46743  24756009.1804                   24756009.2074
 -24652351.41547 -19189984.90845  22465998.8914                   22465996.1294
 -24573919.22748 -19128326.60947  20260886.6094                   20260884.0004
 11  8 11  2 25  0.0000000  0  8G29G12G02G04G25G26G10G05
   8004209.70146   6250241.05344  23346065.0084                   23346065.3984
 -25343503.75548 -19728437.47946  20951635.6484                   20951633.6374
 -37408558.00648 -29128374.13446  21197168.1724                   21197164.0664
 -34234093.86046 -26658576.28142  24335582.8134                   24335582.0204
  -9002256.63548  -6999279.12846  21714160.8984                   21714161.4144
  19755026.39447  15413829.27143  24724872.1804                   24724871.6954
 -24632315.96247 -19174372.87744  22469810.8284                   22469809.0984
 -24650008.58448 -19187616.99247  20246407.1484                   20246404.3594
 11  8 11  2 25 30.0000000  0  8G29G12G02G04G25G26G10G05
   7851130.66447   6130958.71244  23316935.6804                   23316934.4964
 -25376189.67948 -19753907.02646  20945415.4694                   20945413.6174
 -37444566.54948 -29156432.70146  21190316.0634                   21190311.7894
 -34223880.47846 -26650617.90643  24337525.5554                   24337526.4264
  -9101990.13748  -7076993.53546  21695182.0394                   21695182.9144
  19591268.69346  15286226.04843  24693709.9774                   24693708.2194
 -24611966.49147 -19158516.16044  22473683.2504                   22473681.5204
 -24725536.53048 -19246469.92947  20232034.8204                   20232032.0904
 11  8 11  2 26  0.0000000  0  8G29G12G02G04G25G26G10G05
   7698040.37947   6011667.60444  23287803.5944                   23287802.5904
 -25408350.41048 -19778967.33946  20939295.5314                   20939292.9774
 -37480471.35447 -29184410.45546  21183483.7584                   21183478.9614
 -34213734.54446 -26642711.94043  24339457.6724                   24339457.1564
  -9201170.53048  -7154276.94746  21676309.1564                   21676309.4494
  19427382.12246  15158522.37043  24662522.5704                   24662522.2384
 -24591303.87747 -19142415.44344  22477615.3364                   22477614.2504
 -24800501.33248 -19304884.03847  20217769.5164                   20217766.8364
 11  8 11  2 26 30.0000000  0  8G29G12G02G04G25G26G10G05
   7544942.25547   5892370.39844  23258669.9844                   23258668.7894
 -25439985.00248 -19803617.67746  20933275.9774                   20933273.2774
 -37516270.48647 -29212305.85146  21176671.0864                   21176667.1914
 -34203654.38746 -26634857.25743  24341375.5234                   24341375.6844
  -9299794.79148  -7231126.99646  21657541.8984                   21657542.0634
  19263372.07747  15030722.38144  24631312.8364                   24631312.7074
 -24570328.64346 -19126071.11044  22481606.5394                   22481604.0204
 -24874901.28948 -19362858.00147  20203611.6724                   20203609.0314
 11  8 11  2 27  0.0000000  0  8G29G12G02G04G25G26G10G05
   7391840.35147   5773070.22244  23229535.3444                   23229535.2424
 -25471092.36748 -19827857.18346  20927356.5944                   20927353.6254
 -37551961.99248 -29240117.39546  21169879.3284                   21169874.5004
 -34193637.80646 -26627052.18443  24343281.4384                   24343280.5984
  -9397859.36748  -7307540.93546  21638880.5164                   21638881.1804
  19099243.87846  14902830.41743  24600081.1024                   24600081.3014
 -24549040.97146 -19109483.34044  22485657.5164                   22485655.7114
 -24948734.00548 -19420389.97247  20189561.9144                   20189558.9734
 11  8 11  2 27 30.0000000  0  8G29G12G02G04G25G26G10G05
   7238733.78747   5653766.41545  23200400.8284                   23200400.1724
 -25501676.17148 -19851688.72046  20921536.4224                   20921534.0004
 -37587548.81447 -29267847.36246  21163107.4924                   21163103.3134
 -34183686.91346 -26619298.26242  24345175.7584                   24345174.8874
  -9495365.53648  -7383519.73946  21620325.9614                   21620326.2504
  18934998.41546  14774846.96043  24568825.6024                   24568825.7154
 -24527445.95646 -19092656.07644  22489767.0004                   22489765.0044
 -25022002.21448 -19477482.06847  20175618.9614                   20175616.6024
 11  8 11  2 28  0.0000000  0  8G29G12G02G04G25G26G10G05
   7085624.26747   5534460.31844  23171264.6564                   23171263.4964
 -25531737.87448 -19875113.42346  20915815.6414                   20915813.1294
 -37623030.93547 -29295495.75346  21156355.2974                   21156350.8204
 -34173801.84946 -26611595.59143  24347056.0784                   24347055.9304
  -9592312.07048  -7459062.47346  21601877.4454                   21601877.7734
  18770639.07746  14646774.85243  24537547.9224                   24537548.1564
 -24505546.17246 -19075591.31644  22493934.0864                   22493933.0204
 -25094705.94048 -19534134.31247  20161784.3524                   20161781.7544
 11  8 11  2 28 30.0000000  0  8G29G12G02G04G25G26G10G05
   6932512.78347   5415152.66445  23142128.6954                   23142127.8204
 -25561279.22448 -19898132.67346  20910194.4384                   20910191.7774
 -37658409.33747 -29323063.32146  21149623.0474                   21149618.4654
 -34163983.07347 -26603944.63843  24348925.5234                   24348924.1914
  -9688698.45548  -7534168.71546  21583535.8594                   21583536.1954
  18606168.51546  14518616.04443  24506251.1414                   24506249.9774
 -24483344.61146 -19058291.41844  22498159.5864                   22498157.4614
 -25166845.83848 -19590347.20647  20148056.5004                   20148053.4964
 11  8 11  2 29  0.0000000  0  8G29G12G02G04G25G26G10G05
   6779400.54047   5295844.43544  23112992.4224                   23112991.5634
 -25590302.55548 -19920748.26246  20904671.7194                   20904668.8164
 -37693685.03647 -29350550.86846  21142910.3364                   21142905.8484
 -34154231.25847 -26596345.81643  24350780.5704                   24350780.3594
  -9784524.30248  -7608838.18346  21565300.8834                   21565301.1604
  18441589.38546  14390372.66843  24474932.6484                   24474932.1684
 -24460844.89946 -19040759.19544  22502441.0084                   22502438.8834
 -25238422.98548 -19646121.59547  20134435.8364                   20134433.4884
 11  8 11  2 29 30.0000000  0  8G29G12G02G04G25G26G10G05
   6626289.08646   5176536.82444  23083855.8914                   23083855.0784
 -25618809.26048 -19942961.28046  20899246.7584                   20899244.0474
 -37728858.44748 -29377958.70646  21136217.0784                   21136212.8634
 -34144546.64147 -26588799.32043  24352624.3914                   24352621.2304
  -9879788.75848  -7683070.20546  21547172.6094                   21547172.4224
  18276904.72346  14262047.09343  24443594.0554                   24443594.3364
 -24438049.70947 -19022996.71244  22506778.4304                   22506776.7074
 -25309437.60947 -19701457.65647  20120922.3054                   20120919.4344
 11  8 11  2 30  0.0000000  0  8G29G12G02G04G25G26G10G05
   8048605.39446   6284835.25045  23354514.2814                   23354512.7114
 -24071379.36548 -18737171.76046  21193712.9384                   21193710.4224
 -36188508.12547 -28177685.72946  21429335.7664                   21429331.2894
 -32559508.96447 -25353704.97043  24654246.2504                   24654244.8484
  -8399067.15948  -6529261.14646  21828944.6174   21828944.6134   19687543.70546
  15361246.41343                  24712029.3594                   24712029.1334
 -22839541.85347 -17777406.20144  22810964.3674                   22810962.5944
 -23804467.29747 -18528753.50547  20407308.4064                   20407305.8014
 11  8 11  2 30 30.0000000  0  8G29G12G02G04G25G26G10G05
   7895499.17246   6165531.75645  23325378.3594                   23325377.9534
 -24098858.28348 -18758583.91046  21188484.0944                   21188481.4224
 -36223478.80747 -28204935.61146  21422681.3364                   21422676.4804
 -32549959.66846 -25346264.00643  24656064.1564                   24656062.6804
  -8493206.95148  -6602616.79846  21811030.0004   21811029.8364   19522656.51546
  15232763.03843                  24680652.3594                   24680651.6374
 -22816164.57147 -17759190.17644  22815413.2114                   22815411.7464
 -23874358.81648 -18583214.42147  20394008.6094                   20394005.2274
 11  8 11  2 31  0.0000000  0  8G29G12G02G04G25G26G10G05
   7742397.02347   6046231.40945  23296244.8674                   23296243.3284
 -24125826.59148 -18779598.17846  21183351.8284                   21183349.4414
 -36258349.55747 -28232107.62046  21416045.6884                   21416041.2584
 -32540479.01346 -25338876.45743  24657867.2034                   24657866.4884
  -8586783.87548  -6675533.86046  21793222.8134   21793222.9144   19357671.93546
  15104203.78743                  24649256.4144                   24649255.5124
 -22792501.04447 -17740751.04844  22819916.4384                   22819914.1564
 -23943690.38547 -18637239.00947  20380815.3524                   20380812.8984
 11  8 11  2 31 30.0000000  0  8G29G12G02G04G25G26G10G05
   7589300.81147   5926935.67445  23267111.7194                   23267111.2894
 -24152285.68848 -18800215.66746  21178316.8204                   21178314.3054
 -36293120.43247 -28259201.79646  21409429.1094                   21409424.7274
 -32531066.84846 -25331542.27243  24659658.7034                   24659657.1134
  -8679796.92648  -6748011.53546  21775523.4694   21775523.1254   19192593.55146
  14975571.34643                  24617843.1564                   24617841.8164
 -22768554.13446 -17722091.12845  22824472.6254                   22824471.6094
 -24012461.95148 -18690827.23047  20367728.7584                   20367725.7194
 11  8 11  2 32  0.0000000  0  8G29G12G02G04G25G26G10G05
   7436212.72246   5807646.30945  23237979.5474                   23237978.3014
 -24178236.21948 -18820436.86446  21173378.6174                   21173376.0084
 -36327791.65248 -28286218.33446  21402831.2194                   21402826.2194
 -32521722.65246 -25324261.00743  24661436.0704                   24661435.1454
  -8772244.91448  -6820048.89846  21757930.9534   21757931.0084   19027424.73946
  14846868.50943                  24586412.7424                   24586410.2814
 -22744325.88447 -17703212.01344  22829083.7194                   22829082.1724
 -24080674.01348 -18743979.48247  20354747.8834                   20354745.3324
 11  8 11  2 32 30.0000000  0  8G29G12G02G04G25G26G10G05
   7283133.77546   5688364.02845  23208849.8674                   23208848.2584
 -24203680.88948 -18840263.88746  21168537.0234                   21168534.1564
 -36362363.71248 -28313157.59546  21396252.3984                   21396248.1884
 -32512447.25146 -25317033.44143  24663201.7664                   24663201.0824
  -8864127.54548  -6891645.74146  21740446.5314   21740446.7424   18862168.17846
  14718097.30043                  24554965.8134                   24554964.2274
 -22719819.52047 -17684116.11944  22833746.6954                   22833745.4024
 -24148327.17248 -18796696.21847  20341873.6804                   20341871.5784
 11  8 11  2 33  0.0000000  0  8G29G12G02G04G25G26G10G05
   7130063.54746   5569088.58345  23179721.3674                   23179720.1254
 -24228622.82048 -18859699.16846  21163790.7584                   21163787.5274
 -36396838.75348 -28340021.27046  21389691.7974                   21389687.7384
 -32503242.29246 -25309860.78743  24664953.1724                   24664953.3594
  -8955445.67448  -6962802.69746  21723068.9064   21723069.0744   18696825.70947
  14589259.09743                  24523501.6484                   24523501.2584
 -22695039.50446 -17664807.03944  22838462.5944                   22838460.7464
 -24215423.86448 -18848979.34447  20329105.7734                   20329103.3364
 11  8 11  2 33 30.0000000  0  8G29G12G02G04G25G26G10G05
   6977007.83247   5449824.41345  23150596.0704                   23150594.9734
 -24253059.88848 -18878741.04646  21159140.3364                   21159137.6254
 -36431213.20347 -28366806.55746  21383150.6884                   21383146.1484
 -32494103.90946 -25302739.94043  24666692.0084                   24666692.4414
  -9046194.86148  -7033516.32346  21705800.1954   21705800.0984   18531404.08547
  14460359.23543                  24492022.9774                   24492022.0904
 -22669985.03946 -17645284.11044  22843230.8914                   22843229.0704
 -24281960.76948 -18900826.28247  20316444.3524                   20316441.5864
 11  8 11  2 34  0.0000000  0  8G29G12G02G04G25G26G10G05
   6823965.19347   5330570.47345  23121472.5084                   23121471.1564
 -24276996.91148 -18897393.26746  21154585.2424                   21154582.3954
 -36465490.32048 -28393516.00946  21376628.3594                   21376623.3714
 -32485035.13746 -25295673.41043  24668416.8284                   24668416.7304
  -9136377.37948  -7103788.39946  21688639.0084   21688638.7934   18365903.73646
  14331397.96143                  24460528.8594                   24460526.9304
 -22644661.55847 -17625551.54044  22848049.5704                   22848047.1524
 -24347941.51048 -18952239.83147  20303888.7664                   20303885.8674
 11  8 11  2 34 30.0000000  0  8G29G12G02G04G25G26G10G05
   6670936.30347   5211327.24745  23092351.9064                   23092351.6524
 -24300436.61448 -18915657.97846  21150124.5004                   21150121.9184
 -36499671.73347 -28420150.87846  21370123.5704                   21370119.2624
 -32476037.34146 -25288662.17242  24670130.3204                   24670130.2704
  -9225993.64548  -7173619.23246  21671585.6094   21671586.2114   18200326.75447
  14202377.06343                  24429020.8284                   24429020.4654
 -22619072.90646 -17605612.33744  22852918.3834                   22852916.8364
 -24413367.41848 -19003221.04447  20291438.4534                   20291435.6724
 11  8 11  2 35  0.0000000  0  8G29G12G02G04G25G26G10G05
   6517923.97747   5092096.98045  23063234.7584                   23063234.1374
 -24323379.61948 -18933535.63946  21145759.0084                   21145755.3984
 -36533756.61348 -28446710.53446  21363637.3914                   21363632.7274
 -32467109.35246 -25281705.27342  24671829.1954                   24671828.4184
  -9315041.81148  -7243007.39146  21654639.9694   21654640.3914   18034677.54547
  14073299.86643                  24397498.2194                   24397498.3674
 -22593220.74647 -17585467.82544  22857838.6804                   22857836.2234
 -24478238.20248 -19053769.68747  20279093.8444                   20279091.2034
 11  8 11  2 35 30.0000000  0  7G29G12G02G25G26G10G05
   6364929.72147   4972880.76945  23034120.9304                   23034119.4264
 -24345827.89548 -18951027.81146  21141486.7734                   21141484.5704
 -36567745.33148 -28473195.24646  21357169.7734                   21357165.5394
  -9403521.41248  -7311952.52446  21637802.8594   21637803.2304   17868959.13547
  13944168.75843                  24365963.3984                   24365963.7234
 -22567107.89746 -17565120.18744  22862807.2034                   22862805.4694
 -24542554.82648 -19103886.52547  20266855.1174                   20266852.3874
 11  8 11  2 36  0.0000000  0  7G29G12G02G25G26G10G05
   6211956.30446   4853680.79945  23005011.2034                   23005010.0474
 -24367782.02448 -18968134.93446  21137309.1644                   21137306.8874
 -36601637.26348 -28499604.53746  21350720.0704                   21350715.6294
  -9491430.85648  -7380453.37546  21621073.9614   21621075.2074   17703175.89847
  13814987.07743                  24334416.2274                   24334416.0744
 -22540735.96046 -17544570.59644  22867825.2034                   22867823.7664
 -24606316.85148 -19153571.20247  20254721.5784                   20254719.2304
 11  8 11  2 36 30.0000000  0  7G29G12G02G25G26G10G05
   6059009.23447   4734501.34245  22975905.3834                   22975904.6094
 -24389239.62048 -18984855.14246  21133225.7504                   21133223.4304
 -36635428.52747 -28525935.40146  21344289.7814                   21344285.5274
  -9578765.52948  -7448506.35946  21604455.2584   21604455.6724   17537335.33247
  13685760.77243                  24302857.8204                   24302856.5234
 -22514103.77346 -17523818.28144  22872893.3204                   22872891.8954
 -24669520.65948 -19202820.90747  20242694.3594                   20242691.2464
 11  8 11  2 37  0.0000000  0  7G29G12G02G25G26G10G05
   5906090.83846   4615344.25045  22946807.1094                   22946804.6884
 -24410202.53648 -19001189.88346  21129236.7034                   21129233.8324
 -36669118.77847 -28552187.54246  21337878.9534                   21337874.3444
  -9665524.18648  -7516110.49246  21587945.3054   21587945.4414   17371441.16647
  13556492.79843                  24271288.9454                   24271287.0704
 -22487213.33246 -17502864.66344  22878010.7504                   22878008.6334
 -24732166.57348 -19251635.88547  20230772.9614                   20230770.5394
 11  8 11  2 37 30.0000000  0  7G29G12G02G25G26G10G05
   5753199.36047   4496208.10345  22917711.8984                   22917711.1174
 -24430675.63048 -19017142.94746  21125340.9304                   21125338.7734
 -36702711.74048 -28578363.87246  21331486.4144                   21331481.8444
  -9751709.93048  -7583268.20846  21571545.1094   21571544.6334   17205493.14547
  13427182.72043                  24239709.9614                   24239708.9024
 -22460070.74846 -17481714.59544  22883175.6174                   22883174.0204
 -24794258.78348 -19300019.41247  20218957.2664                   20218954.7234
 11  8 11  2 38  0.0000000  0  7G29G12G02G25G26G10G05
   5600331.22547   4377090.16145  22888622.2194                   22888620.3364
 -24450665.93248 -19032719.81546  21121537.1644                   21121534.4344
 -36736213.00548 -28604468.75046  21325110.8284                   21325107.0274
  -9837327.29248  -7649983.01546  21555252.4064   21555251.9614   17039489.52446
  13297829.28143                  24208120.6884                   24208119.7974
 -22432683.87046 -17460374.13444  22888387.5784                   22888385.1644
 -24855803.06148 -19347975.97047  20207245.3834                   20207242.7424
 11  8 11  2 38 30.0000000  0  7G29G12G02G25G26G10G05
   5447490.16847   4257993.31045  22859537.6884                   22859535.7544
 -24470173.72648 -19047920.69246  21117825.0944                   21117822.3914
 -36769621.01548 -28630500.96446  21318753.6804                   21318749.0084
  -9922374.16048  -7716253.30346  21539068.7734   21539068.3554   16873435.50346
  13168436.56743                  24176520.1724                   24176520.7234
 -22405053.83646 -17438844.25444  22893645.1414                   22893643.8954
 -24916798.57248 -19395504.93047  20195638.8054                   20195636.1484
 11  8 11  2 39  0.0000000  0  7G29G12G02G25G26G10G05
   5294675.39647   4138916.96245  22830457.5394                   22830455.8834
 -24489203.03248 -19062748.73946  21114203.7274                   21114201.0784
 -36802938.74248 -28656462.83246  21312413.7274                   21312409.3984
 -10006852.64848  -7782080.68646  21522992.7814   21522992.6724   16707331.69446
  13039005.15243                  24144913.0634                   24144911.3674
 -22377185.87947 -17417129.01444  22898948.3674                   22898946.4344
 -24977248.70448 -19442608.90047  20184135.5004                   20184132.5824
 11  8 11  2 39 30.0000000  0  7G29G12G02G25G26G10G05
   5141886.72747   4019860.92045  22801382.6254                   22801381.8244
 -24507758.18648 -19077207.30246  21110672.7424                   21110670.3054
 -36836168.09648 -28682355.83746  21306090.0864                   21306085.5234
 -10090764.02548  -7847466.16146  21507024.9454   21507024.7664   16541179.71546
  12909536.22043                  24113294.7814                   24113293.8244
 -22349084.46946 -17395231.77344  22904295.6954                   22904294.5204
 -25037156.16648 -19489290.02847  20172735.2114                   20172732.9694
 11  8 11  2 40  0.0000000  0  7G29G12G02G25G26G10G05
   4989125.77247   3900826.46445  22772313.5784                   22772312.4024
 -24525841.05348 -19091297.84946  21107231.7344                   21107228.8484
 -36869309.20248 -28708180.06746  21299783.8674                   21299779.2274
 -10174108.14148  -7912409.62846  21491165.2114   21491165.2034   16374982.82846
  12780032.20143                  24081668.6414                   24081667.6604
 -22320752.60747 -17373155.01244  22909687.6094                   22909685.6604
 -25096521.71148 -19535548.88047  20161438.6564                   20161435.9844
 11  8 11  2 40 30.0000000  0  7G29G12G02G25G26G10G05
   4836392.37947   3781813.50045  22743249.1254                   22743248.0274
 -24543455.47448 -19105023.37946  21103879.9064                   21103877.4804
 -36902364.42548 -28733937.36546  21293493.3594                   21293488.8134
 -10256886.49148  -7976912.23046  21475412.6644   21475412.5594   16208742.57246
  12650494.37143                  24050034.3524                   24050032.5474
 -22292194.80847 -17350902.17544  22915121.8364                   22915119.4344
 -25155348.25248 -19581387.71447  20150244.3444                   20150241.4964
 11  8 11  2 41  0.0000000  0  7G29G12G02G25G26G10G05
   6259114.72647   4890428.36445  23013983.8754                   23013982.7114
 -22985181.11748 -17890783.62446  21400409.6174                   21400406.9694
 -35359911.42547 -27532025.94146  21587012.3054                   21587007.6724
  -8763674.56848  -6813370.47346  21759561.6804   21759561.7814   17617889.30446
  13748530.87343                  24318185.9144                   24318184.3444
 -20687993.39547 -16100875.08744  23220391.1724                   23220390.0124
 -23638213.07948 -18399204.44847  20438944.9844                   20438942.6954
 11  8 11  2 41 30.0000000  0  7G29G12G02G25G26G10G05
   6106445.24347   4771465.20145  22984931.9774                   22984930.8754
 -23001860.85848 -17903780.83046  21397235.5394                   21397232.6914
 -35392792.38948 -27557647.46546  21580755.7274                   21580751.0354
  -8845317.09248  -6876988.01846  21744025.7504   21744025.3244   17451575.37246
  13618935.70243                  24286537.1254                   24286537.0784
 -20658988.61047 -16078273.98444  23225910.3524                   23225908.3834
 -23695960.98348 -18444202.79747  20427956.4304                   20427953.7974
 11  8 11  2 42  0.0000000  0  7G29G12G02G25G26G10G05
   5953811.59147   4652529.91745  22955887.2504                   22955885.8404
 -23018075.27448 -17916415.44146  21394150.2584                   21394147.5124
 -35425585.25448 -27583200.34746  21574515.1254                   21574510.5124
  -8926390.12548  -6940161.82546  21728597.9924   21728597.9414   17285231.22246
  13489316.94543                  24254882.8054                   24254882.6054
 -20629763.26747 -16055500.97744  23231471.9614                   23231469.6414
 -23753169.73648 -18488781.01847  20417069.6484                   20417067.0554
 11  8 11  2 42 30.0000000  0  7G29G12G02G25G26G10G05
   5801213.33647   4533622.23645  22926848.4534                   22926846.5984
 -23033828.80848 -17928690.93246  21391152.5314                   21391150.2304
 -35458292.51648 -27608686.52646  21568291.5554                   21568286.7464
  -9006895.63348  -7002893.38446  21713278.4774   21713277.9574   17118857.73346
  13359675.28343                  24223222.3524                   24223221.3674
 -20600321.94846 -16032559.68443  23237073.4924                   23237071.3524
 -23809842.37848 -18532941.49947  20406285.2424                   20406282.4884
 11  8 11  2 43  0.0000000  0  7G29G12G02G25G26G10G05
   5648651.76247   4414743.13945  22897817.0164                   22897815.1994
 -23049123.80248 -17940609.11446  21388242.0634                   21388239.2894
 -35490914.98348 -27634106.62146  21562083.5314                   21562078.8914
  -9086833.91648  -7065182.96746  21698066.6254   21698066.0944   16952457.73946
  13230012.97743                  24191558.6174                   24191557.3444
 -20570667.86147 -16009452.62644  23242718.0234                   23242714.8984
 -23865980.61548 -18576685.56047  20395602.2814                   20395599.8794
 11  8 11  2 43 30.0000000  0  7G29G12G02G25G26G10G05
   5496129.54147   4295894.70045  22868792.8754                   22868791.0164
 -23063961.70248 -17952171.12246  21385418.2424                   21385415.9614
 -35523451.90048 -27659460.08346  21555892.6024                   21555887.3754
  -9166204.05548  -7127029.83546  21682962.8914   21682962.4534   16786035.70546
  13100333.56143                  24159888.5784                   24159887.1054
 -20540803.15147 -15986181.37043  23248400.5864                   23248398.3594
 -23921584.85048 -18620013.49947  20385021.1414                   20385018.4224
 11  8 11  2 44  0.0000000  0  7G29G12G02G25G26G10G05
   5343651.38647   4177080.59845  22839776.7504                   22839775.8554
 -23078341.26748 -17963375.99546  21382682.0944                   21382679.7234
 -35555900.30448 -27684744.54846  21549717.3674                   21549712.7894
  -9245002.57948  -7188431.28446  21667967.9224   21667967.8364   16619597.98546
  12970641.85444                  24128217.4534                   24128216.1954
 -20510727.30646 -15962745.65144  23254123.3914                   23254121.5164
 -23976652.70348 -18662923.48947  20374542.1484                   20374539.5904
 11  8 11  2 44 30.0000000  0  7G29G12G02G25G26G10G05
   5191215.21947   4058299.19745  22810769.6484                   22810768.4384
 -23092268.67647 -17974228.54246  21380031.4774                   21380029.3834
 -35588264.36648 -27709963.31646  21543558.5554                   21543554.0314
  -9323233.38348  -7249390.34446  21653081.1334   21653081.2854   16453144.16546
  12840937.70343                  24096541.7894                   24096541.3714
 -20480446.99547 -15939150.55044  23259885.7894                   23259883.2424
 -24031189.16348 -18705419.39547  20364164.3364                   20364161.9734
 11  8 11  2 45  0.0000000  0  7G29G12G02G25G26G10G05
   5038823.66847   3939552.57445  22781770.0314                   22781768.6724
 -23105745.31748 -17984729.82846  21377467.1884                   21377465.0944
 -35620543.78648 -27735116.11946  21537416.1024                   21537411.7274
  -9400895.75348  -7309906.47346  21638302.7114   21638302.5704   16286678.15046
  12711223.94043                  24064864.5704                   24064862.4024
 -20449964.27347 -15915397.76244  23265686.2894                   23265684.6724
 -24085194.73648 -18747501.62947  20353887.3524                   20353885.0594
 11  8 11  2 45 30.0000000  0  7G29G12G02G25G26G10G05
   4886479.27647   3820842.70745  22752779.8444                   22752778.7774
 -23118772.37347 -17994880.78846  21374988.3754                   21374985.5944
 -35652737.95648 -27760202.48646  21531289.6644                   21531285.3834
  -9477988.70248  -7369978.89146  21623632.3754   21623632.3914   16120204.50446
  12581504.27744                  24033185.3594                   24033184.1604
 -20419280.90547 -15891488.65244  23271525.2424                   23271523.5164
 -24138669.52148 -18789170.25347  20343711.4534                   20343708.6334
 11  8 11  2 46  0.0000000  0  7G29G12G02G25G26G10G05
   4734183.83547   3702170.98445  22723798.9454                   22723797.2664
 -23131352.63447 -18004683.58746  21372593.8284                   21372591.7814
 -35684847.11048 -27785222.60146  21525179.7194                   21525175.4264
  -9554512.39648  -7429607.74046  21609070.0394   21609070.2234   15953726.36146
  12451781.10143                  24001505.0864                   24001503.3914
 -20388399.45547 -15867425.14144  23277402.0394                   23277400.1994
 -24191615.22348 -18830426.60247  20333636.0084                   20333633.3984
 11  8 11  2 46 30.0000000  0  7G29G12G02G25G26G10G05
   4581937.77147   3583537.74545  22694827.0704                   22694825.7894
 -23143489.79647 -18014141.14246  21370284.5004                   21370282.1214
 -35716873.12148 -27810177.93946  21519085.4384                   21519081.0314
  -9630468.51348  -7488794.31146  21594616.4924   21594616.0594   15787245.35246
  12322055.67943                  23969825.2344                   23969824.3674
 -20357324.70347 -15843211.08344  23283315.3674                   23283312.9024
 -24244034.43048 -18871272.69547  20323660.7504                   20323658.1374
 11  8 11  2 47  0.0000000  0  7G29G12G02G25G26G10G05
   4429743.94647   3464945.17345  22665865.8054                   22665864.3324
 -23155184.20247 -18023253.67746  21368059.4924                   21368056.3284
 -35748814.72648 -27835067.51046  21513006.9924                   21513002.6134
  -9705855.59248  -7547537.47646  21580270.4454   21580270.4384   15620766.64846
  12192332.06944                  23938145.0474                   23938144.9144
 -20326058.05547 -15818847.42044  23289264.9224                   23289263.5944
 -24295926.96448 -18911708.39047  20313786.5394                   20313783.1564
 11  8 11  2 47 30.0000000  0  7G29G12G02G25G26G10G05
   4277605.68447   3346395.90345  22636915.5234                   22636913.8954
 -23166437.07847 -18032022.17146  21365918.0164                   21365915.1414
 -35780670.83348 -27859890.44546  21506944.8834                   21506940.0164
  -9780672.65248  -7605836.46446  21566033.2424   21566033.2974   15454294.63247
  12062613.66844                  23906467.4304                   23906465.5824
 -20294600.96947 -15794335.43643  23295250.9224                   23295248.0314
 -24347292.85848 -18951733.72447  20304011.4304                   20304008.6914
 11  8 11  2 48  0.0000000  0  7G29G12G02G25G26G10G05
   4125523.22847   3227890.13145  22607975.0394                   22607973.4654
 -23177252.71747 -18040449.95446  21363860.3054                   21363857.1684
 -35812443.02748 -27884648.01446  21500898.9384                   21500894.7934
  -9854921.06848  -7663692.36246  21551903.6484   21551904.3244   15287831.43546
  11932902.12343                  23874789.6174                   23874789.4844
 -20262957.66647 -15769678.29644  23301272.2344                   23301270.6334
 -24398134.53648 -18991350.57347  20294336.6804                   20294334.4454
 11  8 11  2 48 30.0000000  0  7G29G12G02G25G26G10G05
   3973501.36247   3109431.56845  22579046.2894                   22579043.8244
 -23187629.69847 -18048535.92146  21361885.1954                   21361882.9844
 -35844128.63048 -27909338.09246  21494869.0474                   21494865.1884
  -9928597.93548  -7721102.87046  21537884.3054   21537883.9454   15121383.49346
  11803202.50343                  23843115.5704                   23843113.9654
 -20231127.39647 -15744875.47144  23307329.5394                   23307327.0784
 -24448450.72048 -19030557.96547  20284761.8204                   20284759.2934
 11  8 11  2 49  0.0000000  0  7G29G12G02G25G26G10G05
   3821541.04547   2991020.97845  22550128.8204                   22550127.5164
 -23197571.90147 -18056283.09946  21359993.2424                   21359990.3524
 -35875728.93248 -27933961.70846  21488856.0164                   21488850.9224
 -10001704.52748  -7778069.02346  21523972.3674   21523972.3164   14954953.35146
  11673516.72543                  23811444.6414                   23811444.8204
 -20199114.17047 -15719930.11443  23313421.5864                   23313419.0554
 -24498243.51748 -19069357.50847  20275286.3204                   20275283.8554
 11  8 11  2 49 30.0000000  0  7G29G12G02G25G26G10G05
   3669642.57647   2872658.58545  22521223.3674                   22521221.6374
 -23207082.96747 -18063694.33646  21358183.2344                   21358180.2974
 -35907245.43648 -27958520.01046  21482858.7734                   21482854.3984
 -10074242.58548  -7834592.17146  21510168.8754   21510168.8524   14788542.79246
  11543846.24343                  23779778.1094                   23779777.7934
 -20166922.19847 -15694845.44943  23319547.3284                   23319544.8674
 -24547515.83848 -19107751.50347  20265910.3524                   20265907.8014
 11  8 11  2 50  0.0000000  0  7G29G12G02G25G26G10G05
   3517806.67347   2754344.94745  22492330.5944                   22492328.0784
 -23216166.65847 -18070772.53646  21356454.6484                   21356452.1054
 -35938679.67348 -27983014.22646  21476876.5944                   21476872.2734
 -10146213.46548  -7890673.35746  21496473.3054   21496473.2114   14622154.27846
  11414192.92643                  23748115.0314                   23748114.3984
 -20134555.32947 -15669624.58743  23325707.0864                   23325703.9534
 -24596270.06248 -19145741.78147  20256632.5004                   20256630.0164
 11  8 11  2 50 30.0000000  0  7G29G12G02G25G26G10G05
   3366035.75847   2636081.95145  22463449.0394                   22463447.9384
 -23224824.57747 -18077518.99046  21354807.2034                   21354804.3094
 -35970031.25348 -28007444.03246  21470910.8524                   21470906.8014
 -10217616.97747  -7946312.44546  21482885.4774   21482885.6374   14455791.64346
  11284559.75843                  23716457.6804                   23716457.6604
 -20102015.76547 -15644269.06043  23331899.1804                   23331896.6454
 -24644506.94648 -19183328.92547  20247453.5314                   20247450.6684
 11  8 11  2 51  0.0000000  0  7G29G12G02G25G26G10G05
   3214333.94847   2517872.81445  22434581.4304                   22434579.4224
 -23233056.28648 -18083933.31046  21353240.3594                   21353237.7664
 -36001297.57748 -28031807.41346  21464961.3594                   21464956.8444
 -10288450.80347  -8001507.60146  21469406.1414   21469405.8484   14289461.04146
  11154951.56643                  23684806.0164                   23684805.2704
 -20069303.74847 -15618779.22344  23338123.5084                   23338121.5474
 -24692225.53348 -19220512.22947  20238373.0474                   20238370.0744
 11  8 11  2 51 30.0000000  0  7G29G12G02G25G26G10G05
   3062700.63847   2399717.06945  22405726.1804                   22405724.5984
 -23240867.77448 -18090020.20646  21351754.1724                   21351751.8554
 -36032482.06548 -28056107.00546  21459026.9844                   21459021.8794
 -10358718.24248  -8056261.43846  21456034.8914   21456034.6644   14123162.81446
  11025368.66943                  23653160.6954                   23653159.4144
 -20036424.86447 -15593159.35544  23344380.3364                   23344378.2814
 -24739430.15248 -19257295.02647  20229390.0944                   20229387.6684
 11  8 11  2 52  0.0000000  0  7G29G12G02G25G26G10G05
   4486563.38547   3509220.59845  22676678.0554                   22676677.0274
 -21672840.46448 -16868180.75046  21650139.4844                   21650137.1334
 -34488163.24248 -26852741.70346  21752900.8134                   21752896.2194
  -8852996.59647  -6882971.82846  21742564.0394   21742563.9494   15532326.69546
  12123418.48544                  23921315.9924                   23921314.3404
 -18427962.16647 -14339811.83343  23650460.7814                   23650458.5234
 -23210700.14648 -18066076.81247  20520297.9304                   20520295.0434
 11  8 11  2 52 30.0000000  0  7G29G12G02G25G26G10G05
   4335075.01747   3391177.82645  22647850.9924                   22647849.2234
 -21679815.75748 -16873616.06146  21648812.6174                   21648810.2504
 -34519181.90148 -26876912.07846  21746998.4304                   21746993.8014
  -8922129.55248  -6936841.65646  21729408.5084   21729408.4224   15366106.38046
  11993896.28543                  23889685.4774                   23889683.2934
 -18394754.66647 -14313935.89643  23656779.9924                   23656777.5984
 -23256878.69748 -18102060.07647  20511510.0634                   20511507.1954
 11  8 11  2 53  0.0000000  0  7G29G12G02G25G26G10G05
   4183660.74947   3273192.75745  22619037.4304                   22619035.6884
 -21686377.63747 -16878729.22946  21647564.2894                   21647561.6024
 -34550118.59048 -26901018.58546  21741111.0864                   21741106.5514
  -8990696.94548  -6990270.79446  21716360.7424   21716360.4804   15199929.35246
  11864407.75843                  23858061.5554                   23858060.2034
 -18361387.75947 -14287935.75343  23663129.9774                   23663126.4304
 -23302547.31848 -18137646.00747  20502820.0944                   20502817.0004
 11  8 11  2 53 30.0000000  0  7G29G12G02G25G26G10G05
   4032322.78247   3155267.16445  22590238.7894                   22590237.6334
 -21692528.30847 -16883521.96146  21646393.5004                   21646391.2624
 -34580973.68248 -26925061.48946  21735239.7034                   21735235.6214
  -9058698.99148  -7043259.38246  21703420.2034   21703419.9304   15033799.20646
  11734955.74343                  23826448.4774                   23826447.2194
 -18327864.15547 -14261813.50244  23669509.1334                   23669506.4454
 -23347707.45448 -18172835.70047  20494226.2664                   20494223.1884
 11  8 11  2 54  0.0000000  0  7G29G12G02G25G26G10G05
   3881063.53347   3037402.89645  22561455.2114                   22561453.4064
 -21698269.50247 -16887995.64746  21645301.1484                   21645298.7624
 -34611746.67048 -26949040.43246  21729384.0554                   21729379.4414
  -9126135.77548  -7095807.51846  21690587.0234   21690587.6294   14867719.92546
  11605543.42243                  23794844.8364                   23794843.2034
 -18294186.35747 -14235571.11043  23675917.4694                   23675915.1054
 -23392360.08048 -18207629.94347  20485729.0474                   20485725.8204
 11  8 11  2 54 30.0000000  0  8G29G12G02G15G25G26G10G05
   3729882.10947   2919599.24545  22532686.1804                   22532684.5354
 -21703607.04247 -16892154.78946  21644285.2194                   21644283.1804
 -34642440.43448 -26972957.65846  21723543.0314                   21723538.6024
  24964536.06656  19467444.83853  24701311.4304                   24701309.8364
  -9193010.42748  -7147917.64046  21677861.6094   21677861.7544   14701692.39346
  11476171.33943                  23763251.0784                   23763249.6024
 -18260359.67247 -14209212.68943  23682354.7584                   23682353.1214
 -23436509.31148 -18242031.91947  20477327.6414                   20477324.4964
 11  8 11  2 55  0.0000000  0  8G29G12G02G15G25G26G10G05
   3578775.68647   2801854.07445  22503930.9844                   22503929.9224
 -21708548.15647 -16896005.01846  21643345.2344                   21643343.0314
 -34673060.05148 -26996817.07946  21717716.2734                   21717711.7274
  24799940.72146  19339188.88644  24669990.1254                   24669989.3014
  -9259328.23948  -7199593.84746  21665241.5784   21665241.7774   14535715.13147
  11346838.51343                  23731666.6484                   23731664.7894
 -18226391.27447 -14182743.82844  23688818.4534                   23688816.7734
 -23480161.96048 -18276046.95547  20469020.8284                   20469017.7934
 11  8 11  2 55 30.0000000  0  8G29G12G02G15G25G26G10G05
   3427744.65747   2684167.61245  22475191.0474                   22475189.0664
 -21713096.86047 -16899549.47946  21642479.3364                   21642477.0124
 -34703607.02048 -27020619.90146  21711903.2424                   21711899.0394
  24635201.25746  19210820.65344  24638641.0474                   24638641.4774
  -9325091.34948  -7250837.83246  21652727.1254   21652727.6214   14369790.17246
  11217546.31143                  23700091.4304                   23700089.9964
 -18192285.64447 -14156168.07143  23695309.0234                   23695307.3134
 -23523320.82548 -18309677.23247  20460807.8914                   20460804.7544
 11  8 11  2 56  0.0000000  0  8G29G12G02G15G25G26G10G05
   3276795.80447   2566545.21445  22446466.4454                   22446463.7814
 -21717250.81047 -16902786.34646  21641688.5704                   21641686.8094
 -34734076.78447 -27044362.55946  21706105.3984                   21706100.4384
  24470324.57446  19082345.50744  24607265.3754                   24607266.1054
  -9390295.62348  -7301646.35846  21640319.3674   21640318.4064   14203925.82046
  11088301.43843                  23668528.6094                   23668526.8834
 -18158040.64647 -14129483.69143  23701824.6884                   23701823.9924
 -23565982.85348 -18342920.34847  20452689.5634                   20452686.8134
 11  8 11  2 56 30.0000000  0  8G29G12G02G15G25G26G10G05
   3125935.25247   2448991.63645  22417758.9694                   22417756.9414
 -21721008.50747 -16905714.43646  21640973.9064                   21640971.5354
 -34764465.02747 -27068041.70346  21700322.6094                   21700317.8554
  24305318.03246  18953769.12144  24575865.9384                   24575865.9734
  -9454937.24348  -7352016.46546  21628018.1724   21628018.2234   14038129.83546
  10959109.81143                  23636979.0164                   23636977.2304
 -18123654.25647 -14102689.08743  23708368.9694                   23708366.9924
 -23608145.42948 -18375774.29047  20444666.2194                   20444663.7774
 11  8 11  2 57  0.0000000  0  8G29G12G02G15G25G26G10G05
   2975167.01447   2331509.99045  22389068.2504                   22389066.0204
 -21724370.37647 -16908334.10246  21640334.0944                   21640331.7034
 -34794770.43148 -27091656.29246  21694555.4064                   21694551.1914
  24140185.86646  18825094.92043  24544441.6564                   24544441.5634
  -9519015.07848  -7401947.24946  21615825.2114   21615824.3204   13872407.73047
  10829975.79043                  23605442.8834                   23605441.2234
 -18089127.41747 -14075785.08343  23714938.9144                   23714937.1334
 -23649808.55248 -18408239.04947  20436737.8914                   20436734.9024
 11  8 11  2 57 30.0000000  0  8G29G12G02G15G25G26G10G05
   2824492.15947   2214101.11845  22360395.5554                   22360393.4734
 -21727340.10847 -16910648.19646  21639768.8524                   21639766.4574
 -34824993.53548 -27115206.74646  21688803.9614                   21688799.7154
  23974929.89946  18696324.18444  24512994.2034                   24512996.1994
  -9582530.49248  -7451439.79846  21603738.3754   21603738.0634   13706762.21946
  10700901.38243                  23573920.5234                   23573919.6914
 -18054463.73447 -14048774.44443  23721535.6724                   23721534.1954
 -23690973.99348 -18440316.00847  20428904.6954                   20428901.5164
 11  8 11  2 58  0.0000000  0  8G29G12G02G15G25G26G10G05
   2673912.68747   2096766.53745  22331741.3594                   22331739.9614
 -21729919.85647 -16912658.40646  21639278.4924                   21639275.7234
 -34855134.05547 -27138692.85045  21683068.9224                   21683064.0904
  23809553.30046  18567459.43443  24481524.5314                   24481525.3324
  -9645483.92048  -7500494.42146  21591758.6804   21591758.8524   13541197.18346
  10571889.69743                  23542414.7894                   23542414.5784
 -18019665.59047 -14021658.97743  23728157.1804                   23728155.3674
 -23731643.36448 -18472006.41346  20421165.1884                   20421162.5124
 11  8 11  2 58 30.0000000  0  8G29G12G02G15G25G26G10G05
   2523431.04847   1979508.19645  22303105.7664                   22303103.5904
 -21732111.46347 -16914366.17646  21638861.2814                   21638858.6644
 -34885191.93347 -27162114.55146  21677348.4844                   21677343.9104
  23644058.55046  18438502.55743  24450031.7034                   24450031.0354
  -9707875.73248  -7549111.43646  21579886.0944   21579886.1174   13375716.51946
  10442943.75843                  23510925.6804                   23510924.6054
 -17984735.32246 -13994440.67243  23734804.2194                   23734802.0164
 -23771818.12148 -18503311.39747  20413520.4224                   20413517.2584
 11  8 11  2 59  0.0000000  0  8G29G12G02G15G25G26G10G05
   2373051.18947   1862329.16645  22274489.2894                   22274486.6764
 -21733916.91147 -16915773.03046  21638517.5634                   21638515.3874
 -34915165.78647 -27185470.77546  21671644.4614                   21671640.4534
  23478449.76146  18309456.88342  24418517.1644                   24418514.5164
  -9769705.04948  -7597290.13146  21568120.1254   21568120.0084   13210325.13446
  10314067.43143                  23479452.0944                   23479451.0004
 -17949673.91746 -13967120.06643  23741476.0944                   23741473.7894
 -23811498.50648 -18534231.16647  20405969.7194                   20405966.3054
 11  8 11  2 59 30.0000000  0  8G29G12G02G15G25G26G10G05
   2222775.10647   1745230.97745  22245892.7664                   22245890.8674
 -21735338.13147 -16916880.49846  21638247.0634                   21638245.3054
 -34945055.17347 -27208761.20445  21665957.1024                   21665952.4344
  23312730.27846  18180324.94142  24386979.8524                   24386978.6804
  -9830972.24748  -7645030.82746  21556461.8444   21556461.6134   13045027.38646
  10185264.05443                  23447997.1024                   23447996.3794
 -17914483.63346 -13939699.16243  23748172.9224                   23748170.1254
 -23850685.66448 -18564766.60047  20398512.1564                   20398508.9964
 11  8 11  3  0  0.0000000  0  8G29G12G02G15G25G26G10G05
   2072603.99347   1628214.58645  22217315.8754                   22217313.7664
 -21736378.16147 -16917690.93646  21638048.8754                   21638046.9104
 -34974860.61447 -27231986.21946  21660285.5234                   21660280.8094
  23146902.05146  18051108.31642  24355425.5084                   24355423.0594
  -9891678.74048  -7692334.58646  21544909.2344   21544909.6524   12879826.02746
  10056535.78943                  23416560.6804                   23416559.2344
 -17879167.42646 -13912180.04943  23754893.0234                   23754891.5594
 -23889382.29648 -18594919.80247  20391148.6804                   20391145.3834
 11  8 11  3  0 30.0000000  0  8G29G12G02G15G25G26G10G05
   1922536.62647   1511279.05345  22188759.1804                   22188757.2974
 -21737042.80247 -16918208.87146  21637922.6884                   21637919.9024
 -35004585.58247 -27255148.51646  21654628.6564                   21654624.1954
  22980964.44646  17921806.41943  24323848.9454                   24323848.7034
  -9951828.46948  -7739204.52446  21533463.2894   21533463.2544   12714721.59446
   9927883.09843                  23385142.0864                   23385141.0004
 -17843731.09446 -13884567.32243  23761636.5554                   23761634.7504
 -23927592.95548 -18624694.31747  20383877.4534                   20383873.8834
 11  8 11  3  1  0.0000000  0  8G29G12G02G15G25G26G10G05
   1772578.31947   1394428.50745  22160222.8984                   22160220.7814
 -21737332.56847 -16918434.67146  21637867.5004                   21637865.3014
 -35034227.60247 -27278246.17346  21648988.1564                   21648983.4844
  22814922.65346  17792423.23343  24292252.3054                   24292251.7734
 -10011419.89548  -7785639.40646  21522123.0634   21522123.3524   12549720.13546
   9799310.57843                  23353743.6484                   23353742.1524
 -17808174.88046 -13856861.16943  23768402.8134                   23768400.5514
 -23965317.08148 -18654089.73346  20376698.7504                   20376695.7734
 11  8 11  3  1 30.0000000  0  8G29G12G02G15G25G26G10G05
   1622729.95347   1277663.64145  22131707.6024                   22131705.7234
 -21737250.52047 -16918370.75446  21637883.4224                   21637880.6054
 -35063787.71447 -27301280.02545  21643363.1414                   21643358.4184
  22648778.50947  17662960.38343  24260635.9774                   24260635.1954
 -10070454.57947  -7831640.47046  21510889.7344   21510889.4804   12384824.19446
   9670820.34643                  23322364.8594                   23322363.4884
 -17772502.34246 -13829064.34943  23775190.3834                   23775189.0944
 -24002557.17948 -18683107.97546  20369611.8984                   20369609.3674
 11  8 11  3  2  0.0000000  0  8G29G12G02G15G25G26G10G05
   1472994.70747   1160986.94045  22103213.6954                   22103211.3094
 -21736798.46547 -16918018.53246  21637969.6334                   21637966.8094
 -35093264.51047 -27324248.94146  21637754.0004                   21637749.7034
  22482535.94947  17533420.89944  24229001.0864                   24228999.3554
 -10128932.21147  -7877207.45546  21499761.5314   21499762.0744   12220038.88246
   9542416.25643                  23291006.8054                   23291005.6024
 -17736714.42347 -13801177.65043  23782000.9064                   23781998.8634
 -24039313.68548 -18711749.39847  20362617.4924                   20362614.9694
 11  8 11  3  2 30.0000000  0  8G29G12G02G15G25G26G10G05
   1323372.47447   1044398.30145  22074741.8524                   22074739.7974
 -21735981.37547 -16917381.85046  21638125.1094                   21638122.1024
 -35122660.36547 -27347154.78546  21632159.9384                   21632155.2894
  22316195.29747  17403804.91543  24197347.0554                   24197345.6134
 -10186855.89547  -7922342.80246  21488739.2894   21488739.2704   12055365.56246
   9414099.45743                  23259670.6884                   23259669.1914
 -17700816.23646 -13773205.06443  23788832.5004                   23788830.2584
 -24075590.68148 -18740017.17547  20355714.3594                   20355711.6454
 11  8 11  3  3  0.0000000  0  8G29G12G02G15G25G26G10G05
   1173864.96747    927899.05845  22046290.9534                   22046289.2774
 -21734802.00947 -16916462.88746  21638349.2814                   21638347.1134
 -35151975.36547 -27369997.64545  21626581.2584                   21626576.6134
  22149759.34746  17274114.69244  24165675.0164                   24165674.5274
 -10244226.69747  -7967047.32546  21477821.8984   21477822.1954   11890807.75646
   9285872.65443                  23228357.4144                   23228354.8754
 -17664810.47246 -13745148.62343  23795684.3984                   23795682.6454
 -24111390.46348 -18767913.10647  20348901.5164                   20348898.8134
 11  8 11  3  3 30.0000000  0  8G29G12G02G15G25G26G10G05
   2599899.32447   2039094.76346  22317656.4224                   22317654.5084
 -20157843.11847 -15687663.77346  21938434.3834                   21938431.9574
 -33605788.30447 -26165176.54545  21920810.9614
  21920806.6174   23558656.02347  18371956.33644  24433779.6954   24433779.0514
  -8725623.65047  -6783720.28046  21766802.0474   21766802.2894   13301794.49146
  10385342.92843                  23496856.8204                   23496856.9964
 -16053280.80646 -12489411.24343  24102348.8914                   24102346.6604
 -22571293.32848 -17567837.39547  20641972.7664                   20641969.9144
 11  8 11  3  4  0.0000000  0  8G29G12G02G15G25G26G10G05
   2450628.94547   1922780.26145  22289251.0084                   22289249.6254
 -20155945.47947 -15686185.10146  21938795.7274                   21938793.0514
 -33634940.17448 -26187892.29945  21915263.6094
  21915259.0234   23392038.28947  18242124.45044  24402073.8914   24402072.4774
  -8781890.34547  -6827564.45046  21756095.1334   21756095.2384   13137479.68946
  10257305.47543                  23465590.8284                   23465587.5394
 -16017065.86547 -12461191.78943  24109239.9694                   24109237.8594
 -22606142.61548 -17594992.67747  20635340.7114                   20635337.8164
 11  8 11  3  4 30.0000000  0  8G29G12G02G15G25G26G10G05
   2301480.67747   1806560.90445  22260868.7424                   22260867.2384
 -20153693.01947 -15684429.95046  21939224.0634                   21939222.0084
 -33664009.96647 -26210544.07245  21909731.7034
  21909727.3164   23225334.21447  18112225.33344  24370349.8594   24370349.1134
  -8837605.90548  -6870979.18046  21745492.8834   21745492.7774   12973292.41846
  10129367.37643                  23434346.0314                   23434344.1644
 -15980749.58646 -12432893.37843  24116150.6804                   24116149.0704
 -22640518.66048 -17621779.19747  20628799.1414                   20628796.6214
 11  8 11  3  5  0.0000000  0  8G29G12G02G15G25G26G10G05
   2152456.63347   1690438.31946  22232511.0234                   22232509.0514
 -20151088.34147 -15682400.34846  21939720.2274                   21939717.6254
 -33692997.97048 -26233132.12945  21904215.4224
  21904210.9494   23058546.66546  17982261.09344  24338612.1644   24338611.4384
  -8892771.46348  -6913965.33546  21734995.7974   21734995.4024   12809236.19746
  10001531.39743                  23403127.7974                   23403125.0434
 -15944334.79946 -12404518.23743  24123079.9774                   24123077.7544
 -22674423.51648 -17648198.55547  20622347.6564                   20622344.5204
 11  8 11  3  5 30.0000000  0  8G29G12G02G15G25G26G10G05
   2003558.75647   1574414.05545  22204176.8834                   22204174.1524
 -20148134.20647 -15680098.43246  21940282.5554                   21940280.1374
 -33721904.38948 -26255656.60945  21898714.7344
  21898710.2704   22891677.95946  17852233.61944  24306857.2114   24306856.3914
  -8947388.38648  -6956523.96746  21724601.8984   21724602.1134   12645314.49546
   9873800.31343                  23371934.2194                   23371931.4734
 -15907824.05246 -12376068.22143  24130027.4694                   24130025.6764
 -22707859.69248 -17674252.70747  20615984.9694                   20615982.1214
 11  8 11  3  6  0.0000000  0  8G29G12G02G15G25G26G10G05
   1854788.58047   1458489.28645  22175866.4304                   22175864.2894
 -20144833.78148 -15677526.68646  21940910.2814                   21940907.8954
 -33750729.78447 -26278117.94345  21893229.3754
  21893224.8554   22724730.35446  17722144.69044  24275088.6024   24275087.9264
  -9001458.28948  -6998656.35346  21714312.8284   21714312.8284   12481530.39646
   9746176.38043                  23340766.5164                   23340765.1214
 -15871220.77446 -12347546.21643  24136992.5394                   24136990.5664
 -22740829.26448 -17699943.28247  20609710.9614                   20609708.1334
 11  8 11  3  6 30.0000000  0  8G29G12G02G15G25G26G10G05
   1706148.85247   1342666.15346  22147580.8834                   22147578.8984
 -20141189.60548 -15674687.09246  21941603.6024                   21941601.6684
 -33779473.34748 -26300515.50945  21887759.7194
  21887755.1174   22557707.01646  17591996.77643  24243304.0944   24243303.7854
  -9054981.76248  -7040362.96346  21704127.8204   21704127.8754   12317887.92246
   9618662.84243                  23309626.8284                   23309624.6914
 -15834526.73446 -12318953.39343  24143975.6334                   24143973.6604
 -22773333.71648 -17725271.43546  20603525.5864                   20603522.9224
 11  8 11  3  7  0.0000000  0  8G29G12G02G15G25G26G10G05
   1557641.76247   1226946.37645  22119321.1094                   22119319.1134
 -20137203.52748 -15671581.08146  21942362.2974                   21942360.1884
 -33808134.46148 -26322848.83445  21882305.5394
  21882301.4574   22390611.70346  17461792.76944  24211506.5944   24211506.9844
  -9107959.08948  -7081643.98946  21694046.2974   21694046.2074   12154391.85946
   9491263.39243                  23278513.8444                   23278512.2974
 -15797743.02545 -12290290.79643  24150974.9614                   24150973.9614
 -22805374.12448 -17750237.98746  20597428.5314                   20597425.8594
 11  8 11  3  7 30.0000000  0  8G29G12G02G15G25G26G10G05
   1409268.76447   1111331.07345  22091086.3834                   22091084.4494
 -20132879.87248 -15668212.00846  21943185.0944                   21943182.2934
 -33836714.46847 -26345118.97945  21876867.1954
  21876863.1764   22223445.79246  17331533.72643  24179695.6414   24179695.9304
  -9160392.61948  -7122501.29346  21684068.5314   21684068.6844   11991044.21446
   9363979.52243                  23247430.2194                   23247428.4774
 -15760873.78745 -12261561.53643  24157990.9304                   24157989.2894
 -22836953.72448 -17774845.45247  20591419.1804                   20591416.9454
 11  8 11  3  8  0.0000000  0  8G29G12G02G15G25G26G10G05
   1261029.82247    995820.23545  22062877.6484                   22062874.7344
 -20128223.68848 -15664583.83446  21944071.1414                   21944068.1564
 -33865215.53947 -26367327.56845  21871443.3834
  21871439.2194   22056209.68346  17201220.01844  24147872.9844   24147872.0904
  -9212286.10648  -7162937.77046  21674194.0474   21674194.2734   11827846.61546
   9236812.68843                  23216373.7894                   23216373.1214
 -15723924.60345 -12232770.14142  24165022.1724                   24165019.3244
 -22868077.06348 -17799097.39547  20585496.3914                   20585493.7154
 11  8 11  3  8 30.0000000  0  8G29G12G02G15G25G26G10G05
   1112931.15947    880418.69746  22034695.5084                   22034693.8364
 -20123233.45648 -15660695.36246  21945020.7974                   21945018.3524
 -33893633.36047 -26389471.32345  21866036.0944
  21866031.2774   21888910.45046  17070857.09943  24116036.9454   24116035.3244
  -9263636.36248  -7202950.95346  21664421.9924   21664422.1334   11664806.92646
   9109768.78543                  23185348.6484                   23185347.8324
 -15686892.58146 -12203913.88243  24172069.0944                   24172065.6644
 -22898741.81348 -17822991.99647  20579661.3134                   20579658.7664
 11  8 11  3  9  0.0000000  0  8G29G12G02G15G25G26G10G05
    964972.35847    765126.13946  22006539.2664                   22006537.5594
 -20117914.40948 -15656550.65246  21946033.1174                   21946030.7774
 -33921970.55647 -26411552.25646  21860643.6804
  21860639.0274   21721548.31346  16940445.18043  24084187.2894   24084187.0744
  -9314447.09648  -7242543.73546  21654752.9064   21654753.2544   11501926.05946
   8982848.66243                  23154354.2114                   23154352.8834
 -15649783.03446 -12174997.32343  24179131.3444                   24179127.0004
 -22928952.44248 -17846532.73147  20573911.9844                   20573909.5124
 11  8 11  3  9 30.0000000  0  8G29G12G02G15G25G26G10G05
    817157.36047    649945.65646  21978411.5394                   21978409.3094
 -20112267.72848 -15652150.66946  21947108.1174                   21947104.4694
 -33950225.29947 -26433568.91445  21855266.8524
  21855262.0944   21554127.77247  16809987.74543  24052329.7664   24052327.6294
  -9364717.98648  -7281715.85746  21645187.0084   21645186.7974   11339209.73946
   8856056.78543                  23123390.8444                   23123387.8364
 -15612596.69046 -12146020.91843  24186207.7274                   24186204.0474
 -22958709.10948 -17869719.73847  20568250.0084                   20568246.9774
 11  8 11  3 10  0.0000000  0  8G29G12G02G15G25G26G10G05
    669489.15247    534879.52646  21950311.5864                   21950309.0984
 -20106295.05048 -15647496.64845  21948243.7114                   21948241.6484
 -33978396.40348 -26455520.38345  21849906.1884
  21849900.7234   21386652.50046  16679487.61443  24020460.3834   24020457.6054
  -9414449.24948  -7320467.48846  21635723.1334   21635723.1374   11176662.59946
   8729396.77243                  23092458.4534                   23092456.4694
 -15575335.01046 -12116985.84743  24193297.2274                   24193294.6484
 -22988012.85448 -17892553.81747  20562673.6174                   20562670.6524
 11  8 11  3 10 30.0000000  0  8G29G12G02G15G25G26G10G05
    521968.56947    419928.42046  21922239.2034                   21922236.8554
 -20100001.19348 -15642592.36046  21949441.2194                   21949439.3594
 -34006485.19647 -26477407.73945  21844560.3054
  21844556.5354   21219124.10346  16548946.11044  23988580.3284   23988578.4844
  -9463643.57748  -7358800.73646  21626361.8674   21626361.9454   11014286.83246
   8602870.26044                  23061558.7424                   23061556.6414
 -15538001.87946 -12087894.95243  24200401.9694                   24200399.9144
 -23016867.14548 -17915037.66347  20557182.5554                   20557179.6724
 11  8 11  3 11  0.0000000  0  8G29G12G02G15G25G26G10G05
    374599.03647    305095.05046  21894195.6724                   21894193.2114
 -20093387.62648 -15637438.94546  21950700.0474                   21950698.0314
 -34034490.50747 -26499230.04645  21839231.6414
  21839227.1054   21051546.30946  16418366.15644  23956691.1334   23956690.4534
  -9512301.17948  -7396715.76446  21617102.3594   21617102.7664   10852087.30546
   8476481.05344                  23030693.1334                   23030691.5984
 -15500598.64746 -12058749.56243  24207519.9144                   24207517.5554
 -23045272.97748 -17937172.07347  20551777.3134                   20551774.2544
 11  8 11  3 11 30.0000000  0  8G29G12G02G15G25G26G10G05
    227379.57247    190378.61345  21866180.1414                   21866178.2114
 -20086460.10748 -15632040.89346  21952018.8054                   21952016.7194
 -34062415.41247 -26520989.69045  21833917.9774
  21833913.3634   20883919.25446  16287747.70843  23924792.3914   23924791.5944
  -9560426.43648  -7434215.95846  21607944.8524   21607945.0164   10690064.60746
   8350229.63344                  22999861.7114                   22999860.9614
 -15463130.81146 -12029553.77543  24214648.9694                   24214647.5824
 -23073235.40148 -17958960.97047  20546456.0634                   20546453.3954
 11  8 11  3 12  0.0000000  0  8G29G12G02G15G25G26G10G05
     80314.78247     75782.71046  21838195.0634                   21838192.8954
 -20079219.44348 -15626398.83545  21953396.3834                   21953394.4494
 -34090257.47747 -26542684.78545  21828619.4224
  21828615.2274   20716247.77646  16157094.81444  23892885.3364   23892884.1914
  -9608018.41548  -7471300.62346  21598888.1804   21598888.4024   10528224.86447
   8224120.83144                  22969065.1564                   22969063.4574
 -15425598.31946 -12000307.61243  24221791.4924                   24221790.7934
 -23100754.23548 -17980404.20747  20541219.4844                   20541216.3954
 11  8 11  3 12 30.0000000  0  8G29G12G02G15G25G26G10G05
    -66594.51647    -38692.03546  21810239.2034                   21810237.0314
 -20071669.84948 -15620516.03246  21954833.1334                   21954830.7894
 -34118018.03147 -26564316.36445  21823336.5004
  21823332.9884   20548533.47046  16026408.47044  23860971.1334   23860969.2234
  -9655079.83948  -7507971.87046  21589932.6804   21589932.4614   10366570.47247
   8098156.43044                  22938302.9844                   22938300.7384
 -15388005.02546 -11971014.19843  24228945.5474                   24228944.4104
 -23127832.66448 -18001504.27747  20536066.4694                   20536063.4104
 11  8 11  3 13  0.0000000  0  8G29G12G02G15G25G26G10G05
   -213347.36847   -153044.86346  21782312.7424                   21782310.8634
 -20063815.14547 -15614395.49446  21956327.6724                   21956326.1054
 -34145697.93047 -26585885.11745  21818069.6094
  21818065.0824   20380778.04046  15895690.05844  23829047.0234   23829046.5664
  -9701613.16448  -7544231.60646  21581077.6724   21581077.3324   10205104.14547
   7972338.54844                  22907576.7424                   22907573.8204
 -15350354.16846 -11941675.88543  24236110.0164                   24236108.4804
 -23154473.90848 -18022263.69246  20530997.1024                   20530994.2774
 11  8 11  3 13 30.0000000  0  8G29G12G02G15G25G26G10G05
   -359937.63047   -267271.00346  21754417.4614                   21754415.9774
 -20055654.78748 -15608036.79146  21957880.7814                   21957878.9024
 -34173293.41447 -26607388.07445  21812818.2504
  21812813.8674   20212987.74346  15764944.51944  23797118.0004   23797117.0314
  -9747616.41048  -7580078.28846  21572323.7814   21572323.6374   10043832.85047
   7846672.67344                  22876887.4694                   22876885.8794
 -15312644.84746 -11912291.97543  24243286.4844                   24243283.4924
 -23180676.54147 -18042681.31946  20526010.8444                   20526008.2624
 11  8 11  3 14  0.0000000  0  9G29G12G02G15G25G26G10G21G05
   -506365.93547   -381370.94346  21726552.7504                   21726550.9654
 -20047193.94347 -15601443.92645  21959490.7734                   21959488.2544
 -34200807.12647 -26628827.31645  21807582.6724
  21807578.0474   20045163.32246  15634172.34744  23765182.0084   23765180.9264
  -9793093.46448  -7615514.94446  21563669.3204   21563669.2194
   9882757.89147   7721159.78444  22846236.1254                   22846234.9144
 -15274881.69246 -11882866.11043  24250472.3444                   24250467.9304
                                  26593676.13616                  25024181.219
 -23206445.18447 -18062760.76346  20521107.2114                   20521104.1524
 11  8 11  3 14 30.0000000  0  9G29G12G02G15G25G26G10G21G05
    922789.37147    732256.60346  21998512.6644                   21998509.7894
 -18463021.22747 -14367023.64746  22260949.0634                   22260946.7034
 -32652823.43547 -25422606.22745  22102153.7424                   22102149.5394
  21452727.56446  16730975.78344  24033031.7344   24033030.9694
  -8262629.92948  -6422945.96846  21854907.4144   21854907.4024
  11297302.84847   8823402.67044  23115414.9774                   23115413.2504
 -13661654.15646 -10625805.65343  24557459.1564                   24557456.4654
                                  28040577.858 6                  25299518.242
 -21656366.70648 -16854907.38246  20816077.4694                   20816074.3444
 11  8 11  3 15  0.0000000  0  9G29G12G02G15G25G26G10G21G05
    776678.58947    618404.08346  21970708.3984                   21970706.5434
 -18453981.64047 -14359979.83645  22262669.1564                   22262666.5904
 -32680186.11447 -25443927.77445  22096947.0554                   22096942.3874
  21284829.96646  16600146.55244  24001081.7734   24001081.0204
  -8307072.28448  -6457576.36746  21846450.2034   21846449.4924
  11136618.78947   8698194.36444  23084837.4924                   23084835.5004
 -13623803.62346 -10596311.72143  24564661.2424                   24564660.1604
  27912050.21646                  21761021.68052  25275059.8594   25275057.9614
 -21681286.96448 -16874325.75946  20811335.6484                   20811331.7424
 11  8 11  3 15 30.0000000  0  9G29G12G02G15G25G26G10G21G05
    630733.39747    504680.59746  21942935.9144                   21942933.6564
 -18444653.67847 -14352711.31845  22264443.8674                   22264441.8054
 -32707469.58047 -25465187.60345  22091755.1954                   22091750.7854
  21116903.50747  16469294.89744  23969127.4774   23969126.4184
  -8350996.18348  -6491802.76846  21838091.7664   21838091.8674
  10976139.05147   8573145.27444  23054299.2734                   23054297.1524
 -13585909.50646 -10566783.91143  24571873.9534                   24571871.3754
  27783521.59946                  21660869.60143  25250602.6094   25250600.8714
 -21705782.75448 -16893413.35746  20806673.9614                   20806670.8554
 11  8 11  3 16  0.0000000  0  9G29G12G02G15G25G26G10G21G05
    484958.50547    391089.81046  21915195.6564                   21915193.2424
 -18435037.81048 -14345218.43946  22266273.8984                   22266272.0704
 -32734671.52447 -25486383.91945  22086578.8204                   22086574.2274
  20948953.55047  16338424.89144  23937167.2424   23937165.0514
  -8394400.76048  -6525624.51046  21829832.2274   21829832.5234
  10815869.94747   8448260.32444  23023800.9454                   23023798.5984
 -13547971.83746 -10537222.08843  24579091.7194                   24579090.8954
  27654993.90046                  21560718.19142  25226144.4534   25226141.4844
 -21729853.90048 -16912170.08646  20802093.0634                   20802089.6994
 11  8 11  3 16 30.0000000  0  9G29G12G02G15G25G26G10G21G05
    339357.63547    277634.61746  21887488.8674                   21887487.0204
 -18425135.25447 -14337502.19846  22268158.3594                   22268156.3014
 -32761789.93947 -25507515.14345  22081418.1334                   22081413.6484
  20780984.57247  16207540.05844  23905203.5554   23905202.7384
  -8437285.92248  -6559041.51746  21821671.3364   21821671.5124
  10655816.55647   8323543.44844  22993344.1804                   22993342.6524
 -13509990.94046 -10507626.60942  24586319.8444                   24586317.8524
  27526467.97446                  21460568.23842  25201685.7664   25201684.1374
 -21753500.76148 -16930596.18946  20797593.0234                   20797589.8484
 11  8 11  3 17  0.0000000  0  9G29G12G02G15G25G26G10G21G05
    193936.22747    164319.28446  21859816.1644                   21859813.9064
 -18414945.99247 -14329562.53046  22270097.4064                   22270095.0084
 -32788821.99347 -25528579.05445  22076274.3674                   22076269.7034
  20613002.39747  16076644.94844  23873237.8834   23873236.4774
  -8479650.38848  -6592052.79246  21813609.7504   21813609.7814
  10495985.82847   8199000.08744  22962929.2424                   22962927.8094
 -13471966.39845 -10477997.16842  24593554.2974                   24593553.6604
  27397946.21246                  21360421.57743  25177228.6254   25177227.6644
 -21776722.71448 -16948691.21246  20793173.7894                   20793171.3404
 11  8 11  3 17 30.0000000  0  9G29G12G02G15G25G26G10G21G05
     48693.58148     51143.20446  21832177.4694                   21832174.9574
 -18404475.95847 -14321404.08745  22272089.9844                   22272087.5594
 -32815770.39047 -25549577.79045  22071146.0704                   22071141.6724
  20445006.94547  15945739.46644  23841269.2974   23841268.3014
  -8521498.65048  -6624661.81646  21805646.3444   21805646.7154
  10336378.41547   8074630.73744  22932557.1024                   22932554.4804
 -13433903.43145 -10448337.77042  24600798.1174                   24600795.7234
  27269425.46346                  21260275.55143  25152772.7814   25152770.0984
 -21799524.88248 -16966459.12246  20788835.1644                   20788831.9064
 11  8 11  3 18  0.0000000  0  9G29G12G02G15G25G26G10G21G05
    -96364.68648    -61889.14946  21804573.6174                   21804571.0434
 -18393724.67547 -14313026.48745  22274135.5084                   22274133.0944
 -32842631.27247 -25570508.33445  22066034.6724                   22066030.3444
  20277004.75847  15814828.81544  23809299.0704   23809298.2504
  -8562828.88248  -6656867.19246  21797781.4304   21797781.1604
  10177001.78747   7950441.20544  22902228.7504                   22902225.9694
 -13395800.97945 -10418647.46542  24608048.4924                   24608046.2584
  27140908.57246                  21160132.61743  25128315.5394   25128315.0004
 -21821905.94248 -16983898.88746  20784575.9774                   20784572.6724
 11  8 11  3 18 30.0000000  0  9G29G12G02G15G25G26G10G21G05
   -241237.86048   -174777.28746  21777005.1484                   21777002.4144
 -18382696.41747 -14304433.03945  22276233.9614                   22276232.1484
 -32869405.99347 -25591371.74045  22060939.1804                   22060934.8524
  20108997.33046  15683913.97444  23777328.3284   23777327.0474
  -8603644.20948  -6688671.34846  21790014.1334   21790014.2704
  10017858.03247   7826433.15244  22871943.5394                   22871942.4884
 -13357662.578 6                  24615305.844
  27012393.47946                  21059991.12543  25103860.5084   25103859.2894
 -21843869.09848 -17001013.02746  20780396.6804                   20780394.1914
 11  8 11  3 19  0.0000000  0  8G29G12G02G15G25G26G21G05
   -385923.36548   -287519.20646  21749472.1724                   21749469.8244
 -18371394.29647 -14295626.21345  22278385.0944                   22278383.1484
 -32896094.38847 -25612167.88745  22055861.2584                   22055856.5664
  19940987.63047  15552997.40544  23745357.4454   23745355.3284
  -8643946.35047  -6720075.62546  21782345.3134   21782345.3754
   9858950.71847   7702609.31744  22841705.3914                   22841703.2934
  26883879.93546                  20959850.84543  25079404.1094   25079403.1484
 -21865416.94148 -17017803.53946  20776296.2734                   20776293.3164
 11  8 11  3 19 30.0000000  0  8G29G12G02G15G25G26G21G05
   -530417.82248   -400112.25246  21721976.1954                   21721973.3554
 -18359820.11847 -14286607.40145  22280587.0784                   22280585.0474
 -32922695.47548 -25632895.99945  22050799.0864                   22050793.4454
  19772979.49447  15422082.03844  23713386.8054   23713384.0944
  -8683735.97947  -6751080.54646  21774773.6334   21774773.4144
   9700284.79947   7578973.59044  22811511.7504                   22811510.8554
  26755368.67446                  20859712.33143  25054950.4224   25054948.4804
 -21886550.81448 -17034271.48146  20772274.2424                   20772271.3984
 11  8 11  3 20  0.0000000  0  8G29G12G02G15G25G26G21G05
   -674716.08748   -512552.42246  21694516.7424                   21694514.4344
 -18347973.11147 -14277376.00245  22282841.7664                   22282839.7464
 -32949205.53947 -25653553.18645  22045754.5474                   22045749.5164
  19604979.26447  15291172.84944  23681417.3834   23681414.6214
  -8723011.53048  -6781684.87746  21767299.7344   21767299.5514
   9541867.33547   7455531.44344  22781366.4304                   22781364.5474
  26626862.08346                  20759577.44943  25030495.3524   25030494.0824
 -21907269.46348 -17050415.86746  20768331.7274                   20768329.1724
 11  8 11  3 20 30.0000000  0  8G29G12G02G15G25G26G21G05
   -818814.99948   -624837.25846  21667096.1174                   21667093.2584
 -18335856.19447 -14267934.27845  22285148.0634                   22285145.5514
 -32975623.66848 -25674138.74145  22040727.6414                   22040723.1294
  19436990.65446  15160272.70644  23649449.5784   23649447.7774
  -8761773.88148  -6811889.31046  21759923.4064   21759923.8554
   9383702.86547   7332286.44844  22751269.0234                   22751266.3094
  26498360.50646                  20659446.48943  25006042.4224   25006041.2344
 -21927574.30648 -17066237.82346  20764467.8364                   20764465.0394
 11  8 11  3 21  0.0000000  0  8G29G12G02G15G25G26G21G05
   -962713.99048   -736966.31146  21639712.9384                   21639710.9414
 -18323473.88747 -14258285.74145  22287503.6174                   22287501.5164
 -33001951.55148 -25694653.98245  22035716.6564                   22035712.4884
  19269014.91647  15029382.55144  23617485.1954   23617483.6644
  -8800026.75348  -6841696.74446  21752644.1724   21752644.2234
   9225793.14747   7209239.94244  22721219.2894                   22721216.7344
  26369861.65346                  20559317.64343  24981590.7814   24981589.0084
 -21947469.22348 -17081740.34046  20760682.1884                   20760679.0704
 11  8 11  3 21 30.0000000  0  8G29G12G02G15G25G26G21G05
  -1106416.89348   -848942.56646  21612366.8914                   21612364.7544
 -18310835.48547 -14248437.65945  22289908.5944                   22289907.1054
 -33028194.90248 -25715103.34145  22030722.9774                   22030718.6604
  19101048.70846  14898499.85444  23585521.6484   23585520.7344
  -8837778.02048  -6871113.33046  21745460.2664   21745460.1954
   9068136.00347   7086390.25444  22691217.4774                   22691215.8094
  26241359.07146                  20459185.85043  24957137.4534   24957135.8794
 -21966962.66648 -17096930.04046  20756972.6484                   20756969.6724
 11  8 11  3 22  0.0000000  0  8G29G12G02G15G25G26G21G05
  -1249920.01248   -960763.15146  21585059.2194                   21585056.5084
 -18297942.76647 -14238391.40545  22292362.3284                   22292360.0124
 -33054352.72647 -25735486.07845  22025745.4614                   22025741.1094
  18933096.05246  14767627.73444  23553561.0474   23553559.5704
  -8875028.44048  -6900139.63746  21738371.7344   21738371.5704
   8910736.08547   6963741.01345  22661266.0474                   22661263.2464
  26112853.09446                  20359051.45843  24932682.5864   24932680.5824
 -21986055.96448 -17111807.92246  20753339.4224                   20753336.5434
 11  8 11  3 22 30.0000000  0  8G29G12G02G15G25G26G21G05
  -1393225.37348  -1072429.64046  21557788.3444                   21557786.7344
 -18284802.69047 -14228152.40645  22294862.5864                   22294860.9494
 -33080428.84848 -25755805.13945  22020783.5474                   22020778.6994
  18765156.12246  14636765.48044  23521603.5704   23521603.0634
  -8911784.02248  -6928780.35746  21731377.4924   21731377.3364
   8753592.92847   6841291.84345  22631362.7034                   22631360.8244
  25984339.28446                  20258910.87943  24908227.6804   24908226.0664
 -22004755.64348 -17126379.10946  20749780.9384                   20749778.0234
 11  8 11  3 23  0.0000000  0  8G29G12G02G15G25G26G21G05
  -1536330.02948  -1183939.72646  21530557.2734                   21530554.7814
 -18271417.12747 -14217722.12445  22297410.2504                   22297407.6524
 -33106422.16948 -25776059.68245  22015836.6884                   22015831.8324
  18597232.42946  14505915.93644  23489648.3444   23489648.1764
  -8948045.72948  -6957036.24746  21724477.0474   21724477.0744
   8596711.27147   6719046.42745  22601508.8524                   22601507.3204
  25855817.96646                  20158764.51143  24883771.0944   24883769.1684
 -22023062.74248 -17140644.38246  20746297.3674                   20746294.3054
 11  8 11  3 23 30.0000000  0  8G29G12G02G15G25G26G21G05
  -1679233.82048  -1295293.31446  21503363.4694                   21503360.8094
 -18257792.04547 -14207105.19145  22300002.7424                   22300000.0474
 -33132334.91548 -25796251.43845  22010905.9774                   22010901.0044
  18429325.75946  14375079.61544  23457697.5234   23457695.9454
  -8983817.70048  -6984910.51246  21717669.9534   21717669.9064
   8440092.53047   6597005.88545  22571705.1644                   22571703.2894
  25727286.20946                  20058609.98043  24859311.5004   24859309.2154
 -22040982.03548 -17154607.46946  20742887.6484                   20742884.0824
 11  8 11  3 24  0.0000000  0  8G29G12G02G15G25G26G21G05
  -1821935.03148  -1406489.03046  21476207.8364                   21476206.0744
 -18243930.82847 -14196304.25945  22302640.3834                   22302637.6564
 -33158167.43048 -25816380.68145  22005990.3204                   22005985.3914
  18261438.23646  14244258.25544  23425749.1094   23425747.8404
  -9019102.57548  -7012405.23846  21710955.4224   21710955.3714
   8283739.77547   6475172.61345  22541952.3364                   22541950.1564
  25598743.12446                  19958446.62343  24834851.3204   24834848.3714
 -22058516.49948 -17168270.68946  20739550.5554                   20739547.7934
 11  8 11  3 24 30.0000000  0  8G29G12G02G15G25G26G21G05
  -1964429.05348  -1517523.29746  21449092.1334                   21449090.4494
 -18229834.21247 -14185319.91045  22305323.0784                   22305321.2464
 -33183917.03348 -25836445.30945  22001090.2504                   22001085.3364
  18093575.53146  14113456.20744  23393805.6954   23393803.0984
  -9053900.04148  -7039520.13546  21704333.4454   21704333.1994
   8127658.95547   6353551.25745  22512250.8914                   22512249.0434
  25470190.07646                  19858275.45643  24810387.6804   24810386.1094
 -22075665.93048 -17181633.87646  20736287.2274                   20736284.1524
 11  8 11  3 25  0.0000000  0  8G29G12G02G15G25G26G21G05
  -2106714.87448  -1628395.33946  21422016.3984                   21422014.1564
 -18215506.36647 -14174155.35845  22308049.4454                   22308047.6414
 -33209585.10648 -25856446.43445  21996206.0314                   21996201.5744
  17925739.26647  13982674.78744  23361867.9384   23361865.6564
  -9088213.30648  -7066257.75646  21697803.9384   21697803.6804
   7971852.39147   6232143.58945  22482602.4304                   22482600.3634
  25341625.77945                  19758095.66043  24785922.0234   24785921.2974
 -22092434.16148 -17194700.02146  20733096.1094                   20733093.6294
 11  8 11  3 25 30.0000000  0  8G29G12G02G15G25G26G21G05
   -673366.66648   -511500.58346  21694773.7344                   21694770.7894
 -16625532.04947 -12935214.34545  22610611.9614                   22610609.2814
 -31659751.57148 -24648783.94945  22291129.1334                   22291124.3714
  19333356.94947  15079519.82944  23629728.4924   23629727.4414
  -7546624.29748  -5865019.55846  21991158.8364   21991158.7774
   9391748.02247   7338555.82345  22752799.1414                   22752797.2234
  26788472.94045                  20885509.15642  25061248.4064   25061245.9024
 -20533404.38048 -15979871.64646  21029769.8364                   21029766.9064
 11  8 11  3 26  0.0000000  0  8G29G12G02G15G25G26G21G05
   -815228.70148   -622042.40046  21667777.8834                   21667775.3404
 -16610749.94647 -12923695.85845  22613424.7584                   22613422.9494
 -31685254.75847 -24668656.59645  22286276.4694                   22286271.5664
  19165583.10847  14948787.04944  23597802.5784   23597801.3164
  -7579974.25748  -5891006.54046  21984811.9844   21984812.5594
   9236502.17347   7217585.02945  22723256.8674                   22723254.8634
  26659885.09045                  20785310.94942  25036778.2814   25036776.8714
 -20549416.21148 -15992348.39846  21026722.9614                   21026720.3204
 11  8 11  3 26 30.0000000  0  8G29G12G02G15G25G26G21G05
   -956873.66048   -732415.04846  21640823.9064                   21640821.2114
 -16595743.96947 -12912002.88545  22616280.4454                   22616278.0394
 -31710673.62848 -24688463.52645  22281439.2664                   22281434.1764
  18997846.68947  14818083.45844  23565882.8524   23565880.8524
  -7612844.15448  -5916619.44746  21978557.4304   21978556.9384
   9081543.69647   7096838.20645  22693769.1334                   22693767.9184
  26531286.01146                  20685104.00442  25012307.0554   25012304.2624
 -20565051.75448 -16004531.93046  21023747.2974                   21023744.6414
 11  8 11  3 27  0.0000000  0  8G29G12G02G15G25G26G21G05
  -1098301.05948   -842618.18646  21613910.7344                   21613908.7734
 -16580519.18047 -12900139.44045  22619177.6334                   22619174.8874
 -31736009.93147 -24708206.09145  22276617.2114                   22276613.2464
  18830148.48447  14687409.64144  23533970.5314   23533967.9494
  -7645237.99548  -5941861.41246  21972393.0784   21972392.6134
   8926874.27947   6976316.61444  22664336.2814                   22664334.4264
  26402673.42246                  20584886.60443  24987832.9384   24987831.3364
 -20580315.49348 -16016425.73946  21020842.7504                   21020839.9614
 11  8 11  3 27 30.0000000  0  8G29G12G02G15G25G26G21G05
  -1239506.80248   -952648.59446  21587040.4384                   21587038.6134
 -16565076.14747 -12888105.95045  22622116.7734                   22622113.2894
 -31761261.52648 -24727882.67445  22271812.9694                   22271807.4534
  18662493.51447  14556769.50744  23502066.7814   23502064.7624
  -7677155.71948  -5966732.34846  21966319.3754   21966318.8204
   8772499.87547   6856024.92845  22634960.5004                   22634958.0084
  26274048.73646                  20484659.56843  24963356.5944   24963353.6454
 -20595207.66448 -16028030.03646  21018008.7344                   21018006.0314
 11  8 11  3 28  0.0000000  0  8G29G12G02G15G25G26G21G05
  -1380489.26748  -1062505.00546  21560212.0784                   21560209.7664
 -16549419.42547 -12875905.91045  22625095.5394                   22625093.1254
 -31786429.15147 -24747493.83245  22267023.6644                   22267018.4454
  18494883.96547  14426164.75644  23470172.2194   23470169.9734
  -7708600.39648  -5991234.69646  21960335.7114   21960335.9264
   8618422.91447   6735965.01144  22605640.0864                   22605637.7384
  26145410.79046                  20384422.30643  24938876.4534   24938875.5474
 -20609731.57448 -16039347.37146  21015244.9384                   21015242.7934
 11  8 11  3 28 30.0000000  0  8G29G12G02G15G25G26G21G05
  -1521243.95848  -1172183.94446  21533427.7274                   21533425.0124
 -16533549.61047 -12863539.82745  22628114.8914                   22628112.9654
 -31811510.06047 -24767037.41045  22262250.6804                   22262245.6134
  18327325.22247  14295599.50544  23438286.2034   23438284.2384
  -7739571.82448  -6015368.28546  21954442.3054   21954441.8404
   8464649.74847   6616141.80245  22576377.4384                   22576376.1724
  26016760.92546                  20284175.80243  24914395.5084   24914393.9144
 -20623887.26848 -16050377.76246  21012551.5474                   21012548.4344
 11  8 11  3 29  0.0000000  0  8G29G12G02G15G25G26G21G05
  -1661770.65248  -1281685.21946  21506686.3754                   21506683.2854
 -16517471.57147 -12851011.49545  22631174.6174                   22631173.0314
 -31836506.29147 -24786514.99245  22257493.8134                   22257488.5864
  18159817.91747  14165074.38144  23406410.9454   23406409.3364
  -7770074.25248  -6039136.40746  21948637.3914   21948637.4964
   8311181.65647   6496556.29645  22547174.1644                   22547172.3524
  25888096.81447                  20183918.06443  24889912.6334   24889908.9734
 -20637679.18048 -16061124.68546  21009926.7344                   21009923.6174
 11  8 11  3 29 30.0000000  0  8G29G12G02G15G25G26G21G05
  -1802064.64248  -1391005.18346  21479989.4534                   21479986.7584
 -16501185.89747 -12838321.37445  22634274.3134                   22634272.2774
 -31861415.09947 -24805924.47445  22252754.0704                   22252749.2114
  17992367.93647  14034593.89944  23374546.2344   23374544.0634
  -7800107.31648  -6062538.79846  21942921.9304   21942922.8244
   8158024.84647   6377213.37045  22518028.7974                   22518027.1524
  25759420.67946                  20083651.06343  24865426.5234   24865423.5234
 -20651107.17848 -16071588.04146  21007371.5164                   21007368.5744
 11  8 11  3 30  0.0000000  0  8G29G12G02G15G25G26G21G05
  -1942125.58048  -1500143.52746  21453336.5394                   21453334.2344
 -16484697.98447 -12825473.65145  22637411.9224                   22637409.9734
 -31886238.53547 -24825267.43445  22248030.1254                   22248025.5124
  17824975.79547  13904158.51744  23342692.2344   23342690.3984
  -7829675.49848  -6085578.93846  21937295.5394   21937295.4924
   8005180.73647   6258114.10545  22488944.0164                   22488941.9774
  25630729.51447                  19983372.34243  24840936.1804   24840934.5704
 -20664175.87148 -16081771.43646  21004884.6024                   21004882.0664
 11  8 11  3 30 30.0000000  0  8G29G12G02G15G25G26G21G05
  -2081949.13948  -1609096.91046  21426729.2114                   21426726.2464
 -16468007.92947 -12812468.40845  22640587.6804                   22640585.3404
 -31910973.87947 -24844541.76145  22243323.0474                   22243319.1644
  17657646.87447  13773772.36644  23310850.8204   23310848.4064
  -7858778.66648  -6108256.72246  21931757.6024   21931757.6254
   7852655.45047   6139263.25545  22459918.9304                   22459917.5594
  25502025.08147                  19883083.29343  24816444.6804   24816442.7194
 -20676885.20947 -16091674.78446  21002466.2194                   21002463.2814
 11  8 11  3 31  0.0000000  0  8G29G12G02G15G25G26G21G05
  -2221533.44448  -1717863.88846  21400167.0554                   21400164.1294
 -16451121.15547 -12799309.90445  22643801.3594                   22643799.3874
 -31935621.43947 -24863747.65745  22238633.0474                   22238628.5514
  17490383.96647  13643437.63744  23279021.8134   23279020.3134
  -7887419.61548  -6130574.34646  21926307.4924   21926307.4654
   7700451.84147   6020663.09645  22430955.6484                   22430953.3444
  25373306.21347                  19782782.94643  24791950.4614   24791948.0314
 -20689238.65847 -16101300.81346  21000115.2034                   21000112.2814
 11  8 11  3 31 30.0000000  0  8G29G12G02G15G25G26G21G05
  -2360877.23148  -1826443.42746  21373650.7584                   21373648.3164
 -16434040.65047 -12786000.40945  22647051.1954                   22647048.7934
 -31960182.01947 -24882885.76945  22233959.4844                   22233954.5314
  17323188.69847  13513155.61144  23247205.6804   23247204.4614
  -7915601.72248  -6152534.42546  21920944.8754   21920944.6454
   7548572.65647   5902315.72245  22402054.4304                   22402052.0514
  25244571.56647                  19682470.33543  24767452.6804   24767450.6334
 -20701239.35948 -16110651.96246  20997831.8364                   20997828.6764
 11  8 11  3 32  0.0000000  0  8G29G12G02G15G25G26G21G05
  -2499979.46048  -1934834.76446  21347179.9614                   21347177.6484
 -16416770.77047 -12772543.37245  22650337.9844                   22650335.2504
 -31984656.92847 -24901957.11345  22229301.7504                   22229297.5204
  17156062.71547  13382927.58544  23215402.1644   23215400.7274
  -7943328.47648  -6174139.68546  21915668.2344   21915668.5904
   7397019.98547   5784222.77345  22373214.2584                   22373212.5044
  25115819.24147                  19582143.94443  24742953.1884   24742949.1174
 -20712890.92548 -16119731.06346  20995614.2034                   20995611.0204
 11  8 11  3 32 30.0000000  0  8G29G12G02G15G25G26G21G05
  -2638835.92348  -2043034.58546  21320756.5234                   21320754.4184
 -16399312.66047 -12758939.64845  22653659.7894                   22653657.0594
 -32009043.81847 -24920959.89645  22224661.6954                   22224656.8984
  16989011.12947  13252757.52945  23183614.0634   23183611.8404
  -7970600.18548  -6195390.37846  21910478.9454   21910479.0704
   7245799.54447   5666388.69645  22344438.2114                   22344436.0984
  24987050.67946                  19481804.91843  24718447.6724   24718446.7504
 -20724193.91048 -16128538.54446  20993463.2344                   20993460.1954
 11  8 11  3 33  0.0000000  0  8G29G12G02G15G25G26G21G05
  -2777444.73948  -2151041.43046  21294379.9224                   21294377.6994
 -16381670.13847 -12745192.24245  22657016.8674                   22657014.6884
 -32033342.98347 -24939894.32945  22220037.3914                   22220032.9344
  16822036.29047  13122647.28144  23151839.5164   23151837.7154
  -7997419.76848  -6216288.75946  21905375.0864   21905375.1764
   7094914.57547   5548816.03145  22315726.0164                   22315723.5784
  24858264.64746                  19381452.28243  24693940.2194   24693938.4884
 -20735151.48148 -16137076.88146  20991378.2974                   20991374.9844
 11  8 11  3 33 30.0000000  0  8G29G12G02G15G25G26G21G05
  -2915804.33648  -2258854.10146  21268051.5164                   21268048.9614
 -16363846.97047 -12731304.05945  22660408.4304                   22660406.6954
 -32057555.04347 -24958760.87245  22215430.0474                   22215425.4924
  16655140.75447  12992598.88844  23120080.1954   23120078.5314
  -8023790.22348  -6236837.16346  21900357.0864   21900357.0594
   6944367.71947   5431506.82545  22287077.6254                   22287074.8714
  24729460.15846                  19281085.22143  24669430.0474   24669428.5944
 -20745766.59548 -16145348.34646  20989358.1954                   20989354.9184
 11  8 11  3 34  0.0000000  0  8G29G12G02G15G25G26G21G05
  -3053910.80848  -2366469.53446  21241770.3754                   21241768.0124
 -16345844.33047 -12717276.03245  22663834.6024                   22663832.3094
 -32081677.90348 -24977557.91845  22210839.4844                   22210834.5394
  16488329.29347  12862616.01344  23088336.8204   23088335.4774
  -8049712.21448  -6257036.10846  21895424.3284   21895424.0554
   6794164.37047   5314465.26845  22258494.6334                   22258492.7114
  24600638.40446                  19180704.79743  24644915.5234   24644913.6764
 -20756040.28647 -16153353.78546  20987403.3284                   20987400.0274
 11  8 11  3 34 30.0000000  0  8G29G12G02G15G25G26G21G05
  -3191763.26948  -2473887.02646  21215538.2034                   21215535.6994
 -16327667.12647 -12703111.99245  22667293.4454                   22667291.3874
 -32105713.09247 -24996286.63445  22206265.5164                   22206260.7424
  16321603.21847  12732699.69944  23056610.1644   23056607.9414
  -8075189.69748  -6276888.69846  21890575.5164   21890576.2504
   6644306.57347   5197693.01045  22229977.8674                   22229975.6724
  24471797.02845                  19080309.04443  24620397.6954   24620396.5514
 -20765976.47347 -16161096.22646  20985512.5634                   20985508.8834
 11  8 11  3 35  0.0000000  0  8G29G12G02G15G25G26G21G05
  -3329357.43948  -2581103.25046  21189354.4844                   21189352.6054
 -16309316.55247 -12688812.85045  22670785.7274                   22670784.0784
 -32129658.09148 -25014945.10445  22201709.0004                   22201704.2664
  16154967.76647  12602853.98444  23024900.4144   23024897.2504
  -8100222.89948  -6296395.07446  21885812.1334   21885812.5044
   6494799.79847   5081194.25145  22201527.4534                   22201525.4924
  24342937.69646                  18979899.23843  24595876.7274   24595874.9884
 -20775575.59148 -16168576.04546  20983685.8984                   20983682.3524
 11  8 11  3 35 30.0000000  0  8G29G12G02G15G25G26G21G05
  -3466692.94148  -2688117.93046  21163220.4614                   21163217.9414
 -16290797.34647 -12674382.29245  22674309.8914                   22674307.6254
 -32153514.32148 -25033534.37945  22197169.9454                   22197164.9924
  15988423.75047  12473079.46544  22993208.2664   22993206.0164
  -8124816.18448  -6315558.66946  21881132.1484   21881132.3524
   6345646.07747   4964970.61945  22173144.3834                   22173142.6564
  24214058.19946                  18879473.74943  24571351.5784   24571350.4494
 -20784841.59648 -16175796.30046  20981922.4304                   20981919.0554
 11  8 11  3 36  0.0000000  0  8G29G12G02G15G25G26G21G05
  -3603765.91848  -2794928.01346  21137136.3364                   21137133.5944
 -16272111.40147 -12659821.81845  22677865.8524                   22677863.2704
 -32177280.54948 -25052053.52845  22192647.0634                   22192641.7664
  15821975.86446  12343379.83944  22961533.5394   22961531.8914
  -8148970.66448  -6334380.33846  21876535.8674   21876536.4224
   6196849.89847   4849025.58845  22144830.4534                   22144827.9694
  24085159.22646                  18779033.12243  24546822.9614   24546821.7854
 -20793775.78748 -16182757.99746  20980222.3284                   20980219.2304
 11  8 11  3 36 30.0000000  0  8G29G12G02G15G25G26G21G05
  -2165150.67048  -1673929.11446  21410896.0314                   21410893.3014
 -14677843.60947 -11417535.23545  22981244.8054                   22981242.5234
 -30625536.83747 -23842902.59345  22487933.9144                   22487928.7624
  17231051.23147  13441360.68144  23229672.4454   23229669.7814
  -6597269.16348  -5125262.27246  22171814.7194   22171814.5944
   7623838.92047   5960965.10945  22416376.3754                   22416374.3554
  25531663.40346                  19906179.37243  24822083.9774   24822082.3714
 -19226961.76648 -14961863.95446  21278377.1254                   21278373.9734
 11  8 11  3 37  0.0000000  0  8G29G12G02G15G25G26G21G05
  -2301692.90448  -1780325.63346  21384912.9534                   21384910.0594
 -14658834.51547 -11402722.96345  22984861.9774                   22984859.4844
 -30649123.04647 -23861281.44945  22483445.9304                   22483440.8954
  17064803.26547  13311816.86044  23198035.9924   23198033.3484
  -6620554.56848  -5143406.74546  22167383.6884   22167384.5984
   7475767.79747   5845585.07645  22388199.5084                   22388197.8014
  25402722.75746                  19805706.11243  24797547.2894   24797544.8164
 -19235241.42748 -14968315.65946  21276801.9454                   21276798.5904
 11  8 11  3 37 30.0000000  0  8G29G12G02G15G25G26G21G05
  -2437966.38648  -1886512.73746  21358980.6484                   21358978.1914
 -14639668.21147 -11387788.17445  22988509.2584                   22988506.9654
 -30672618.94047 -23879589.92445  22478974.6724                   22478970.3204
  16898659.62547  13182354.37544  23166419.6954   23166416.9024
  -6643408.93848  -5161215.34346  22163034.6254   22163035.1414
   7328064.62447   5730491.74445  22360092.4924                   22360090.2624
  25273760.53046                  19705216.23343  24773006.3984   24773003.7854
 -19243197.28548 -14974515.00946  21275287.6724                   21275284.3794
 11  8 11  3 38  0.0000000  0  8G29G12G02G15G25G26G21G05
  -2573969.43248  -1992489.10946  21333100.2504                   21333097.0704
 -14620348.99247 -11372734.27345  22992185.8674                   22992183.1604
 -30696024.98447 -23897828.43145  22474520.9144                   22474515.9104
  16732623.25146  13052975.43044  23134823.6024   23134821.8674
  -6665835.48648  -5178690.57346  22158767.4694   22158767.2304
   7180732.16547   5615687.27945  22332055.6954                   22332053.9024
  25144775.70446                  19604708.59343  24748461.1484   24748458.0204
 -19250832.48748 -14980464.53146  21273834.7734                   21273831.5634
 11  8 11  3 38 30.0000000  0  8G29G12G02G15G25G26G21G05
  -2709697.02748  -2098250.86046  21307272.4304                   21307269.8594
 -14600877.27947 -11357561.50845  22995890.4614                   22995889.1024
 -30719338.27847 -23915994.60545  22470084.2424                   22470079.2234
  16566699.32647  12923684.08745  23103249.8364   23103248.2304
  -6687834.23748  -5195832.44546  22154580.9924   22154580.9344
   7033776.50247   5501176.41945  22304090.9304                   22304089.3594
  25015770.30546                  19504184.90243  24723912.8834   24723908.9454
 -19258147.04748 -14986164.20146  21272443.1724                   21272439.8284
 11  8 11  3 39  0.0000000  0  8G29G12G02G15G25G26G21G05
  -2845149.60348  -2203798.29546  21281496.5944                   21281493.6844
 -14581258.85347 -11342274.43245  22999624.2194                   22999622.0394
 -30742561.35347 -23934090.52445  22465665.2894                   22465660.5594
  16400888.43947  12794480.80845  23071697.0394   23071694.7114
  -6709410.40448  -5212645.04346  22150474.8594   22150475.4734
   6887198.24547   5386959.64045  22276198.1564                   22276196.2894
  24886740.94547                  19403642.62943  24699359.0084   24699356.2664
 -19265146.04548 -14991617.97946  21271111.0944                   21271107.6954
 11  8 11  3 39 30.0000000  0  8G29G12G02G15G25G26G21G05
  -2980322.84448  -2309128.05546  21255773.6804                   21255771.2154
 -14561494.37247 -11326873.54945  23003385.8524                   23003382.4534
 -30765691.76147 -23952114.22645  22461263.7814                   22461258.5984
  16235195.44547  12665369.43644  23040166.2894   23040163.6484
  -6730564.53148  -5229128.76046  22146449.4614   22146449.3874
   6741003.25947   5273041.52445  22248378.3914                   22248376.2814
  24757689.17247                  19303082.94143  24674801.1644   24674798.1884
 -19271830.05648 -14996826.30946  21269839.4144                   21269836.0514
 11  8 11  3 40  0.0000000  0  9G29G12G02G15G25G26G18G21G05
  -3115213.38148  -2414237.54046  21230104.9144                   21230102.1414
 -14541586.38547 -11311360.86245  23007173.4304                   23007171.2974
 -30788728.19447 -23970064.69045  22456879.8674                   22456875.8404
  16069624.55247  12536353.18045  23008659.7734   23008657.7344
  -6751297.96448  -5245284.65146  22142503.9454   22142504.4144
   6595196.07047   5159425.55745  22220632.4534                   22220630.7384
  31272095.86956  24382317.54253  24731909.7504                   24731907.8054
  24628615.58646                  19202506.25243  24650239.3054   24650236.4884
 -19278200.57448 -15001790.35846  21268626.8754                   21268623.3954
 11  8 11  3 40 30.0000000  0  9G29G12G02G15G25G26G18G21G05
  -3249824.39248  -2519129.20246  21204489.2504                   21204486.5274
 -14521543.42847 -11295742.96945  23010988.0084                   23010985.5274
 -30811675.61747 -23987945.77145  22452513.1334                   22452508.5204
  15904173.50447  12407430.31345  22977175.5084   22977173.5234
  -6771618.83748  -5261119.06946  22138637.2814   22138637.2074
   6449774.63947   5046110.21445  22192959.4614                   22192956.7894
  31110984.81946  24256776.64143  24701252.0164                   24701249.4884
  24499514.28547                  19101907.88443  24625672.3674   24625668.4384
 -19284265.51848 -15006516.29946  21267472.8754                   21267469.7704
 11  8 11  3 41  0.0000000  0  9G29G12G02G15G25G26G18G21G05
  -3384155.08348  -2623802.45046  21178927.1334                   21178924.2734
 -14501370.05147 -11280023.46945  23014827.0234                   23014824.9924
 -30834535.39147 -24005758.58145  22448162.9384                   22448157.8834
  15738843.79947  12278602.03945  22945713.8834   22945712.1724
  -6791531.20948  -5276635.18646  22134847.8674   22134847.5664
   6304740.95047   4933096.99845  22165360.4924                   22165358.3404
  30950020.68646  24131350.22043  24670620.9064                   24670619.6994
  24370383.30947                  19001286.33343  24601099.7114   24601095.3484
 -19290028.63748 -15011007.04746  21266376.1254                   21266372.4734
 11  8 11  3 41 30.0000000  0  9G29G12G02G15G25G26G18G21G05
  -3518199.10848  -2728252.32846  21153419.1484                   21153416.6294
 -14481065.11447 -11264201.44645  23018690.9844                   23018688.5044
 -30857303.19247 -24023499.70945  22443830.9844                   22443825.8524
  15573642.53746  12149873.80945  22914277.6174   22914275.3954
  -6811033.66448  -5291831.88246  22131136.6564   22131136.7704
   6160102.54347   4820391.80045  22137836.7894                   22137834.7194
  30789208.70646  24006042.34543  24640019.0004                   24640018.5634
  24241226.26146                  18900644.52843  24576521.5234   24576518.8134
 -19295488.58248 -15015261.56346  21265337.2814                   21265333.9414
 11  8 11  3 42  0.0000000  0  9G29G12G02G15G25G26G18G21G05
  -3651950.19148  -2832473.93246  21127967.2034                   21127964.5234
 -14460627.90847 -11248276.35345  23022579.6954                   23022577.4344
 -30879974.99447 -24041166.05645  22439516.4534                   22439510.9844
  15408576.67047  12021251.08045  22882865.9614   22882863.6524
  -6830124.89248  -5306708.14946  22127503.8984   22127503.2274
   6015866.88647   4708000.42445  22110388.8364                   22110387.0784
  30628553.97546  23880856.96443  24609447.0944                   24609445.3094
  24112046.60846                  18799985.20943  24551938.6804   24551936.4734
 -19300643.91448 -15019278.71946  21264355.9774                   21264352.9344
 11  8 11  3 42 30.0000000  0  9G29G12G02G15G25G26G18G21G05
  -3785404.97148  -2936464.64946  21102571.5004                   21102568.8754
 -14440060.68147 -11232249.95945  23026492.8204                   23026490.9884
 -30902549.35647 -24058756.43645  22435220.6094                   22435214.9614
  15243650.07547  11892736.89845  22851482.1484   22851479.1994
  -6848806.46448  -5321265.19546  22123948.2814   22123948.2544
   5872037.99047   4595925.99045  22083019.9924                   22083017.2304
  30468058.75846  23755795.92943  24578906.0474                   24578904.7194
  23982844.48146                  18699308.20543  24527353.4454   24527350.0784
 -19305496.14448 -15023059.68246  21263432.6174                   21263429.1954
 11  8 11  3 43  0.0000000  0  9G29G12G02G15G25G26G18G21G05
  -3918561.27748  -3040222.78946  21077232.8284                   21077230.4344
 -14419366.55847 -11216124.69045  23030431.0554                   23030428.8874
 -30925026.26247 -24076270.92845  22430943.2424                   22430938.1094
  15078866.05347  11764333.82345  22820124.1484   22820121.8914
  -6867081.26748  -5335505.27746  22120471.1724   22120471.3634
   5728619.61847   4484171.45345  22055728.0164                   22055725.8754
  30307724.07746  23630859.88343  24548395.6484                   24548393.8054
  23853619.83246                  18598613.77443  24502761.7734   24502759.1844
 -19310047.94348 -15026606.55546  21262566.3834                   21262563.5664
 11  8 11  3 43 30.0000000  0  9G29G12G02G15G25G26G18G21G05
  -4051418.10247  -3143747.56346  21051951.2194                   21051948.2934
 -14398550.07147 -11199904.03745  23034392.6804                   23034390.6134
 -30947406.69747 -24093710.23845  22426684.2194                   22426679.5124
  14914226.26047  11636043.15245  22788794.4774   22788792.1254
  -6884953.12048  -5349431.38346  22117070.4694   22117070.1914
   5585613.75947   4372738.34945  22028515.0704                   22028512.6914
  30147550.30946  23506049.35143  24517915.3984                   24517913.9454
  23724370.08746                  18497899.74143  24478166.7344   24478163.7734
 -19314302.83448 -15029922.07746  21261756.8754                   21261753.4304
